[[{"header":{"parameterUnit":"m.s-1","parameterCategory":1,"la1":30.6,"la2":29.2853,"lo1":-89.7004,"lo2":-87.6739,"dy":0.0162,"dx":0.0183,"nx":112,"ny":82,"refTime":"2024-07-20T06:00:00:Z","depth":0,"parameterNumber":2,"parameterNumberName":"U-component_of_WINDS"},"data":[0.0,0.0,0.0,0.0,0.0,0.0,0.0,0.0,0.0,0.0,0.0,0.0,0.0,0.0,0.0,0.0,0.0,0.0,0.0,0.0,0.0,0.0,0.0,0.0,0.0,0.0,0.0,0.0,0.0,0.0,0.0,0.0,0.0,0.0,0.0,0.0,0.0,0.0,0.0,0.0,0.0,0.0,0.0,0.0,0.0,0.0,0.0,0.0,0.0,0.0,0.0,0.0,0.0,0.0,0.0,0.0,0.0,0.0,0.0,0.0,0.0,0.0,0.0,0.0,0.0,0.0,0.0,0.0,0.0,0.0,0.0,0.0,0.0,0.0,0.0,0.0,0.0,0.0,0.0,0.0,0.0,0.0,0.0,0.0,0.0,0.0,0.0,0.0,0.0,0.0,-3.1808,-3.5481,-3.7815,-3.9034,-3.8911,-3.6699,-3.4154,-3.1468,0.0,0.0,0.0,0.0,0.0,0.0,0.0,0.0,0.0,0.0,0.0,0.0,0.0,0.0,0.0,0.0,0.0,0.0,0.0,0.0,0.0,0.0,0.0,0.0,0.0,0.0,0.0,0.0,0.0,0.0,0.0,0.0,0.0,0.0,0.0,0.0,0.0,0.0,0.0,0.0,0.0,0.0,0.0,0.0,0.0,0.0,0.0,0.0,0.0,0.0,0.0,0.0,0.0,0.0,0.0,0.0,0.0,0.0,0.0,0.0,0.0,0.0,0.0,0.0,0.0,0.0,0.0,0.0,0.0,0.0,0.0,0.0,0.0,0.0,0.0,0.0,0.0,0.0,0.0,0.0,0.0,0.0,0.0,0.0,0.0,0.0,0.0,0.0,0.0,0.0,0.0,0.0,0.0,0.0,0.0,0.0,0.0,0.0,0.0,0.0,0.0,0.0,0.0,0.0,-3.225,-3.7103,-3.7969,-3.7892,-3.7161,-3.543,-3.2993,-2.9704,0.0,0.0,0.0,0.0,0.0,0.0,0.0,0.0,0.0,0.0,0.0,0.0,0.0,0.0,0.0,0.0,0.0,0.0,0.0,0.0,0.0,0.0,0.0,0.0,0.0,0.0,0.0,0.0,0.0,0.0,0.0,0.0,0.0,0.0,0.0,0.0,0.0,0.0,0.0,0.0,0.0,0.0,0.0,0.0,0.0,0.0,0.0,0.0,0.0,0.0,0.0,0.0,0.0,0.0,0.0,0.0,0.0,0.0,0.0,0.0,0.0,0.0,0.0,0.0,0.0,0.0,0.0,0.0,0.0,0.0,0.0,0.0,0.0,0.0,0.0,0.0,0.0,0.0,0.0,0.0,0.0,0.0,0.0,0.0,0.0,0.0,0.0,0.0,0.0,0.0,0.0,0.0,0.0,0.0,0.0,0.0,0.0,0.0,0.0,0.0,0.0,0.0,0.0,-3.1025,-3.3353,-3.7546,-3.7199,-3.6654,-3.6692,-3.4334,-3.1775,-2.9261,-2.7467,0.0,0.0,0.0,0.0,0.0,0.0,0.0,0.0,0.0,0.0,0.0,0.0,0.0,0.0,0.0,0.0,0.0,0.0,0.0,0.0,0.0,0.0,0.0,0.0,0.0,0.0,0.0,0.0,0.0,0.0,0.0,0.0,0.0,0.0,0.0,0.0,0.0,0.0,0.0,0.0,0.0,0.0,0.0,0.0,0.0,0.0,0.0,0.0,0.0,0.0,0.0,0.0,0.0,0.0,0.0,0.0,0.0,0.0,0.0,0.0,0.0,0.0,0.0,0.0,0.0,0.0,0.0,0.0,0.0,0.0,0.0,0.0,0.0,0.0,0.0,0.0,0.0,0.0,0.0,0.0,0.0,0.0,0.0,0.0,0.0,0.0,0.0,0.0,0.0,0.0,0.0,0.0,0.0,0.0,0.0,0.0,0.0,0.0,0.0,0.0,0.0,0.0,-3.2718,-3.4218,-3.6815,-3.5968,-3.5365,-3.5769,-3.3096,-3.066,-2.8934,-2.6404,0.0,0.0,0.0,0.0,0.0,0.0,0.0,0.0,0.0,0.0,0.0,0.0,0.0,0.0,0.0,0.0,0.0,0.0,0.0,0.0,0.0,0.0,0.0,0.0,0.0,0.0,0.0,0.0,0.0,0.0,0.0,0.0,0.0,0.0,0.0,0.0,0.0,0.0,0.0,0.0,0.0,0.0,0.0,0.0,0.0,0.0,0.0,0.0,0.0,0.0,0.0,0.0,0.0,0.0,0.0,0.0,0.0,0.0,0.0,0.0,0.0,0.0,0.0,0.0,0.0,0.0,0.0,0.0,0.0,0.0,0.0,0.0,0.0,0.0,0.0,0.0,0.0,0.0,0.0,0.0,0.0,0.0,0.0,0.0,0.0,0.0,0.0,0.0,0.0,0.0,0.0,0.0,0.0,0.0,0.0,0.0,0.0,0.0,0.0,0.0,0.0,0.0,-3.2147,-3.4205,-3.4436,-3.4359,-3.3994,-3.3237,-3.1519,-2.9769,-2.8088,-2.5529,0.0,0.0,0.0,0.0,0.0,0.0,0.0,0.0,0.0,0.0,0.0,0.0,0.0,0.0,0.0,0.0,0.0,0.0,0.0,0.0,0.0,0.0,0.0,0.0,0.0,0.0,0.0,0.0,0.0,0.0,0.0,0.0,0.0,0.0,0.0,0.0,0.0,0.0,0.0,0.0,0.0,0.0,0.0,0.0,0.0,0.0,0.0,0.0,0.0,0.0,0.0,0.0,0.0,0.0,0.0,0.0,0.0,0.0,0.0,0.0,0.0,0.0,0.0,0.0,0.0,0.0,0.0,0.0,0.0,0.0,0.0,0.0,0.0,0.0,0.0,0.0,0.0,0.0,0.0,0.0,0.0,0.0,0.0,0.0,0.0,0.0,0.0,0.0,0.0,0.0,0.0,0.0,0.0,0.0,0.0,0.0,0.0,0.0,0.0,0.0,0.0,0.0,-3.0698,-3.2449,-3.4032,-3.3256,-3.2718,-3.2891,-3.1872,-3.0256,-2.8049,0.0,0.0,0.0,0.0,0.0,0.0,0.0,0.0,0.0,0.0,0.0,0.0,0.0,0.0,0.0,0.0,0.0,0.0,0.0,0.0,0.0,0.0,0.0,0.0,0.0,0.0,0.0,0.0,0.0,0.0,0.0,0.0,0.0,0.0,0.0,0.0,0.0,0.0,0.0,0.0,0.0,0.0,0.0,0.0,0.0,0.0,0.0,0.0,0.0,0.0,0.0,0.0,0.0,0.0,0.0,0.0,0.0,0.0,0.0,0.0,0.0,0.0,0.0,0.0,0.0,0.0,0.0,0.0,0.0,0.0,0.0,0.0,0.0,0.0,0.0,0.0,0.0,0.0,0.0,0.0,0.0,0.0,0.0,0.0,0.0,0.0,0.0,0.0,0.0,0.0,0.0,0.0,0.0,0.0,0.0,0.0,0.0,0.0,0.0,0.0,0.0,0.0,-2.7992,-2.9525,-3.1077,-3.2814,-3.1968,-3.15,-3.2064,-3.1352,-2.991,-2.7621,0.0,0.0,0.0,0.0,0.0,0.0,0.0,0.0,0.0,0.0,0.0,0.0,0.0,0.0,0.0,0.0,0.0,0.0,0.0,0.0,0.0,0.0,0.0,0.0,0.0,0.0,0.0,0.0,0.0,0.0,0.0,0.0,0.0,0.0,0.0,0.0,0.0,0.0,0.0,0.0,0.0,0.0,0.0,0.0,0.0,0.0,0.0,0.0,0.0,0.0,0.0,0.0,0.0,0.0,0.0,0.0,0.0,0.0,0.0,0.0,0.0,0.0,0.0,0.0,0.0,0.0,0.0,0.0,0.0,0.0,0.0,0.0,0.0,0.0,0.0,0.0,0.0,0.0,0.0,0.0,0.0,0.0,0.0,0.0,0.0,0.0,0.0,0.0,0.0,0.0,0.0,0.0,0.0,0.0,0.0,0.0,0.0,0.0,0.0,0.0,0.0,0.0,-2.6486,-2.8827,-3.0404,-3.0404,-3.0404,-3.0404,-3.0404,-2.9621,-2.8415,0.0,0.0,0.0,0.0,0.0,0.0,0.0,0.0,0.0,0.0,0.0,0.0,0.0,0.0,0.0,0.0,0.0,0.0,0.0,0.0,0.0,0.0,0.0,0.0,0.0,0.0,0.0,0.0,0.0,0.0,0.0,0.0,0.0,0.0,0.0,0.0,0.0,0.0,0.0,0.0,0.0,0.0,0.0,0.0,0.0,0.0,0.0,0.0,0.0,0.0,0.0,0.0,0.0,0.0,0.0,0.0,0.0,0.0,0.0,0.0,0.0,0.0,0.0,0.0,0.0,0.0,0.0,0.0,0.0,0.0,0.0,0.0,0.0,0.0,0.0,0.0,0.0,0.0,0.0,0.0,0.0,0.0,0.0,0.0,0.0,0.0,0.0,0.0,0.0,0.0,0.0,0.0,0.0,0.0,0.0,0.0,0.0,0.0,0.0,0.0,0.0,0.0,0.0,-2.6486,-2.8827,-3.0404,-3.0404,-3.0404,-3.0404,-3.0404,-3.0737,-2.9698,-2.6774,0.0,0.0,0.0,0.0,0.0,0.0,0.0,0.0,0.0,0.0,0.0,0.0,0.0,0.0,0.0,0.0,0.0,0.0,0.0,0.0,0.0,0.0,0.0,0.0,0.0,0.0,0.0,0.0,0.0,0.0,0.0,0.0,0.0,0.0,0.0,0.0,0.0,0.0,0.0,0.0,0.0,0.0,0.0,0.0,0.0,0.0,0.0,0.0,0.0,0.0,0.0,0.0,0.0,0.0,0.0,0.0,0.0,0.0,0.0,0.0,0.0,0.0,0.0,0.0,0.0,0.0,0.0,0.0,0.0,0.0,0.0,0.0,0.0,0.0,0.0,0.0,0.0,0.0,0.0,0.0,0.0,0.0,0.0,0.0,0.0,0.0,0.0,0.0,0.0,0.0,0.0,0.0,0.0,0.0,0.0,0.0,0.0,0.0,0.0,0.0,0.0,0.0,-2.6,-2.8615,-3.0404,-3.0404,-3.0404,-3.0404,-3.0404,-3.0885,-3.0025,-2.7294,0.0,0.0,0.0,0.0,0.0,0.0,0.0,0.0,0.0,0.0,0.0,0.0,0.0,0.0,0.0,0.0,0.0,0.0,0.0,0.0,0.0,0.0,0.0,0.0,0.0,0.0,0.0,0.0,0.0,0.0,0.0,0.0,0.0,0.0,0.0,0.0,0.0,0.0,0.0,0.0,0.0,0.0,0.0,0.0,0.0,0.0,0.0,0.0,0.0,0.0,0.0,0.0,0.0,0.0,0.0,0.0,0.0,0.0,0.0,0.0,0.0,0.0,0.0,0.0,0.0,0.0,0.0,0.0,0.0,0.0,0.0,0.0,0.0,0.0,0.0,0.0,0.0,0.0,0.0,0.0,0.0,0.0,0.0,0.0,0.0,0.0,0.0,0.0,0.0,0.0,0.0,0.0,0.0,0.0,0.0,0.0,0.0,0.0,0.0,0.0,0.0,0.0,-2.5404,-2.8346,-3.0404,-3.0404,-3.0404,-3.0404,-3.0404,-3.0404,-2.9673,-2.8011,0.0,0.0,0.0,0.0,0.0,0.0,0.0,0.0,0.0,0.0,0.0,0.0,0.0,0.0,0.0,0.0,0.0,0.0,0.0,0.0,0.0,0.0,0.0,0.0,0.0,0.0,0.0,0.0,0.0,0.0,0.0,0.0,0.0,0.0,0.0,0.0,0.0,0.0,0.0,0.0,0.0,0.0,0.0,0.0,0.0,0.0,0.0,0.0,0.0,0.0,0.0,0.0,0.0,0.0,0.0,0.0,0.0,0.0,0.0,0.0,-2.7987,-2.6763,0.0,0.0,0.0,0.0,0.0,0.0,0.0,0.0,0.0,0.0,0.0,0.0,0.0,0.0,0.0,0.0,0.0,0.0,0.0,0.0,0.0,0.0,0.0,0.0,0.0,0.0,0.0,0.0,0.0,0.0,0.0,0.0,0.0,0.0,0.0,0.0,0.0,0.0,0.0,0.0,-2.6231,-2.8712,-3.0404,-3.0404,-3.0404,-3.0404,-3.0404,-3.0404,-2.9673,-2.8011,-2.6909,0.0,0.0,0.0,0.0,0.0,0.0,0.0,0.0,0.0,0.0,0.0,0.0,0.0,0.0,0.0,0.0,0.0,0.0,0.0,0.0,0.0,0.0,0.0,0.0,0.0,0.0,0.0,0.0,0.0,0.0,0.0,0.0,0.0,0.0,0.0,0.0,0.0,0.0,0.0,0.0,0.0,0.0,0.0,0.0,0.0,0.0,0.0,0.0,0.0,0.0,0.0,0.0,0.0,0.0,0.0,0.0,0.0,0.0,0.0,-3.0268,-2.9117,0.0,0.0,0.0,0.0,0.0,0.0,0.0,0.0,0.0,0.0,0.0,0.0,0.0,0.0,0.0,0.0,0.0,0.0,0.0,0.0,0.0,0.0,0.0,0.0,0.0,0.0,0.0,0.0,0.0,0.0,0.0,0.0,0.0,0.0,0.0,0.0,0.0,0.0,0.0,0.0,-2.6486,-2.8827,-3.0404,-3.0404,-3.0404,-3.0404,-3.0404,-3.0404,-3.0038,-2.9159,-2.7928,0.0,0.0,0.0,0.0,0.0,0.0,0.0,0.0,0.0,0.0,0.0,0.0,0.0,0.0,0.0,0.0,0.0,0.0,0.0,0.0,0.0,0.0,0.0,0.0,0.0,0.0,0.0,0.0,0.0,0.0,0.0,0.0,0.0,0.0,0.0,0.0,0.0,0.0,0.0,0.0,0.0,0.0,0.0,0.0,0.0,0.0,0.0,0.0,0.0,0.0,0.0,0.0,0.0,-3.4789,-3.5104,-3.4983,-3.567,-3.5106,-3.3481,-3.2111,-3.1375,-3.1018,-2.9868,0.0,0.0,0.0,0.0,0.0,0.0,0.0,0.0,0.0,0.0,0.0,0.0,0.0,0.0,0.0,0.0,0.0,0.0,0.0,0.0,0.0,0.0,0.0,0.0,-2.9297,-2.9238,-2.707,0.0,0.0,0.0,0.0,0.0,0.0,0.0,0.0,0.0,0.0,0.0,-2.6914,-2.9006,-3.0404,-3.0404,-3.0404,-3.0404,-3.0404,-3.0404,-3.0404,-3.0404,-2.8967,-2.7794,0.0,0.0,0.0,0.0,0.0,0.0,0.0,0.0,0.0,0.0,0.0,0.0,0.0,0.0,0.0,0.0,0.0,0.0,0.0,0.0,0.0,0.0,0.0,0.0,0.0,0.0,0.0,0.0,0.0,0.0,0.0,0.0,-2.4784,-2.4129,0.0,0.0,0.0,0.0,0.0,0.0,0.0,0.0,0.0,0.0,0.0,0.0,0.0,-3.3546,-3.5115,-3.5877,-3.6362,-3.6615,-3.7474,-3.7493,-3.677,-3.6765,-3.6246,-3.5334,-3.4999,0.0,-3.2568,-3.0864,0.0,0.0,0.0,0.0,0.0,0.0,0.0,0.0,0.0,0.0,0.0,0.0,0.0,0.0,0.0,0.0,0.0,0.0,0.0,0.0,0.0,0.0,-3.0566,-3.0566,-3.0644,-3.0625,0.0,-2.8437,-2.6797,-2.6679,-2.6054,0.0,0.0,0.0,0.0,0.0,0.0,0.0,-2.8659,-2.9767,-3.0404,-3.0404,-3.0404,-3.0404,-3.0404,-3.0404,-3.0404,-3.0404,-2.9486,-2.8896,-2.878,-2.7159,0.0,0.0,0.0,0.0,0.0,0.0,0.0,0.0,0.0,0.0,0.0,0.0,0.0,0.0,0.0,0.0,0.0,0.0,0.0,0.0,0.0,0.0,0.0,0.0,0.0,0.0,0.0,0.0,0.0,-2.4807,-2.629,-2.5917,-2.6992,-2.726,0.0,0.0,0.0,0.0,0.0,0.0,0.0,0.0,0.0,-3.5333,-3.5449,-3.6012,-3.7256,-3.7644,-3.8071,-3.8557,-3.8441,-3.8192,-3.78,-3.7263,-3.6483,-3.5574,-3.5538,-3.5021,-3.4141,-3.2928,-3.1879,-3.0945,0.0,0.0,0.0,0.0,-3.01,-3.0264,-3.0784,-3.066,-3.002,-2.8773,0.0,0.0,0.0,0.0,0.0,0.0,0.0,0.0,0.0,0.0,-3.0898,-3.0898,-3.0898,-3.0898,-3.0898,-3.0,-2.9043,0.0,-2.8144,-2.7304,-2.5459,0.0,0.0,0.0,0.0,-2.7826,-2.9035,-2.9902,-3.0404,-3.0404,-3.0404,-3.0404,-3.0404,-3.0404,-3.0404,-3.0404,-3.0038,-2.9602,-2.9127,-2.8396,-2.7159,0.0,0.0,0.0,0.0,0.0,0.0,0.0,0.0,0.0,0.0,0.0,0.0,0.0,0.0,0.0,0.0,0.0,0.0,0.0,0.0,0.0,0.0,0.0,0.0,0.0,0.0,0.0,0.0,-2.6044,-2.7894,-2.7663,-2.9316,-2.98,0.0,0.0,0.0,0.0,0.0,0.0,-3.4128,-3.428,-3.5349,-3.768,-3.7765,-3.8188,-3.9028,-3.9047,-3.9373,-3.9994,-3.9353,-3.8931,-3.8693,-3.7782,-3.6807,-3.5823,-3.5586,-3.5369,-3.5133,-3.4392,-3.3336,-3.219,-3.1915,-3.1468,-3.1093,-3.1782,-3.212,-3.2307,-3.2964,-3.2777,-3.2044,-3.0856,-2.973,-2.858,-2.7381,0.0,0.0,0.0,0.0,-2.9922,-2.9922,-3.041,-3.0898,-3.0898,-3.0898,-3.0898,-3.0898,-3.0898,-3.0703,0.0,-2.9922,-2.9238,-2.7066,0.0,0.0,-2.6601,-2.7533,-2.8627,-2.9422,-3.0034,-3.0396,-3.0404,-3.0404,-3.0404,-3.0404,-3.0404,-3.0404,-3.0404,-3.0404,-3.0115,-2.9467,-2.9429,-2.8448,-2.6308,0.0,0.0,0.0,0.0,0.0,0.0,0.0,0.0,0.0,0.0,0.0,0.0,0.0,0.0,0.0,0.0,0.0,0.0,0.0,0.0,0.0,0.0,0.0,0.0,0.0,0.0,0.0,0.0,0.0,-2.9468,-3.1581,0.0,0.0,0.0,0.0,-3.2928,-3.307,-3.4218,-3.6774,-3.6899,-3.7735,-3.9513,-3.957,-3.9956,-4.0771,-4.0771,-4.0791,-4.0849,-4.0791,-4.0364,-3.9601,-3.8602,-3.7624,-3.6672,-3.5795,-3.5327,-3.5133,-3.4339,-3.3964,-3.3811,-3.2955,-3.2651,-3.2705,-3.2875,-3.2984,-3.3059,-3.3167,-3.3167,-3.3132,-3.3106,-3.2048,-3.0742,-3.0664,-3.0098,0.0,0.0,-3.0137,-3.082,-3.082,-3.0879,-3.0898,-3.0898,-3.0898,-3.0898,-3.0898,-3.0898,-3.0898,0.0,-3.082,-3.0527,-2.957,0.0,-2.9331,-2.9228,-2.922,-2.9536,-3.0326,-3.0414,-3.04,-3.0404,-3.0404,-3.0404,-3.0404,-3.0404,-3.0404,-3.0404,-3.0404,-3.0385,-3.0346,-3.0327,-2.989,-2.8934,-2.7313,0.0,0.0,0.0,0.0,0.0,0.0,0.0,0.0,0.0,0.0,0.0,0.0,0.0,0.0,0.0,0.0,0.0,0.0,0.0,0.0,0.0,0.0,0.0,0.0,0.0,0.0,0.0,0.0,-3.2695,-3.3612,0.0,-3.3364,-3.3248,-3.3692,-3.488,-3.5454,-3.6637,-3.8661,-3.8802,-3.9367,-4.0509,-4.054,-4.0657,-4.0907,-4.0939,-4.0939,-4.0888,-3.98,-3.9431,-3.966,-3.8082,-3.7162,-3.6787,-3.6346,-3.5799,-3.519,-3.4885,-3.477,-3.4732,-3.4418,-3.4381,-3.4471,-3.4571,-3.4654,-3.4719,-3.483,-3.4477,-3.3891,-3.3445,-3.2946,-3.2519,-3.2519,-3.2285,-3.1934,-3.1426,-3.1504,-3.1601,-3.1055,-3.1328,-3.1601,-3.1035,-3.1328,-3.1582,-3.1016,-3.0898,-3.0898,-3.0898,-3.0898,-3.0625,-2.9746,-3.0058,-3.0189,-2.9559,-2.9881,-3.0299,-3.0539,-3.0472,-3.0392,-3.04,-3.0396,-3.0404,-3.0404,-3.0404,-3.0404,-3.0404,-3.0404,-3.0404,-3.0404,-3.0404,-2.9981,-2.9127,-2.8011,-2.6361,0.0,0.0,0.0,0.0,0.0,0.0,0.0,0.0,0.0,0.0,0.0,0.0,0.0,0.0,0.0,0.0,0.0,0.0,0.0,0.0,0.0,0.0,0.0,0.0,0.0,-3.1136,-3.3282,-3.41,-3.498,-3.5309,-3.4715,-3.4896,-3.5516,-3.6682,-3.7271,-3.8312,-4.0041,-4.0172,-4.0441,-4.0976,-4.0988,-4.0949,-4.0907,-4.0939,-4.0939,-4.0888,-3.9761,-3.9548,-4.0048,-3.8489,-3.7568,-3.7218,-3.6788,-3.6075,-3.5209,-3.5209,-3.5209,-3.5209,-3.5209,-3.5258,-3.535,-3.5464,-3.5525,-3.559,-3.5723,-3.5377,-3.4789,-3.4308,-3.4018,-3.3848,-3.3848,-3.3633,-3.3223,-3.2422,-3.2402,-3.2402,-3.1562,-3.1777,-3.2051,-3.1484,-3.1562,-3.1601,-3.1016,-3.0898,-3.0898,-3.0898,-3.0898,-3.0723,-3.0137,-3.0527,-3.0683,-3.0042,-3.0377,-3.0673,-3.0614,-3.0506,-3.0428,-3.0398,-3.0402,-3.0404,-3.0404,-3.0404,-3.0404,-3.0404,-3.0404,-3.0404,-3.0404,-3.0115,-2.9698,-2.9107,-2.8078,-2.6729,-2.5075,0.0,0.0,0.0,0.0,0.0,0.0,0.0,0.0,0.0,0.0,0.0,0.0,0.0,0.0,0.0,0.0,0.0,0.0,0.0,0.0,0.0,0.0,0.0,-2.9636,-3.2571,-3.4433,-3.3619,-3.57,-3.654,-3.4852,-3.544,-3.6629,-3.8324,-3.8519,-3.926,-4.0874,-4.0999,-4.0996,-4.0996,-4.0935,-4.0893,-4.0907,-4.0907,-4.0907,-4.0907,-4.0869,-4.0888,-4.0864,-3.989,-3.8953,-3.8035,-3.7019,-3.6067,-3.5209,-3.5209,-3.5209,-3.5209,-3.5209,-3.5209,-3.5215,-3.5418,-3.5501,-3.5519,-3.5649,-3.5741,-3.5791,-3.5791,-3.5326,-3.4746,-3.4746,-3.4141,-3.3301,-3.2519,-3.2832,-3.3242,-3.2422,-3.2226,-3.2226,-3.2168,-3.1543,-3.0937,-3.0918,-3.0898,-3.0898,-3.0898,-3.0898,-3.0898,-3.0898,-3.0898,-3.0878,-3.0806,-3.0757,0.0,-3.0618,-3.053,-3.0479,-3.0403,-3.0408,-3.0404,-3.0404,-3.0404,-3.0404,-3.0404,-3.0404,-3.0404,-3.0404,-2.9583,-2.9146,-2.9146,-2.7629,-2.6835,-2.6835,0.0,0.0,0.0,0.0,0.0,0.0,0.0,0.0,0.0,0.0,0.0,0.0,0.0,0.0,0.0,0.0,0.0,0.0,0.0,0.0,0.0,-3.0386,-3.234,-3.2336,-3.4236,-3.5773,-3.6104,-3.6814,-3.707,-3.653,-3.6698,-3.704,-3.7528,-3.8675,-3.9578,-4.0038,-4.0655,-4.1006,-4.0996,-4.0972,-4.0953,-4.0907,-4.0943,-4.0943,-4.0888,-4.0305,-4.0344,-4.0844,-3.9228,-3.835,-3.8035,-3.6988,-3.6018,-3.5209,-3.5209,-3.5209,-3.5209,-3.5209,-3.5209,-3.5215,-3.5418,-3.5554,-3.5644,-3.5693,-3.5749,-3.5791,-3.5791,-3.5736,-3.5644,-3.5644,-3.5488,-3.5117,-3.4258,-3.418,-3.4004,-3.2578,-3.2637,-3.2754,-3.1543,-3.1562,-3.168,-3.1035,-3.0898,-3.0898,-3.0898,-3.0898,-3.0898,-3.0898,-3.0898,-3.0898,-3.0878,-3.0826,0.0,-3.0689,-3.0605,-3.0543,-3.0485,-3.0422,-3.0389,-3.0404,-3.0404,-3.0404,-3.0404,-3.0404,-3.0404,-3.0404,-3.0173,-3.0038,-3.0038,-2.8534,-2.7744,0.0,0.0,0.0,0.0,0.0,0.0,0.0,0.0,0.0,0.0,0.0,0.0,0.0,0.0,0.0,0.0,0.0,0.0,0.0,0.0,0.0,0.0,-3.2159,-3.4074,-3.4447,-3.5344,-3.613,-3.6594,-3.6683,-3.6713,-3.6699,-3.6667,-3.6817,-3.7171,-3.8436,-3.9341,-3.9673,-4.0528,-4.0991,-4.0967,-4.0953,-4.0941,-4.0907,-4.0935,-4.0935,-4.0888,-4.0422,-4.0461,-4.0864,-3.9688,-3.8768,-3.8067,-3.7321,-3.6317,-3.5209,-3.5209,-3.5209,0.0,0.0,0.0,0.0,0.0,-3.5602,-3.5737,-3.5747,-3.5788,-3.5846,-3.5841,-3.5916,-3.5996,-3.5996,-3.5996,-3.582,-3.4941,-3.4961,-3.4844,-3.3144,-3.3047,-3.3066,-3.1758,-3.1543,-3.1523,-3.1016,-3.0898,-3.0898,-3.0898,-3.0898,0.0,-3.0898,-3.0898,-3.0898,-3.0898,-3.0833,-3.0771,-3.0715,-3.0643,-3.0563,-3.0519,-3.0433,-3.04,-3.0404,-3.0404,0.0,0.0,0.0,-3.0231,-2.9871,-2.9852,0.0,0.0,0.0,0.0,0.0,0.0,0.0,0.0,-2.9296,-2.8978,0.0,0.0,0.0,0.0,0.0,0.0,0.0,0.0,0.0,0.0,0.0,0.0,0.0,0.0,0.0,0.0,-3.3704,-3.5127,-3.5888,-3.586,-3.579,-3.5897,-3.5908,-3.5928,-3.5994,-3.5957,-3.6239,-3.6992,-3.7949,-3.8819,-3.9521,-4.0466,0.0,0.0,0.0,-4.0907,-4.0907,-4.0907,-4.0849,-4.0752,-4.0752,-4.0708,-4.0597,-4.0294,-3.936,-3.7919,-3.7562,-3.6566,-3.5209,-3.5209,-3.5209,-3.5209,-3.5209,-3.5207,-3.5262,-3.5432,-3.5632,-3.5799,-3.5799,0.0,0.0,-3.5895,-3.5941,-3.5995,-3.5996,-3.5996,-3.582,-3.4941,-3.5254,-3.5449,-3.3711,-3.3242,-3.3047,-3.2246,-3.1445,-3.0898,-3.0898,-3.0898,-3.0898,-3.0898,-3.0898,-3.0898,-3.0898,-3.0898,-3.0898,-3.0898,-3.0854,-3.0796,-3.0722,-3.0655,-3.0599,-3.0515,0.0,0.0,-3.0404,-3.0404,-3.0404,-3.0404,-3.0404,-3.0038,-2.928,-2.9242,-2.9242,-2.9242,-2.9534,-3.0416,-3.1898,-3.2127,-3.2591,-3.3253,-3.0972,-3.0346,0.0,0.0,0.0,0.0,0.0,0.0,0.0,0.0,0.0,0.0,0.0,0.0,0.0,0.0,0.0,-3.2968,-3.4616,-3.581,-3.5986,-3.5379,-3.5182,-3.5901,-3.5986,-3.5982,-3.6002,-3.5995,-3.6034,-3.6145,-3.7617,-3.8533,-3.864,-4.0081,-4.0917,-4.0907,-4.0907,-4.0907,-4.0907,-4.0907,-4.0577,-3.9932,0.0,0.0,-3.8697,-3.7912,-3.7327,-3.6916,-3.6066,-3.5496,-3.5209,-3.5209,-3.5209,-3.5209,-3.5209,-3.5296,-3.5445,-3.5483,-3.5632,-3.5799,-3.5799,-3.584,-3.5906,-3.5903,-3.5945,-3.5995,-3.5995,-3.5996,0.0,-3.4941,-3.4824,-3.455,-3.2805,-3.2351,-3.2136,-3.1276,-3.0945,-3.0831,-3.0898,-3.0898,-3.0898,-3.0898,-3.0898,-3.0898,-3.0898,-3.0898,-3.0898,-3.0898,-3.0898,-3.0856,-3.0796,-3.0722,-3.0655,-3.0593,-3.0525,-3.0453,-3.041,-3.0404,-3.0404,-3.0404,-3.0404,-3.0327,-3.0154,-3.0154,-3.0154,-3.0154,-3.0931,-3.1513,-3.1907,-3.2628,-3.3093,-3.3298,-3.2786,-3.2656,0.0,0.0,0.0,0.0,0.0,0.0,0.0,0.0,0.0,0.0,0.0,-2.8305,-2.9644,0.0,-3.3002,-3.3891,-3.5143,-3.5851,-3.5408,-3.535,-3.5504,-3.5947,-3.5609,-3.5522,-3.5955,-3.5972,-3.6113,-3.6522,-3.7754,-3.8658,-3.9026,-4.0255,-4.0937,-4.0907,-4.093,-4.093,-4.0907,-4.0503,-4.0095,-3.9679,-3.9256,-3.8753,-3.8186,-3.7687,-3.7185,-3.6668,-3.6088,-3.5602,-3.5209,-3.5209,-3.5209,-3.5209,-3.5209,-3.5326,-3.5501,-3.5501,-3.5623,-3.5797,-3.5797,-3.584,-3.5901,-3.5896,-3.5951,-3.5991,-3.5993,-3.5994,-3.5819,-3.496,-3.4706,-3.4295,-3.2542,-3.2108,-3.1873,-3.0978,-3.0771,-3.0804,-3.0833,-3.0878,-3.0898,-3.0898,-3.0898,-3.0898,-3.0898,-3.0898,-3.0898,-3.0898,-3.0898,-3.0878,-3.0804,-3.0735,-3.0678,-3.0614,-3.0535,-3.0463,-3.0414,-3.0396,-3.0404,-3.0404,-3.0404,-3.0404,-3.0404,-3.0404,-3.0615,-3.1038,-3.1584,-3.227,-3.3149,-3.3689,-3.4177,-3.4603,-3.4606,-3.4348,0.0,0.0,0.0,0.0,0.0,0.0,0.0,-2.6427,-2.7135,-2.8007,-2.8842,-2.9763,-3.0889,-3.2349,-3.3739,-3.4776,-3.5541,-3.574,-3.5046,-3.5261,-3.557,-3.5736,-3.5289,-3.5235,-3.5923,-3.5946,-3.6208,-3.6913,-3.777,-3.8687,-3.967,-4.0527,-4.1055,-4.1177,-4.1217,-4.1228,-4.114,-4.0185,-3.9699,-3.966,-3.8635,-3.7996,-3.7702,-3.7629,-3.7185,-3.6438,-3.6318,-3.5851,-3.5209,-3.5209,-3.5209,-3.5209,-3.5209,-3.5326,-3.5501,-3.5501,-3.5629,-3.5795,-3.5795,-3.5846,-3.5905,-3.5905,-3.5953,-3.6009,-3.6009,-3.5991,-3.5776,-3.4741,-3.445,-3.4038,-3.2275,-3.1822,-3.1624,-3.0857,-3.0728,-3.0776,-3.0799,-3.0855,-3.0898,-3.0898,-3.0898,-3.0898,-3.0898,-3.0898,-3.0898,-3.0898,-3.0898,-3.0878,-3.0829,-3.0765,-3.0699,-3.0635,-3.0567,-3.049,-3.0411,-3.0402,-3.0404,-3.0404,-3.0404,-3.0404,-3.0404,-3.0404,-3.0808,-3.1679,-3.1985,-3.2897,-3.4428,-3.4759,-3.5247,-3.5897,-3.5901,-3.5495,-2.3934,-2.4139,-2.4692,-2.5711,-2.6039,-2.6536,0.0,-2.8554,-2.886,-2.9733,-3.0093,-3.0793,-3.2508,-3.3098,-3.3868,-3.5572,-3.5941,-3.597,-3.5874,-3.4605,-3.3978,-3.4752,-3.544,-3.5893,-3.5991,-3.5994,-3.6035,-3.6134,-3.6892,-3.8066,-3.9706,-4.0563,-4.1342,-4.2124,-4.2151,-4.2127,-4.2058,-4.0485,-3.9664,-3.9582,-3.7994,-3.6793,-3.5979,-3.5852,-3.5688,-3.554,-3.5392,-3.5286,-3.5209,-3.5209,-3.5209,-3.5209,-3.5209,-3.5326,-3.5501,-3.5501,-3.5629,-3.5795,-3.5795,-3.5836,-3.5907,-3.5903,-3.5948,-3.5996,-3.6009,-3.6008,-3.5659,-3.4018,-3.3549,-3.3133,-3.133,-3.0864,-3.0823,-3.0658,-3.0667,-3.0728,-3.0795,-3.0855,-3.0898,-3.0898,-3.0898,-3.0898,-3.0898,-3.0898,-3.0898,-3.0898,-3.0898,-3.0898,-3.0898,-3.083,-3.0762,-3.0706,-3.0637,-3.054,-3.0402,-3.0404,-3.0404,-3.0404,-3.0404,-3.0404,-3.0404,-3.0404,-3.0808,-3.1679,-3.2529,-3.3474,-3.4482,-3.5288,-3.5744,-3.5901,-3.5891,-3.584,-2.4433,-2.4693,-2.4955,-2.5545,-2.5701,-2.6007,-2.7186,-2.7447,-2.7842,-2.9218,-2.9619,-3.023,-3.2022,-3.2895,-3.3772,-3.5036,-3.5664,-3.5823,-3.5303,-3.4615,-3.4105,-3.3966,-3.4713,-3.5245,-3.5245,-3.5697,-3.6207,-3.6716,-3.7545,-3.8531,-3.9746,-4.0602,-4.121,-4.1532,-4.1535,-4.1772,-4.2255,-4.0559,-3.9691,-3.964,-3.7916,-3.6618,-3.5702,-3.5562,-3.5424,-3.5281,-3.5226,-3.5209,-3.5209,-3.5209,-3.5209,-3.5209,-3.5289,-3.5383,-3.5501,-3.5501,-3.5629,-3.5795,-3.5795,-3.5833,-3.5899,-3.5903,-3.5929,-3.5957,-3.5986,-3.5649,-3.5085,-3.4362,-3.3399,-3.2402,-3.159,-3.1012,-3.0613,-3.0565,-3.0591,-3.0656,-3.0726,-3.0799,-3.0855,-3.0898,-3.0898,-3.0898,-3.0898,-3.0898,-3.0898,-3.0898,-3.0898,-3.0898,-3.0898,-3.0833,-3.0757,-3.0649,-3.0614,-3.0549,-3.0421,-3.0404,-3.0404,-3.0404,-3.0404,-3.0404,-3.0404,-3.0404,-3.0808,-3.1679,-3.2668,-3.3604,-3.449,-3.5457,-3.5901,-3.5906,-3.5892,-3.5901,-2.4646,-2.484,-2.4964,-2.5417,-2.5529,-2.574,-2.6574,-2.6765,-2.7115,-2.8383,-2.8918,-2.9648,-3.1164,-3.2487,-3.3633,-3.4548,-3.5424,-3.5773,-3.5157,-3.4841,-3.4464,-3.3838,-3.4318,-3.4791,-3.5043,-3.5636,-3.6265,-3.6891,-3.7749,-3.8695,-3.9744,-4.0624,-4.1189,-4.1341,-4.1352,-4.1649,-4.2263,-4.0567,-3.9812,-4.0014,-3.8033,-3.6744,-3.6067,-3.5689,-3.5385,-3.5209,-3.5209,-3.5209,-3.5209,-3.5209,-3.5209,-3.5218,-3.5342,-3.5437,-3.5501,-3.5544,-3.5669,-3.5795,-3.5795,-3.5838,-3.5878,-3.588,-3.5908,-3.5918,-3.5983,-3.5389,-3.4647,-3.4413,-3.3204,-3.1938,-3.1628,-3.1072,-3.0582,-3.0482,-3.0542,-3.06,-3.065,-3.0732,-3.0806,-3.0857,-3.0898,-3.0898,-3.0898,-3.0898,-3.0898,-3.0898,-3.0898,-3.0898,-3.0898,-3.0833,-3.0753,-3.0602,-3.0599,-3.0549,-3.0421,-3.0404,-3.0404,-3.0404,-3.0404,-3.0404,-3.0404,-3.0404,-3.0808,-3.1679,-3.2458,-3.3386,-3.449,-3.5275,-3.5731,-3.5906,-3.5909,-3.59,-2.4602,-2.4707,-2.496,-2.6092,-2.6364,-2.6593,-2.7453,-2.7663,-2.7682,-2.774,-2.847,-2.9407,-3.0355,-3.1992,-3.3531,-3.454,-3.5433,-3.5986,-3.5966,-3.5225,-3.4696,-3.4664,-3.4683,-3.5023,-3.5875,-3.5985,-3.6012,-3.6031,-3.6845,-3.8055,-3.9702,-4.0631,-4.1464,-4.2243,-4.226,-4.2244,-4.2199,-4.0538,-4.0092,-4.083,-3.8305,-3.71,-3.7014,-3.5988,-3.5385,-3.5209,-3.5209,-3.5209,-3.5209,-3.5209,-3.5209,-3.5218,-3.5342,-3.5437,-3.5526,-3.5657,-3.5732,-3.5795,-3.5795,-3.5795,-3.5807,-3.5871,-3.5895,-3.5906,-3.5987,-3.5389,-3.451,-3.3689,-3.273,-3.1787,-3.0889,-3.0611,-3.0577,-3.0425,-3.0506,-3.0603,-3.0607,-3.0701,-3.08,-3.0801,-3.0855,-3.0898,-3.0898,-3.0898,-3.0898,-3.0898,-3.0898,-3.0898,-3.0898,-3.0833,-3.0744,-3.0611,-3.0595,-3.0549,-3.0421,-3.0404,-3.0404,-3.0404,-3.0404,-3.0404,-3.0404,-3.0404,-3.0808,-3.1679,-3.1868,-3.2776,-3.449,-3.4651,-3.5145,-3.5908,-3.5906,-3.5899,-2.4746,-2.4825,-2.495,-2.5468,-2.5606,-2.5682,-2.5969,-2.6045,-2.6198,-2.6727,-2.7171,-2.7889,-2.936,-3.1131,-3.2668,-3.3663,-3.503,-3.5926,-3.5934,-3.5188,-3.4659,-3.4681,-3.5175,-3.5635,-3.598,-3.6007,-3.6246,-3.6813,-3.7671,-3.8413,-3.8962,-4.0331,-4.1226,-4.1494,-4.1461,-4.1707,-4.2259,-4.1101,-4.0635,-4.0888,-3.8907,-3.7599,-3.6884,-3.6535,-3.5942,-3.5209,-3.5209,-3.5209,-3.5209,-3.5209,-3.5209,-3.5226,-3.539,-3.5483,-3.5519,-3.5699,-3.5778,-3.5795,-3.5795,-3.5795,-3.5803,-3.5871,-3.5895,-3.5905,-3.5987,-3.5389,-3.4647,-3.4354,-3.3141,-3.1851,-3.1536,-3.0972,-3.0471,-3.0474,-3.0501,-3.0552,-3.0587,-3.0646,-3.0682,-3.0774,-3.0826,-3.0854,-3.0898,-3.0898,-3.0898,-3.0898,-3.0898,-3.0898,-3.0898,-3.0878,-3.0811,-3.0677,-3.0637,-3.0568,-3.0467,-3.0422,-3.0404,-3.0404,-3.0404,-3.0404,-3.0404,-3.0404,-3.0538,-3.0827,-3.1502,-3.2438,-3.3642,-3.4311,-3.5065,-3.5906,-3.5892,-3.5903,-2.484,-2.4902,-2.5018,-2.5519,-2.5421,-2.5287,-2.5548,-2.5421,-2.5344,-2.5854,-2.6274,-2.6967,-2.8435,-3.0186,-3.1828,-3.312,-3.45,-3.5641,-3.628,-3.5885,-3.5651,-3.6014,-3.6506,-3.6963,-3.7329,-3.7102,-3.7165,-3.7711,-3.8552,-3.904,-3.904,-4.0348,-4.1088,-4.1064,-4.1016,-4.1269,-4.1792,-4.1198,-4.0752,-4.0461,-3.9373,-3.8132,-3.6794,-3.6794,-3.6212,-3.5209,-3.5209,-3.5209,-3.5209,-3.5209,-3.5209,-3.5215,-3.5418,-3.5501,-3.5519,-3.5727,-3.5795,-3.5795,-3.5795,-3.5795,-3.5803,-3.5871,-3.5895,-3.5905,-3.5987,-3.5389,-3.4647,-3.4315,-3.311,-3.182,-3.151,-3.0921,-3.04,-3.0442,-3.0479,-3.0511,-3.0554,-3.0583,-3.063,-3.0735,-3.0774,-3.0827,-3.0898,-3.0898,-3.0898,-3.0898,-3.0898,-3.0898,-3.0898,-3.0898,-3.0857,-3.0718,-3.0663,-3.0597,-3.0511,-3.0452,-3.0431,-3.0404,-3.0404,-3.0404,-3.0404,-3.0404,-3.0404,-3.0404,-3.1033,-3.1972,-3.3195,-3.3843,-3.4772,-3.5906,-3.5892,-3.5903,-2.4874,-2.4953,-2.5214,-2.6161,-2.5835,-2.5459,-2.6236,-2.5778,-2.5191,-2.5191,-2.5816,-2.6623,-2.7577,-2.9241,-3.1082,-3.2846,-3.4004,-3.5254,-3.6965,-3.7201,-3.7518,-3.8404,-3.8532,-3.8889,-3.971,-3.9153,-3.8728,-3.8728,-3.939,-3.98,-3.98,-4.062,-4.107,-4.1016,-4.0992,-4.0969,-4.0917,-4.0893,-4.0519,-3.9757,-3.9718,-3.8694,-3.6871,-3.6813,-3.6212,-3.5209,-3.5209,-3.5209,-3.5209,-3.5209,-3.5209,-3.5215,-3.5431,-3.5495,-3.5519,-3.5722,-3.5791,-3.5795,-3.5795,-3.5795,-3.5803,-3.5871,-3.5895,-3.5905,-3.5987,-3.5428,-3.4588,-3.365,-3.2718,-3.1766,-3.0849,-3.0501,-3.0404,-3.0404,-3.0455,-3.0504,-3.0504,-3.0542,-3.061,-3.0699,-3.0762,-3.0829,-3.0898,-3.0898,-3.0898,-3.0898,-3.0898,-3.0898,-3.0898,-3.0898,-3.0858,-3.0721,-3.0708,-3.0643,-3.0513,-3.05,-3.0477,-3.0402,-3.0404,-3.0404,-3.0404,-3.0404,-3.0404,-3.0404,-3.0522,-3.1451,-3.3195,-3.3323,-3.4266,-3.5908,-3.5908,-3.5902,-2.5063,-2.5558,-2.6079,-2.6339,-2.6256,-2.616,-2.6345,-2.5778,-2.5191,-2.5191,-2.5363,-2.5786,-2.6722,-2.8873,-3.0909,-3.2101,-3.4141,-3.5948,-3.7056,-3.7193,-3.7529,-3.8395,-3.9074,-3.9566,-3.9776,-4.0203,-4.0457,-4.0465,-4.0054,-3.98,-3.98,-4.062,-4.1085,-4.1073,-4.1022,-4.0986,-4.0967,-4.0924,-4.0791,-4.0597,-3.9994,-3.9023,-3.7752,-3.7102,-3.6212,-3.5209,-3.5209,-3.5209,-3.5209,-3.5209,-3.5209,-3.5226,-3.5379,-3.5463,-3.5513,-3.5664,-3.5751,-3.5795,-3.5795,-3.5795,-3.5803,-3.5871,-3.5895,-3.5905,-3.5987,-3.5836,-3.5348,-3.3826,-3.3149,-3.2511,-3.0985,-3.0501,-3.041,-3.0394,-3.0417,-3.0439,-3.05,-3.0521,-3.0563,-3.0689,-3.0781,-3.0878,-3.0898,-3.0898,-3.0898,-3.0898,-3.0898,-3.0898,-3.0898,-3.0898,-3.0898,-3.0858,-3.0761,-3.0691,-3.0645,-3.0564,-3.0487,-3.0482,-3.0436,-3.0404,-3.0404,-3.0404,-3.0404,-3.0404,-3.0472,-3.1413,-3.3195,-3.3273,-3.4232,-3.5967,-3.5914,-3.5892,-2.5174,-2.5797,-2.6479,-2.6861,-2.667,-2.6498,-2.688,-2.6045,-2.5191,-2.5191,-2.5191,-2.5463,-2.634,-2.8415,-3.0397,-3.17,-3.4152,-3.6345,-3.7591,-3.8101,-3.8651,-3.9538,-4.0061,-4.0375,-4.0366,-4.0812,-4.1103,-4.1109,-4.0659,-4.0366,-4.0366,-4.0836,-4.1101,-4.1094,-4.1025,-4.0981,-4.0964,-4.0915,-4.0907,-4.0888,-4.0092,-3.9155,-3.8117,-3.7199,-3.6258,-3.5281,0.0,-3.5209,-3.5209,-3.5209,-3.5209,-3.5218,-3.5342,-3.5437,-3.5526,-3.5657,-3.5737,-3.5795,-3.5795,-3.5795,-3.5803,-3.5871,-3.5895,-3.5905,-3.5987,-3.5992,-3.5641,-3.3884,-3.3305,-3.2803,-3.1043,-3.0501,-3.041,-3.0408,-3.0406,-3.0428,-3.049,-3.051,-3.0548,-3.0667,-3.0805,-3.0898,-3.0898,-3.0898,-3.0898,-3.0898,-3.0898,-3.0898,-3.0898,-3.0898,-3.0898,-3.0898,-3.0832,-3.0756,-3.0702,-3.0625,-3.0568,-3.0506,-3.0462,-3.0422,-3.0404,-3.0404,-3.0404,-3.0404,-3.0492,-3.1231,-3.2628,-3.2735,-3.3498,-3.486,-3.4796,-3.4969,-2.5191,-2.5873,-2.6727,-2.7377,-2.7052,-2.6746,-2.7377,-2.6313,-2.5191,-2.5191,-2.5191,-2.5459,-2.6256,-2.7981,-2.9896,-3.168,-3.4195,-3.6564,-3.8418,-3.932,-4.0125,-4.0991,-4.1109,-4.1109,-4.1109,-4.1109,-4.1109,-4.1109,-4.1109,-4.1109,-4.1109,-4.1109,-4.1103,-4.1093,-4.1023,-4.0969,-4.0907,-4.0907,-4.0907,-4.0888,-3.9946,-3.9049,-3.815,-3.7089,-3.615,-3.5376,-3.525,-3.5209,-3.5209,-3.5209,-3.5209,-3.5218,-3.5327,-3.543,-3.5507,-3.5626,-3.5728,-3.5795,-3.5795,-3.5795,-3.5803,-3.5871,-3.5895,-3.5905,-3.5987,-3.5914,-3.5485,-3.3865,-3.3227,-3.2647,-3.1024,-3.0501,-3.0404,-3.0404,-3.0408,-3.0417,-3.0493,-3.0506,-3.0559,-3.0689,-3.0805,-3.0898,-3.0898,-3.0898,-3.0898,-3.0898,-3.0898,-3.0898,-3.0898,-3.0898,-3.0898,-3.0898,-3.0897,-3.085,-3.0749,-3.0706,-3.0645,-3.0513,-3.0506,-3.0472,-3.041,-3.0404,-3.0404,-3.0404,-3.0527,-3.1024,-3.1902,-3.2038,-3.2558,-3.3396,-3.3347,-3.377,-2.5191,-2.6313,-2.7338,-2.6765,-2.7052,-2.7338,-2.6765,-2.5892,-2.5191,-2.5191,-2.5191,-2.5459,-2.6256,-2.7981,-3.0078,-3.2489,-3.4625,-3.6813,-3.9249,-3.9699,-4.0111,-4.0992,-4.1109,-4.1109,-4.1109,-4.1109,-4.1109,-4.1109,-4.1109,-4.1109,-4.1109,-4.1109,-4.1069,-4.102,-4.1015,-4.0969,-4.0907,-4.0907,-4.0907,-4.0888,-3.9233,-3.8344,-3.8061,-3.64,-3.5491,-3.5234,-3.5218,0.0,-3.5209,-3.5209,-3.5209,-3.5209,-3.5234,-3.534,-3.5501,-3.5538,-3.5644,-3.5795,-3.5795,-3.5795,-3.5803,-3.5871,-3.5895,-3.5905,-3.5987,-3.5504,-3.4705,-3.3689,-3.2776,-3.1882,-3.0869,-3.0501,-3.0404,-3.0404,-3.041,-3.0427,-3.0493,-3.0587,-3.0664,-3.0706,-3.0805,-3.0898,-3.0898,-3.0898,-3.0898,-3.0898,-3.0898,-3.0898,-3.0898,-3.0898,-3.0898,-3.0898,-3.0897,-3.0894,-3.0871,-3.0762,-3.0661,-3.0579,-3.0527,-3.0472,-3.041,-3.0404,-3.0404,-3.0404,-3.0527,-3.1024,-3.1902,-3.2038,-3.2558,-3.3396,-3.3391,-3.3821,-2.5191,-2.6427,-2.7491,-2.6612,-2.7052,-2.7472,-2.6593,-2.5778,-2.5191,-2.5191,-2.5191,-2.5459,-2.6256,-2.7928,-2.9743,-3.1429,-3.4068,-3.6472,-3.8168,-3.9203,-4.0112,-4.0992,-4.1109,-4.1109,-4.1109,-4.1109,-4.1109,-4.1109,-4.1109,-4.1109,-4.1109,-4.1109,-4.1071,-4.0994,-4.0992,-4.0969,-4.0907,-4.0907,-4.0907,-4.0888,-3.9527,-3.8615,-3.8104,-3.667,-3.576,-3.5297,-3.5234,-3.5209,-3.5209,-3.5209,-3.5209,-3.5209,-3.5209,-3.5326,-3.5501,-3.5501,-3.5629,-3.5795,-3.5795,-3.5795,-3.5803,-3.5871,-3.5895,-3.5826,-3.5442,-3.5037,-3.4413,-3.3105,-3.2328,-3.1704,-3.083,-3.0501,-3.0404,-3.0404,-3.0433,-3.0466,-3.0499,-3.0614,-3.0709,-3.0709,-3.0805,-3.0898,-3.0898,-3.0898,-3.0898,-3.0898,-3.0898,-3.0898,-3.0898,-3.0898,-3.0898,-3.0898,-3.0897,-3.0895,-3.0894,-3.0841,-3.0759,-3.0603,-3.0579,-3.051,-3.039,-3.0404,-3.0404,-3.0404,-3.0527,-3.081,-3.1218,-3.1354,-3.1641,-3.2049,-3.2043,-3.2496,-2.5191,-2.6294,-2.7224,-2.637,-2.6784,-2.7205,-2.6351,-2.5644,-2.5191,-2.5191,-2.5344,-2.5701,-2.6536,-2.8007,-2.9569,-3.0984,-3.3649,-3.6018,-3.7461,-3.8896,-4.0111,-4.0992,-4.1109,-4.1109,-4.1109,-4.1109,-4.1109,-4.1109,-4.1109,-4.1109,-4.1109,-4.1109,-4.1071,-4.0994,-4.0836,-4.0794,-4.0907,-4.0733,-4.0733,-4.0888,-3.9913,-3.9009,-3.8139,-3.7079,-3.6136,-3.5342,-3.525,-3.5209,-3.5209,-3.5209,-3.5209,-3.5209,-3.5209,-3.5326,-3.5501,-3.5501,-3.5629,-3.5795,-3.5795,-3.5795,-3.5803,-3.5871,-3.5895,-3.5787,-3.5169,-3.4725,-3.4139,-3.2753,-3.2016,-3.1451,-3.0791,-3.0501,-3.0404,-3.039,-3.0442,-3.0504,-3.0509,-3.0618,-3.0709,-3.0709,-3.0805,-3.0898,-3.0898,-3.0898,-3.0898,-3.0898,-3.0898,-3.0898,-3.0898,-3.0898,-3.0898,-3.0898,-3.0897,-3.0874,-3.0851,-3.086,-3.0782,-3.0598,-3.0587,-3.0518,-3.039,-3.0404,-3.0404,-3.0404,-3.0527,-3.0593,-3.0597,-3.073,-3.08,-3.08,-3.0809,-3.1269,-2.5191,-2.5854,-2.6332,-2.5516,-2.5912,-2.6313,-2.5497,-2.5249,-2.5191,-2.5191,-2.5778,-2.6555,-2.7415,-2.8412,-3.013,-3.3329,-3.4272,-3.5749,-3.8994,-3.9667,-4.0123,-4.0991,-4.1109,-4.1109,-4.1109,-4.1109,-4.1109,-4.1109,-4.1109,-4.1109,-4.1109,-4.1109,-4.1071,-4.0994,-4.0289,-4.0228,-4.0888,-4.0189,-4.0189,-4.0888,-3.9835,-3.8897,-3.8067,-3.6991,-3.6039,-3.5226,-3.5209,-3.5209,0.0,-3.5209,-3.5209,-3.5209,-3.5209,-3.5326,-3.5501,-3.5501,-3.5629,-3.5795,-3.5795,-3.5795,-3.5803,-3.5871,-3.5895,-3.5905,-3.587,-3.4782,-3.3494,-3.3338,-3.2036,-3.0694,-3.0613,-3.0501,-3.039,-3.0406,-3.0458,-3.0509,-3.0505,-3.0605,-3.0709,-3.0709,-3.0805,-3.0898,-3.0898,-3.0898,-3.0898,-3.0898,-3.0898,-3.0898,-3.0898,-3.0898,-3.0898,-3.0898,-3.085,-3.0774,-3.0726,-3.0716,-3.0655,-3.0519,-3.0515,-3.0482,-3.041,-3.0404,-3.0404,-3.0404,-3.0527,-3.0593,-3.0597,-3.073,-3.08,-3.08,-3.0799,-3.128,-2.5191,-2.5797,-2.6217,-2.5401,-2.5797,-2.6198,-2.5382,-2.5191,-2.5344,-2.5816,-2.6179,-2.6803,-2.8172,-2.8734,-2.9615,-3.1543,-3.28,-3.4221,-3.616,-3.7829,-3.9198,-4.0145,-4.0716,-4.1061,-4.1106,-4.1109,-4.1109,-4.1109,-4.1109,-4.1109,-4.1109,-4.1109,-4.1071,-4.0994,-4.0213,-3.9916,-4.0189,-3.9334,-3.9334,-4.0165,-3.9585,-3.8878,-3.8074,-3.7501,-3.6489,-3.5209,-3.5209,-3.5209,0.0,-3.5209,-3.5209,-3.5209,-3.5209,-3.5293,-3.5443,-3.5496,-3.5596,-3.5761,-3.5782,-3.5795,-3.5815,-3.5877,-3.5898,-3.5807,-3.5363,-3.4725,-3.4061,-3.3552,-3.2446,-3.1426,-3.1384,-3.0888,-3.0404,-3.0402,-3.0447,-3.0504,-3.0495,-3.0618,-3.0709,-3.0709,-3.0805,-3.0898,-3.0898,-3.0898,-3.0898,-3.0898,-3.0898,-3.0898,-3.0898,-3.0898,-3.0878,-3.0834,-3.0824,-3.0795,-3.0768,-3.0716,-3.0655,-3.0572,-3.053,-3.0472,-3.041,-3.0404,-3.0404,-3.0404,-3.0527,-3.0593,-3.0597,-3.073,-3.08,-3.08,-3.08,-3.0993,-2.5252,-2.5669,-2.5976,-2.5405,-2.5661,-2.5997,-2.5663,-2.5578,-2.5797,-2.6612,-2.6975,-2.7504,-2.8721,-2.9149,-2.964,-3.0579,-3.1973,-3.3437,-3.4865,-3.6886,-3.8645,-3.9887,-4.0604,-4.1028,-4.1068,-4.1083,-4.1109,-4.1109,-4.1109,-4.1109,-4.1109,-4.1109,-4.1088,-4.1024,-3.9983,-3.9516,-3.9707,-3.8846,-3.8829,-3.9699,-3.943,-3.8871,-3.8074,-3.7578,-3.6566,-3.5209,-3.5209,-3.5209,0.0,-3.5209,-3.5209,-3.5209,-3.5209,-3.5281,-3.5412,-3.5444,-3.557,-3.5718,-3.5747,-3.5778,-3.5811,-3.5888,-3.5903,-3.5786,-3.5232,-3.4887,-3.4569,-3.3964,-3.2918,-3.1899,-3.1573,-3.0951,-3.0402,-3.0414,-3.0477,-3.0514,-3.0525,-3.0621,-3.0709,-3.0709,-3.0805,-3.0898,-3.0898,-3.0898,-3.0898,-3.0898,-3.0898,-3.0898,-3.0898,-3.0878,-3.0855,-3.0803,-3.0765,-3.0747,-3.0735,-3.0671,-3.0607,-3.055,-3.0501,-3.0455,-3.0404,-3.0404,-3.0404,-3.0404,-3.0527,-3.0593,-3.0597,-3.073,-3.08,-3.08,-3.08,-3.08,-2.5406,-2.5406,-2.5406,-2.5406,-2.5359,-2.5514,-2.6308,-2.6433,-2.6632,-2.751,-2.8325,-2.8919,-2.906,-2.975,-3.0604,-3.1623,-3.2464,-3.3906,-3.6508,-3.7633,-3.883,-4.0582,-4.0918,-4.099,-4.0994,-4.1066,-4.1109,-4.1109,-4.1109,-4.1109,-4.1109,-4.1109,-4.1101,-4.1094,-3.9426,-3.8908,-3.9694,-3.884,-3.8829,-3.9699,-3.9437,-3.8878,-3.8054,-3.6995,-3.6023,-3.5209,-3.5209,-3.5209,0.0,-3.5209,-3.5209,-3.5209,-3.5209,-3.5281,-3.5405,-3.5405,-3.5528,-3.5707,-3.5707,-3.5737,-3.5811,-3.5888,-3.5903,-3.59,-3.5898,-3.5327,-3.4705,-3.4686,-3.3344,-3.1689,-3.0761,-3.0462,-3.0422,-3.0474,-3.05,-3.052,-3.0574,-3.0658,-3.0709,-3.0709,-3.0805,-3.0898,-3.0898,-3.0898,-3.0898,-3.0898,-3.0898,-3.0898,-3.0898,-3.0833,-3.0801,-3.08,-3.0672,-3.0598,-3.0595,-3.0545,-3.0477,-3.041,-3.0404,-3.0404,-3.0404,-3.0404,-3.0404,-3.0404,-3.0527,-3.0593,-3.0597,-3.073,-3.08,-3.08,-3.08,-3.08,-2.5391,-2.5391,-2.5391,-2.5391,-2.5839,-2.6324,-2.6575,-2.7079,-2.7735,-2.8545,-2.8926,-2.9476,-3.0728,-3.1153,-3.1831,-3.3393,-3.4279,-3.5316,-3.682,-3.8214,-3.933,-3.9961,-4.0644,-4.107,-4.107,-4.1083,-4.1109,-4.1109,-4.1109,-4.1109,-4.1109,-4.1109,-4.1101,-4.1094,-3.9991,-3.9494,-3.9694,-3.884,-3.8829,-3.9699,-3.8876,-3.8344,-3.8054,-3.6995,-3.6023,-3.5209,-3.5209,-3.5209,-3.5209,-3.5209,-3.5209,-3.5209,-3.5209,-3.5234,-3.5273,-3.5376,-3.5463,-3.5574,-3.5667,-3.5737,-3.5799,-3.5827,-3.5855,-3.5896,-3.5905,-3.5742,-3.5348,-3.4157,-3.3776,-3.3384,-3.1859,-3.1842,-3.2237,-3.2213,-3.2243,-3.2283,-3.2294,-3.193,-3.1758,-3.2365,-3.1624,-3.1094,-3.1699,-3.1289,-3.0898,-3.0898,-3.0898,-3.0878,-3.0832,-3.1331,-3.1425,-3.0742,-3.1164,-3.1246,-3.0653,-3.0544,-3.0493,-3.0472,-3.0427,-3.0404,-3.0404,-3.0404,-3.0404,-3.0404,-3.0496,-3.0556,-3.0597,-3.0699,-3.0762,-3.08,-3.08,-3.08,-2.5515,-2.5515,-2.5596,-2.5887,-2.6356,-2.6916,-2.7578,-2.8101,-2.8696,-2.9524,-2.9949,-3.0427,-3.1194,-3.1614,-3.2116,-3.297,-3.3992,-3.5148,-3.6433,-3.7985,-3.9295,-4.0101,-4.0713,-4.1072,-4.1108,-4.1109,-4.1109,-4.1109,-4.1109,-4.0953,-4.062,-4.06,-4.0473,-4.0172,-3.9604,-3.9442,-3.9726,-3.8855,-3.8829,-3.9699,-3.8611,-3.8093,-3.8054,-3.6658,-3.5698,-3.5209,-3.5209,-3.5209,0.0,-3.5209,-3.5209,-3.5209,-3.5209,-3.5209,-3.5218,-3.5297,-3.5409,-3.5507,-3.5604,-3.5694,-3.5795,-3.5795,-3.5858,-3.5899,-3.5934,-3.5974,-3.5719,-3.4298,-3.424,-3.4262,-3.2817,-3.2772,-3.3122,-3.3096,-3.3139,-3.3175,-3.3175,-3.283,-3.2682,-3.323,-3.2528,-3.2012,-3.2559,-3.1953,-3.1387,-3.1387,-3.1113,-3.0995,-3.1252,-3.1744,-3.1943,-3.1614,-3.1748,-3.163,-3.1111,-3.0704,-3.0499,-3.0469,-3.0414,-3.0404,-3.0404,-3.0404,-3.0404,-3.0404,-3.0462,-3.0527,-3.0597,-3.0682,-3.0764,-3.08,-3.08,-3.08,0.0,-2.5738,-2.5894,-2.6691,-2.6892,-2.7339,-2.9026,-2.9365,0.0,-3.0427,-3.1264,-3.162,-3.1005,-3.1557,-3.1935,-3.1439,-3.26,-3.4186,-3.5933,-3.7451,-3.9058,-4.0796,-4.1019,-4.1022,-4.1087,-4.1109,-4.1109,-4.1109,-4.1109,-4.0717,-3.9858,-3.98,-3.9429,-3.863,-3.8475,-3.8828,-3.9705,-3.8841,-3.881,-3.9582,-3.852,-3.8003,-3.7939,-3.6063,-3.5209,0.0,-3.5209,-3.5209,0.0,-3.5209,-3.5209,-3.5209,-3.5209,-3.5209,-3.5209,-3.5209,-3.5326,-3.5501,-3.5501,-3.5634,-3.5799,-3.5811,-3.5844,-3.5905,-3.5988,-3.5992,-3.5818,-3.4947,-3.4698,-3.4499,-3.3612,-3.3399,-3.3392,-3.339,-3.3439,-3.3487,-3.3487,-3.3477,-3.3498,-3.3576,-3.3473,-3.3418,-3.3476,-3.2812,-3.2285,-3.2285,-3.1601,-3.1346,-3.2085,-3.2188,-3.2411,-3.3029,-3.2386,-3.1869,-3.1811,-3.0998,-3.0469,-3.0403,-3.0402,-3.0404,-3.0404,-3.0404,-3.0404,-3.0404,-3.0472,-3.0535,-3.0597,-3.073,-3.08,-3.08,-3.08,-3.08,-2.6459,0.0,-2.5894,-2.6691,-2.7385,-2.8155,0.0,-2.9975,-3.0673,-3.1543,-3.1885,-3.2377,-3.3522,-3.3892,-3.4616,-3.6408,-3.7008,-3.7864,-3.9609,-4.0179,-4.0576,-4.1016,-4.1076,-4.108,-4.1108,-4.1109,-4.1109,-4.1109,-4.1109,-4.0717,-3.9858,-3.98,-3.9429,-3.863,-3.7889,-3.7929,-3.8806,-3.8549,-3.8503,-3.8693,-3.7624,-3.7102,-3.7058,-3.5787,-3.5209,-3.5209,-3.5209,0.0,-3.5209,-3.5209,-3.5209,-3.5209,-3.5209,-3.5209,-3.5209,-3.5209,-3.5326,-3.5501,-3.5501,-3.5634,-3.5815,-3.5863,-3.5882,-3.5903,-3.5973,-3.5998,-3.5818,-3.4947,-3.516,-3.5468,-3.4539,-3.4784,-3.5242,-3.5193,-3.521,-3.521,-3.521,-3.4739,-3.4528,-3.5172,-3.4273,-3.3613,-3.4277,-3.3672,-3.3125,-3.3125,-3.2949,-3.2867,-3.2994,-3.3595,-3.3505,-3.2255,-3.2522,-3.2527,-3.185,-3.0998,-3.0479,-3.0474,-3.0439,-3.0404,-3.0404,-3.0404,-3.0404,-3.0404,-3.0524,-3.0575,-3.0597,-3.073,-3.08,-3.08,-3.08,-3.08,-2.6225,-2.6595,-2.7139,-2.8385,-2.9048,-2.9613,-3.0492,-3.0743,-3.094,-3.1417,-3.1826,-3.2279,-3.2818,-3.3563,-3.454,-3.5949,-3.6832,-3.8081,-4.0155,-4.0803,-4.104,-4.104,-4.104,-4.0912,-4.054,-4.0503,-4.0348,-3.9977,-3.9958,-3.9567,-3.8707,-3.8648,-3.8277,-3.7438,-3.6875,-3.7217,-3.8494,-3.804,-3.7998,-3.8382,-3.7309,-3.6794,-3.6768,-3.5691,-3.5209,-3.5209,-3.5209,0.0,-3.5209,-3.5209,-3.5209,-3.5209,-3.5209,-3.5209,-3.5209,-3.5209,-3.5326,-3.5501,-3.5501,-3.5634,-3.5803,-3.5871,-3.5892,-3.5919,-3.5974,-3.6003,-3.5906,-3.5423,-3.5639,-3.5873,-3.5363,-3.5595,-3.5945,-3.5895,-3.5892,-3.5892,-3.5892,-3.5552,-3.5384,-3.5852,-3.5213,-3.4746,-3.5215,-3.457,-3.4004,-3.4004,-3.3652,-3.351,-3.3816,-3.4266,-3.4315,-3.3655,-3.3654,-3.3518,-3.3035,-3.2176,-3.1488,-3.1121,-3.0656,-3.0404,-3.0404,-3.0404,-3.0404,-3.0404,-3.0527,-3.0593,-3.0597,-3.073,-3.08,-3.08,-3.08,-3.08,-2.6018,-2.7301,-2.8896,-3.01,-3.0606,-3.0996,-3.1722,-3.133,-3.0843,-3.0962,-3.1595,-3.1993,-3.1666,-3.2791,-3.3929,-3.4316,-3.5731,-3.7505,-3.9611,-4.056,-4.1025,-4.1025,-4.0908,-4.0557,-3.9875,-3.9683,-3.9331,-3.865,-3.8591,-3.822,-3.734,-3.7301,-3.6891,-3.6031,-3.5934,-3.6619,-3.8084,-3.731,-3.7288,-3.7994,-3.7058,-3.6601,-3.6575,-3.5634,-3.5209,-3.5209,0.0,0.0,-3.5209,-3.5209,-3.5209,-3.5209,-3.5209,-3.5209,-3.5209,-3.5209,-3.5326,-3.5501,-3.5531,-3.5654,-3.5799,-3.586,-3.5884,-3.5913,-3.5976,-3.5991,-3.5992,-3.5995,-3.5995,-3.5995,-3.5996,-3.5996,-3.5996,-3.5996,-3.5996,-3.5996,-3.5996,-3.5996,-3.5996,-3.5996,-3.5996,-3.5996,-3.5996,-3.5391,-3.4902,-3.4902,-3.4277,-3.4018,-3.4613,-3.4695,-3.4899,-3.544,-3.4839,-3.4394,-3.4389,-3.3528,-3.2756,-3.2196,-3.1305,-3.0731,-3.0596,-3.0462,-3.0404,-3.0404,-3.0527,-3.0593,-3.0597,-3.073,-3.08,-3.08,-3.08,-3.08,-2.7428,-2.9078,-3.0117,-2.8896,-2.971,-3.084,-3.0977,-3.0908,-3.1014,-3.1746,-3.2003,-3.273,-3.4814,-3.5417,-3.6315,-3.8468,-3.9662,-4.0442,-4.0828,-4.1003,-4.1081,-4.1081,-4.0436,-3.995,-3.9818,-3.9175,-3.8728,-3.8611,-3.8591,-3.822,-3.734,-3.7301,-3.6891,-3.6031,-3.5934,-3.6032,-3.6305,-3.616,-3.6119,-3.6203,-3.5858,-3.5694,-3.5682,-3.5346,-3.5209,-3.5209,0.0,-3.5209,-3.5209,-3.5209,-3.5209,-3.5209,-3.5209,-3.5209,-3.5209,-3.5209,-3.5326,-3.5519,-3.5684,-3.5778,-3.5811,-3.5804,-3.5856,-3.5907,-3.5908,-3.5957,-3.5995,-3.5996,-3.5996,-3.5995,-3.5996,-3.5996,-3.5996,-3.5996,-3.5996,-3.5996,-3.5996,-3.5996,-3.5996,-3.5996,-3.5996,-3.5996,-3.5996,-3.5898,-3.5801,-3.5801,-3.5684,-3.56,-3.559,-3.5597,-3.5334,-3.4666,-3.4471,-3.4383,-3.4318,-3.3512,-3.3232,-3.38,-3.2993,-3.2218,-3.1525,-3.0788,-3.0404,-3.0404,-3.0527,-3.0593,-3.0597,-3.073,-3.08,-3.08,-3.08,-3.08,-2.6637,-2.8433,-2.992,-2.9097,-3.0893,-3.2846,-3.2846,-3.2498,-3.2268,-3.268,-3.3158,-3.3871,-3.5089,-3.6066,-3.7375,-3.9467,-4.0522,-4.1083,-4.1057,-4.1054,-4.0879,-4.0391,-3.9982,-3.9406,-3.853,-3.8102,-3.7692,-3.7223,-3.7204,-3.7028,-3.6617,-3.6597,-3.6402,-3.6012,-3.5965,-3.5937,-3.5895,-3.5898,-3.5869,-3.5795,-3.5607,-3.5501,-3.5489,-3.5289,-3.5209,-3.5209,0.0,-3.5209,-3.5209,-3.5209,-3.5209,-3.5209,-3.5209,-3.5209,-3.5207,-3.5319,-3.5418,-3.5525,-3.5727,-3.5795,-3.5807,-3.5791,-3.5844,-3.59,-3.5902,-3.5954,-3.5996,-3.5996,-3.5996,-3.5996,-3.5996,-3.5996,-3.5996,-3.5996,-3.5996,-3.5996,-3.5996,-3.5996,-3.5996,-3.5996,-3.5996,-3.5996,-3.5996,-3.5996,-3.5996,-3.5996,-3.5996,-3.5952,-3.5827,-3.5791,-3.5626,-3.515,-3.511,-3.5074,-3.5007,-3.4631,-3.4146,-3.3538,-3.3115,-3.2545,-3.1737,-3.1308,-3.0885,-3.0404,-3.0527,-3.0593,-3.0597,-3.073,-3.08,-3.08,-3.08,-3.08,-2.5947,-2.7726,-2.9566,-2.9762,-3.193,-3.4119,-3.4511,-3.3926,-3.3418,-3.3827,-3.4328,-3.4824,-3.5225,-3.6713,-3.8316,-3.9585,-4.0522,-4.108,-4.1022,-4.0858,-4.0468,-3.9806,-3.9377,-3.8651,-3.7416,-3.7126,-3.6716,-3.6051,-3.5992,-3.5992,-3.5992,-3.5992,-3.5992,-3.5992,-3.5992,-3.5973,-3.5895,-3.5895,-3.5873,-3.5795,-3.5623,-3.5538,-3.5495,-3.5311,-3.5234,-3.5209,-3.5209,-3.5209,-3.5209,-3.5209,-3.5209,-3.5209,-3.5209,-3.5209,-3.5215,-3.5418,-3.5501,-3.5525,-3.5727,-3.5791,-3.5795,-3.5783,-3.5822,-3.5908,-3.5871,-3.5931,-3.5996,-3.5996,-3.5996,-3.5996,-3.5996,-3.5996,-3.5996,-3.5996,-3.5996,-3.5996,-3.5996,-3.5996,-3.5996,-3.5996,-3.5996,-3.5996,-3.5996,-3.5996,-3.5996,-3.5996,-3.5996,-3.5953,-3.5841,-3.5819,-3.5768,-3.5708,-3.5701,-3.5673,-3.5614,-3.5598,-3.4989,-3.3603,-3.3314,-3.2929,-3.2314,-3.191,-3.1391,-3.0712,-3.0643,-3.0593,-3.0597,-3.073,-3.08,-3.08,-3.08,-3.08,-2.6699,-2.8222,-2.9764,-3.0525,-3.1503,-3.2695,-3.4251,-3.3934,-3.3761,-3.5371,-3.5176,-3.5195,-3.6819,-3.8492,-3.9663,-3.978,-4.0522,-4.1108,-4.1087,-4.0402,-3.9854,-3.9795,-3.8411,-3.7435,-3.7301,-3.6578,-3.607,-3.5992,-3.5992,-3.5992,-3.5992,-3.5992,-3.5992,-3.5992,-3.5992,-3.5973,-3.5895,-3.5895,-3.5873,-3.5795,-3.5718,-3.5621,-3.5495,-3.5416,-3.5312,-3.5209,-3.5209,-3.5209,-3.5209,-3.5209,-3.5209,-3.5209,-3.5209,-3.5209,-3.5215,-3.5418,-3.5501,-3.5525,-3.5727,-3.5801,-3.578,-3.5727,-3.5783,-3.589,-3.5821,-3.5896,-3.5996,-3.5996,-3.5996,-3.5996,-3.5996,-3.5996,-3.5996,-3.5996,-3.5996,-3.5996,-3.5996,-3.5996,-3.5996,-3.5996,-3.5996,-3.5996,-3.5996,-3.5996,-3.5996,-3.5996,-3.5996,-3.5975,-3.5896,-3.5841,-3.5765,-3.5717,-3.5708,-3.5662,-3.5604,-3.5534,-3.5449,-3.5327,-3.4545,-3.409,-3.4013,-3.2526,-3.1679,-3.1621,-3.0933,-3.0593,-3.0597,-3.073,-3.08,-3.08,-3.08,-3.08,-2.6092,-2.7827,-2.9615,-2.9911,-3.1438,-3.3292,-3.5022,-3.5149,-3.5407,-3.7093,-3.7633,-3.8021,-3.8729,-3.9363,-3.98,-3.98,-4.0522,-4.0914,-4.0366,-4.0015,-3.9409,-3.8375,-3.7692,-3.7087,-3.6539,-3.6187,-3.5992,-3.5992,-3.5504,-3.5428,-3.5973,-3.5485,-3.5446,-3.5973,-3.5992,-3.597,-3.5895,-3.5903,-3.5888,-3.585,-3.5756,-3.5626,-3.5495,-3.5423,-3.532,-3.5209,-3.5209,-3.5209,-3.5171,-3.4655,-3.4751,-3.5209,-3.5209,-3.5209,-3.5215,-3.5418,-3.5501,-3.5525,-3.5727,-3.581,-3.5797,-3.5718,-3.5783,-3.5897,-3.5819,-3.5893,-3.5996,-3.5996,-3.5996,-3.5996,-3.5996,-3.5996,-3.5996,-3.5996,-3.5996,-3.5996,-3.5996,-3.5996,-3.5996,-3.5996,-3.5996,-3.5996,-3.5996,-3.5996,-3.5996,-3.5996,-3.5996,-3.5975,-3.5918,-3.5843,-3.5768,-3.5706,-3.5664,-3.5622,-3.5598,-3.5547,-3.55,-3.55,-3.468,-3.3955,-3.341,-3.2295,-3.1465,-3.0958,-3.073,-3.0617,-3.0659,-3.0741,-3.08,-3.08,-3.08,-3.08,-2.6104,-2.7766,-2.9574,-2.9833,-3.1412,-3.3423,-3.5446,-3.6104,-3.675,-3.8461,-3.9087,-3.9241,-3.9023,-3.8981,-3.8989,-3.9001,-3.9741,-4.0094,-3.9507,-3.9175,-3.859,-3.7438,-3.6813,-3.6247,-3.5641,-3.5348,-3.5172,-3.5172,-3.4627,-3.4549,-3.5153,-3.4608,-3.4686,-3.5563,-3.5582,-3.5693,-3.5898,-3.5908,-3.5898,-3.5908,-3.5795,-3.5648,-3.5495,-3.5187,-3.4981,-3.4827,-3.4827,-3.4827,-3.4808,-3.4503,-3.4694,-3.5209,-3.5209,-3.5209,-3.5215,-3.5418,-3.5501,-3.5525,-3.5737,-3.5782,-3.5769,-3.5708,-3.5757,-3.583,-3.5811,-3.5885,-3.5975,-3.5996,-3.5996,-3.5996,-3.5996,-3.5996,-3.5996,-3.5996,-3.5996,-3.5996,-3.5996,-3.5996,-3.5996,-3.5996,-3.5996,-3.5996,-3.5996,-3.5996,-3.5996,-3.5996,-3.5996,-3.5976,-3.5948,-3.5862,-3.5814,-3.5737,-3.5684,-3.5657,-3.5606,-3.5566,-3.5509,-3.55,-3.468,-3.4064,-3.3737,-3.2954,-3.2125,-3.1308,-3.1122,-3.0923,-3.0709,-3.0768,-3.08,-3.08,-3.08,-3.08,-2.7009,-2.8225,-2.971,-3.0587,-3.143,-3.2703,-3.5308,-3.6507,-3.7576,-3.9328,-3.9052,-3.8228,-3.7362,-3.7207,-3.7225,-3.7286,-3.8025,-3.8591,-3.8591,-3.7849,-3.7282,-3.7282,-3.574,-3.4686,-3.4686,-3.3905,-3.3396,-3.3396,-3.3396,-3.3396,-3.3396,-3.3396,-3.3787,-3.4666,-3.4686,-3.5069,-3.5879,-3.5888,-3.5878,-3.5869,-3.5818,-3.5684,-3.5462,-3.4652,-3.4192,-3.3995,-3.3995,-3.3995,-3.4071,-3.4866,-3.5209,-3.519,-3.5209,-3.5209,-3.5215,-3.5418,-3.5501,-3.5519,-3.5737,-3.5766,-3.5704,-3.5698,-3.5698,-3.5714,-3.5771,-3.5845,-3.59,-3.5975,-3.5996,-3.5996,-3.5996,-3.5996,-3.5996,-3.5996,-3.5996,-3.5996,-3.5996,-3.5996,-3.5996,-3.5996,-3.5996,-3.5996,-3.5996,-3.5996,-3.5996,-3.5996,-3.5996,-3.5996,-3.5996,-3.5948,-3.5878,-3.5816,-3.5795,-3.5745,-3.5601,-3.5604,-3.5575,-3.5514,-3.4686,-3.4609,-3.5442,-3.4708,-3.3886,-3.303,-3.2357,-3.1585,-3.0711,-3.0788,-3.08,-3.08,-3.08,-3.08,-2.6994,-2.8223,-2.9701,-3.052,-3.2263,-3.3962,-3.4734,-3.5564,-3.6674,-3.8436,-3.8146,-3.7516,-3.7251,-3.7246,-3.7271,-3.7303,-3.8025,-3.8396,-3.777,-3.6931,-3.6168,-3.5545,-3.4471,-3.3787,-3.3787,-3.3552,-3.3396,-3.3396,-3.2831,-3.2753,-3.3377,-3.2812,-3.289,-3.3767,-3.3787,-3.3896,-3.414,-3.4093,-3.4064,-3.4062,-3.4052,-3.4272,-3.4712,-3.4425,-3.3885,-3.3154,-3.3119,-3.3433,-3.4071,-3.4866,-3.4866,-3.4407,-3.498,-3.5209,-3.5215,-3.5418,-3.5501,-3.5519,-3.5737,-3.5794,-3.5766,-3.5723,-3.5736,-3.5764,-3.5733,-3.5816,-3.5896,-3.5924,-3.5954,-3.5996,-3.5996,-3.5996,-3.5996,-3.5996,-3.5996,-3.5996,-3.5996,-3.5996,-3.5996,-3.5996,-3.5996,-3.5996,-3.5996,-3.5996,-3.5996,-3.5996,-3.5996,-3.5976,-3.5948,-3.5919,-3.5878,-3.5816,-3.5795,-3.5787,-3.5741,-3.5691,-3.5636,-3.5581,-3.5377,-3.5078,-3.4668,-3.387,-3.3378,-3.3206,-3.3014,-3.25,-3.1688,-3.1696,-3.1407,-3.08,-3.08,-3.0796,-2.7909,-2.9226,-3.0697,-3.1537,-3.3133,-3.4598,-3.4944,-3.5686,-3.6719,-3.8104,-3.7741,-3.7164,-3.7198,-3.6952,-3.6747,-3.6776,-3.6931,-3.6873,-3.6345,-3.5524,-3.4763,-3.4256,-3.3417,-3.289,-3.289,-3.2576,-3.2362,-3.2362,-3.1875,-3.1816,-3.2342,-3.1875,-3.1973,-3.2851,-3.289,-3.3052,-3.3394,-3.3334,-3.329,-3.329,-3.3307,-3.3347,-3.3436,-3.3313,-3.2915,-3.232,-3.2209,-3.268,-3.3547,-3.4388,-3.4445,-3.409,-3.4885,-3.5209,-3.5215,-3.5424,-3.5502,-3.552,-3.5693,-3.5752,-3.5747,-3.5707,-3.5737,-3.5754,-3.5713,-3.5765,-3.5834,-3.5887,-3.5925,-3.5974,-3.5996,-3.5996,-3.5996,-3.5996,-3.5996,-3.5996,-3.5996,-3.5996,-3.5996,-3.5996,-3.5996,-3.5996,-3.5996,-3.5996,-3.5996,-3.5996,-3.5996,-3.5995,-3.593,-3.5947,-3.5918,-3.589,-3.5875,-3.5875,-3.5833,-3.5797,-3.5733,-3.566,-3.5687,-3.5476,-3.4962,-3.4477,-3.4096,-3.3826,-3.3847,-3.3459,-3.2617,-3.2265,-3.1836,-3.1309,-3.0956,-3.0796,-2.9171,-3.062,-3.2108,-3.306,-3.3954,-3.4808,-3.5523,-3.6284,-3.71,-3.7979,-3.7462,-3.6884,-3.6941,-3.6265,-3.5682,-3.5742,-3.5096,-3.4588,-3.4588,-3.3827,-3.3279,-3.3279,-3.2519,-3.1973,-3.1973,-3.127,-3.08,-3.08,-3.08,-3.08,-3.08,-3.08,-3.1153,-3.1953,-3.1973,-3.2364,-3.3166,-3.3103,-3.3063,-3.306,-3.3067,-3.2652,-3.1887,-3.1777,-3.1636,-3.1482,-3.1412,-3.1859,-3.2642,-3.3528,-3.3937,-3.4071,-3.4808,-3.5133,-3.5223,-3.5423,-3.5496,-3.5534,-3.5651,-3.5707,-3.5702,-3.5695,-3.5704,-3.5706,-3.5697,-3.5689,-3.5729,-3.5845,-3.589,-3.59,-3.5975,-3.5996,-3.5996,-3.5996,-3.5996,-3.5996,-3.5996,-3.5996,-3.5996,-3.5996,-3.5996,-3.5996,-3.5996,-3.5996,-3.5996,-3.5996,-3.5996,-3.5996,-3.5996,-3.5996,-3.5994,-3.5991,-3.6007,-3.5973,-3.5902,-3.5916,-3.5852,-3.5733,-3.5718,-3.5771,-3.5908,-3.5908,-3.5538,-3.4742,-3.4788,-3.4393,-3.3513,-3.2636,-3.2189,-3.2071,-3.1211,-3.0799,-2.8437,-2.9699,-3.1359,-3.2912,-3.442,-3.5391,-3.4886,-3.4925,-3.5313,-3.6187,-3.5702,-3.5142,-3.517,-3.4492,-3.3931,-3.3964,-3.3806,-3.3689,-3.3689,-3.2929,-3.2383,-3.2383,-3.1602,-3.1075,-3.1075,-3.0917,-3.08,-3.08,-3.08,-3.08,-3.08,-3.08,-3.0898,-3.1075,-3.1075,-3.1161,-3.1366,-3.1341,-3.1316,0.0,-3.1258,-3.116,-3.1001,-3.1581,-3.1388,-3.0605,-3.1164,-3.1515,-3.1744,-3.2623,-3.3375,-3.4014,-3.4178,-3.4676,-3.53,-3.5443,-3.5521,-3.5595,-3.5667,-3.5707,-3.5702,-3.5695,-3.5704,-3.569,-3.5697,-3.5698,-3.5706,-3.5721,-3.5824,-3.5896,-3.5922,-3.5953,-3.5996,-3.5996,-3.5996,-3.5996,-3.5996,-3.5996,-3.5996,-3.5996,-3.5996,-3.5996,-3.5996,-3.5996,-3.5996,-3.5996,-3.5996,-3.5996,-3.5996,-3.5996,-3.5994,-3.5991,-3.6007,-3.6,-3.5983,-3.5981,-3.5945,-3.5852,-3.5909,-3.5919,-3.5892,-3.5908,-3.5831,-3.5708,-3.5716,-3.529,-3.4413,-3.3554,-3.2773,-3.2071,-3.1211,-3.0807,-2.8668,-3.0014,-3.164,-3.2967,-3.3954,-3.4478,-3.4031,-3.3925,-3.4056,-3.4505,-3.4275,-3.3984,-3.3979,-3.3652,-3.3408,-3.3399,-3.3045,-3.2773,-3.2773,-3.2031,-3.1485,-3.1485,-3.1075,-3.08,-3.08,-3.08,-3.08,-3.08,-3.08,-3.08,-3.08,-3.08,-3.08,-3.08,-3.08,-3.0807,-3.0796,-3.0795,-3.0774,-3.0755,-3.0719,-3.0694,-3.071,-3.1095,-3.0921,-3.0323,-3.0708,-3.0865,-3.0892,-3.1763,-3.2401,-3.2879,-3.3622,-3.4232,-3.4786,-3.5228,-3.5496,-3.5608,-3.569,-3.5706,-3.5706,-3.569,-3.5704,-3.5704,-3.5704,-3.5707,-3.5698,-3.5704,-3.5758,-3.5824,-3.5885,-3.5924,-3.5953,-3.5996,-3.5996,-3.5996,-3.5996,-3.5996,-3.5996,-3.5996,-3.5996,-3.5996,-3.5996,-3.5996,-3.5996,-3.5996,-3.5996,-3.5996,-3.5996,-3.5995,-3.5993,-3.5991,-3.6004,-3.5998,-3.5992,-3.5992,-3.5985,-3.5947,-3.5983,-3.5985,-3.5945,-3.5945,-3.5955,-3.5992,-3.5992,-3.5778,-3.533,-3.4021,-3.3162,-3.2695,-3.1405,-3.0809,-2.8796,-3.0341,-3.2027,-3.3041,-3.3293,-3.3258,-3.3114,-3.3083,-3.3048,-3.2892,-3.2989,-3.3093,-3.3099,-3.3023,-3.2948,-3.2951,-3.2343,-3.1875,-3.1875,-3.125,-3.08,-3.08,-3.0683,-3.0645,-3.0781,-3.0664,-3.0644,-3.0781,-3.08,-3.08,-3.08,-3.08,-3.08,-3.08,-3.08,-3.08,-3.08,-3.08,-3.0805,-3.08,-3.0737,-3.0694,-3.069,-3.0641,-3.0525,-3.0358,-3.0322,-3.028,-3.027,-3.0975,-3.1343,-3.1588,-3.2871,-3.3665,-3.4172,-3.4855,-3.5327,-3.5622,-3.5668,-3.5704,-3.5704,-3.5704,-3.5704,-3.5704,-3.5704,-3.5704,-3.5706,-3.5693,-3.5704,-3.5729,-3.5838,-3.5885,-3.59,-3.5974,-3.5996,-3.5996,-3.5996,-3.5996,-3.5996,-3.5996,-3.5996,-3.5996,-3.5996,-3.5996,-3.5996,-3.5996,-3.5996,-3.5996,-3.5996,-3.5994,-3.5991,-3.5991,-3.6001,-3.5992,-3.5992,-3.5992,-3.5992,-3.5992,-3.5992,-3.5992,-3.5992,-3.5992,-3.5992,-3.5992,-3.5992,-3.5992,-3.5992,-3.4392,-3.3611,-3.3591,-3.1988,-3.116,-2.7203,-2.9023,-3.1254,-3.2885,-3.3293,-3.3094,-3.2355,-3.2177,-3.198,-3.1271,-3.1728,-3.2259,-3.2262,-3.1655,-3.1151,-3.1156,-3.1054,-3.0976,-3.0976,-3.0878,-3.08,-3.08,-3.0177,-3.0021,-3.0722,-3.0177,-3.004,-3.0742,-3.08,-3.08,-3.08,-3.08,-3.08,-3.08,-3.08,-3.08,-3.08,-3.08,-3.0797,-3.08,-3.0737,-3.0694,-3.0694,-3.0687,-3.0645,-3.0544,-3.0381,-3.0298,-3.0279,-3.0341,-3.0741,-3.1348,-3.1542,-3.2642,-3.411,-3.4225,-3.4873,-3.5698,-3.5704,-3.5704,-3.5704,-3.5704,-3.5704,-3.5704,-3.5704,-3.5704,-3.5709,-3.5706,-3.5694,-3.5702,-3.5725,-3.5819,-3.5896,-3.5919,-3.5953,-3.5996,-3.5996,-3.5996,-3.5996,-3.5996,-3.5996,-3.5996,-3.5996,-3.5996,-3.5996,-3.5996,-3.5996,-3.5996,-3.5996,-3.5994,-3.5991,-3.5991,-3.6001,-3.5992,-3.5992,-3.5992,-3.5992,-3.5992,-3.5992,-3.5992,-3.5992,-3.5992,-3.5992,-3.5992,-3.5992,-3.5992,-3.5992,-3.5018,-3.453,-3.4491,-3.3519,-3.2643,-2.8052,-2.9149,-3.0322,-3.1543,-3.1831,-3.1743,-3.1359,-3.1309,-3.1227,-3.0812,-3.1075,-3.1363,-3.1363,-3.0663,-3.0077,-3.0123,-3.0138,-3.0138,-3.0138,-3.0138,-3.0138,-3.0138,-2.9377,-2.9006,-2.9357,-2.9084,-2.9025,-2.9375,-2.9845,-3.0138,-3.0138,-3.0567,-3.08,-3.08,-3.08,-3.08,-3.08,-3.0798,-3.0776,-3.0734,-3.0719,-3.0694,-3.0694,-3.0699,-3.0669,-3.0595,-3.0422,-3.0339,-3.0298,-3.0192,-3.0334,-3.0666,-3.1115,-3.2145,-3.3433,-3.3915,-3.4783,-3.5704,-3.5704,-3.5704,-3.5704,-3.5704,-3.5704,-3.5704,-3.5704,-3.5704,-3.5704,-3.5704,-3.5702,-3.5689,-3.5704,-3.5732,-3.5805,-3.5838,-3.5893,-3.5949,-3.5949,-3.5975,-3.5996,-3.5996,-3.5996,-3.5996,-3.5996,-3.5996,-3.5996,-3.5996,-3.5996,-3.5996,-3.5996,-3.5994,-3.5991,-3.5991,-3.6001,-3.5992,-3.5992,-3.5992,-3.5992,-3.5992,-3.5992,-3.5992,-3.5992,-3.5992,-3.5992,-3.5992,-3.5992,-3.5992,-3.5992,-3.5135,-3.4701,-3.4672,-3.3803,-3.3176,-2.8301,-2.8941,-2.9348,-3.0195,-3.0548,-3.0709,-3.0714,-3.0757,-3.0787,-3.0735,-3.0601,-3.0507,-3.0507,-2.9941,-2.9452,-2.9283,-2.9261,-2.9261,-2.9261,-2.9261,-2.9261,-2.9261,-2.8498,-2.8069,-2.8283,-2.8108,-2.8069,-2.8283,-2.9104,-2.9592,-2.9592,-3.0353,-3.08,-3.08,-3.08,-3.08,-3.08,-3.0781,-3.0749,-3.0698,-3.0682,-3.0676,-3.0676,-3.068,-3.0653,-3.058,-3.0487,-3.0395,-3.034,-3.0192,-3.014,-3.0185,-3.0742,-3.1599,-3.2596,-3.3468,-3.4461,-3.54,-3.5626,-3.5704,-3.5704,-3.5704,-3.5704,-3.5704,-3.5704,-3.5704,-3.5704,-3.5704,-3.5704,-3.5706,-3.5703,-3.57,-3.5714,-3.5756,-3.5831,-3.5887,-3.5922,-3.5954,-3.5996,-3.5996,-3.5996,-3.5996,-3.5996,-3.5996,-3.5996,-3.5996,-3.5996,-3.5996,-3.5996,-3.5994,-3.5991,-3.6009,-3.6,-3.5992,-3.5992,-3.5992,-3.5992,-3.5992,-3.5992,-3.5992,-3.5992,-3.5992,-3.5992,-3.5992,-3.5992,-3.5992,-3.5992,-3.5349,-3.503,-3.4991,-3.4341,-3.3885,-2.6553,-2.7586,-2.8398,-2.9333,-3.0141,-3.0726,-3.0778,-3.0801,-3.08,-3.079,-3.0181,-2.9653,-2.9653,-2.9567,-2.9257,-2.8482,-2.8362,-2.8362,-2.8362,-2.8362,-2.8362,-2.8362,-2.7601,-2.7387,-2.8225,-2.7543,-2.7406,-2.8244,-2.9104,-2.9592,-2.9592,-3.0353,-3.08,-3.08,-3.08,-3.08,-3.08,-3.0739,-3.0696,-3.0692,-3.0636,-3.061,-3.061,-3.0606,-3.0606,-3.0602,-3.0525,-3.0491,-3.0471,-3.0286,-3.0181,-3.019,-3.009,-3.0717,-3.1762,-3.2634,-3.3604,-3.4587,-3.5419,-3.5704,-3.5704,-3.5704,-3.5704,-3.5704,-3.5704,-3.5704,-3.5704,-3.5704,-3.5704,-3.5709,-3.5695,-3.5689,-3.5698,-3.5702,-3.5768,-3.5843,-3.5974,-3.5996,-3.5996,-3.5996,-3.5996,-3.5996,-3.5996,-3.5996,-3.5996,-3.5996,-3.5996,-3.5996,-3.5995,-3.5993,-3.6009,-3.6005,-3.5998,-3.5992,-3.5992,-3.5992,-3.5992,-3.5992,-3.5992,-3.5992,-3.5992,-3.5992,-3.5992,-3.5992,-3.5992,-3.5992,-3.5992,-3.5953,-3.5907,-3.5847,-3.5788,-3.5329,-2.6436,-2.7112,-2.7534,-2.8446,-2.9308,-2.9935,-2.9953,-3.0409,-3.0801,-3.0799,-3.0167,-2.9436,-2.8869,-2.829,-2.7804,-2.7505,-2.7465,-2.7465,-2.7465,-2.7465,-2.7465,-2.7465,-2.6703,-2.6293,-2.6605,-2.6351,-2.6293,-2.6605,-2.7445,-2.7933,-2.7933,-2.8732,-2.92,-2.92,-2.9731,-3.03,-3.0851,-3.08,-3.0744,-3.0705,-3.0673,-3.0637,-3.0606,-3.0593,-3.0608,-3.0604,-3.0564,-3.053,-3.0481,-3.0273,-3.0209,-3.019,-3.0196,-3.0765,-3.1646,-3.2042,-3.3139,-3.4432,-3.4761,-3.5226,-3.5704,-3.5704,-3.5704,-3.5704,-3.5704,-3.5704,-3.5704,-3.5704,-3.5704,-3.5704,-3.5704,-3.5697,-3.5704,-3.5704,-3.5722,-3.5762,-3.5917,-3.5974,-3.5996,-3.5996,-3.5996,-3.5996,-3.5996,-3.5996,-3.5996,-3.5996,-3.5996,-3.5996,-3.5995,-3.5993,-3.6009,-3.6005,-3.5998,-3.5992,-3.5992,-3.5992,-3.5992,-3.5992,-3.5992,-3.5992,-3.5992,-3.5992,-3.5992,-3.5992,-3.5992,-3.5992,-3.5992,-3.5992,-3.5978,-3.5904,-3.5894,-3.5707,-2.5621,-2.6454,-2.711,-2.7981,-2.8649,-2.9136,-2.9437,-2.9958,-3.0351,-3.0351,-2.9721,-2.8986,-2.8401,-2.7347,-2.6567,-2.6567,-2.6567,-2.6567,-2.6567,-2.6567,-2.6567,-2.6567,-2.6058,-2.5707,-2.5707,-2.5707,-2.5707,-2.5707,-2.6508,0.0,-2.6996,-2.7837,-2.8306,-2.8308,-2.8857,-2.9583,-3.0465,-3.0409,-3.0473,-3.0695,-3.0681,-3.0648,-3.0604,-3.0591,-3.0606,-3.0606,-3.0607,-3.0569,-3.052,-3.0327,-3.0272,-3.0333,-3.0319,-3.0694,-3.1312,-3.167,-3.2725,-3.4002,-3.4297,-3.4974,-3.5704,-3.5704,-3.5704,-3.5704,-3.5704,-3.5704,-3.5704,-3.5704,-3.5704,-3.5704,-3.5704,-3.5704,-3.5697,-3.5696,-3.5722,-3.5756,-3.5882,-3.5927,-3.5975,-3.5996,-3.5996,-3.5996,-3.5996,-3.5996,-3.5996,-3.5996,-3.5996,-3.5996,-3.5994,-3.5992,-3.6009,-3.6001,-3.5996,-3.5992,-3.5992,-3.5992,-3.5992,-3.5992,-3.5992,-3.5992,-3.5992,-3.5992,-3.5992,-3.5992,-3.5992,-3.5992,-3.5992,-3.5992,-3.5974,-3.5908,-3.5908,-3.5853,0.0,0.0,0.0,-2.7911,-2.8139,-2.8384,-2.9238,-2.9431,-2.9453,-2.9453,-2.8823,-2.8265,-2.8265,-2.6859,-2.5707,-2.5707,-2.5707,-2.5707,-2.5726,-2.5726,-2.5727,-2.5766,-2.5727,-2.5709,-2.5728,-2.5709,-2.5709,-2.5708,-2.649,-2.6958,-2.6958,-2.7761,-2.8233,-2.8257,-2.8257,-2.8687,-2.9547,-2.951,-2.9861,-3.0624,-3.0558,-3.0537,-3.0559,-3.0559,-3.0578,-3.0598,-3.0598,-3.0598,-3.0569,-3.0389,-3.0411,-3.0588,-3.0389,-3.043,-3.0694,-3.1483,-3.2314,-3.3184,-3.406,-3.4935,-3.5665,-3.5684,-3.5704,-3.5704,-3.5704,-3.5704,-3.5704,-3.5704,-3.5704,-3.5704,-3.5704,-3.5704,-3.5697,-3.5696,-3.5758,-3.5824,-3.5887,-3.5895,-3.5922,-3.5996,-3.5996,-3.5996,-3.5996,-3.5996,-3.5996,-3.5996,-3.5996,-3.5996,-3.5992,-3.5991,-3.6007,-3.5994,-3.5992,-3.5992,-3.5992,-3.5992,-3.5992,-3.5992,-3.5992,-3.5992,-3.5992,-3.5992,-3.5992,-3.5992,-3.5992,-3.5992,-3.5992,-3.5992,-3.5974,-3.5908,-3.5908,-3.5853,-2.4996,0.0,0.0,0.0,0.0,0.0,-2.7555,-2.8107,-2.8569,-2.8569,-2.7929,-2.7362,-2.7362,-2.6458,-2.5707,-2.5707,-2.5707,-2.5922,-2.6547,-2.6108,-2.6151,-2.7363,-2.6406,-2.5875,-2.6519,-2.5993,-2.5643,0.0,-2.5917,-2.6052,-2.6064,-2.6282,-2.6715,-2.7342,-2.7362,-2.7772,-2.8652,-2.8633,-2.8719,-2.8896,-2.8861,-2.9146,-2.965,-2.965,-2.9998,-3.0598,-3.0598,-3.0598,-3.0598,-3.055,-3.0554,-3.0593,-3.055,-3.0554,-3.0636,-3.0849,-3.1444,-3.2275,-3.3165,-3.4021,-3.4858,-3.5496,-3.5704,-3.5704,-3.5704,-3.5704,-3.5704,-3.5704,-3.5704,-3.5704,-3.5704,-3.5704,-3.5697,-3.5696,-3.5714,-3.5768,-3.5882,-3.5895,-3.5922,-3.5996,-3.5996,-3.5996,-3.5996,-3.5996,-3.5996,-3.5996,-3.5996,-3.5995,-3.5992,-3.6008,-3.6003,-3.5994,-3.5992,-3.5992,-3.5992,-3.5992,-3.5992,-3.5992,-3.5992,-3.5992,-3.5992,-3.5992,-3.5992,-3.5992,-3.5992,-3.5992,-3.5992,-3.5992,-3.5974,-3.5908,-3.5859,-3.5819,-2.5465,-2.5873,-2.6223,-2.655,0.0,0.0,-2.6907,-2.7294,-2.7651,-2.7651,-2.7275,-2.695,-2.695,-2.625,-2.5664,-2.5664,-2.5664,-2.5858,-2.6382,-2.6309,-2.6559,-2.7535,-2.6767,-2.6331,-2.6856,-2.6116,-2.5636,-2.5683,-2.5703,-2.5703,-2.5697,-2.57,-2.5936,-2.6445,-2.6465,-2.6875,-2.7754,-2.7754,-2.7905,-2.8195,-2.8199,-2.8593,-2.9334,-2.93,-2.9785,-3.0598,-3.0598,-3.0598,-3.0598,-3.0598,-3.0598,-3.0598,-3.0598,-3.0598,-3.0598,-3.0598,-3.112,-3.1927,-3.2798,-3.3673,-3.4549,-3.5419,-3.5704,-3.5704,-3.5704,-3.5704,-3.5704,-3.5704,-3.5704,-3.5704,-3.5704,-3.5704,-3.5697,-3.5696,-3.5725,-3.5762,-3.5884,-3.5923,-3.5952,-3.5996,-3.5996,-3.5996,-3.5996,-3.5996,-3.5996,-3.5996,-3.5996,-3.5994,-3.5991,-3.6007,-3.6001,-3.5994,-3.5992,-3.5992,-3.5992,-3.5992,-3.5992,-3.5992,-3.5992,-3.5992,-3.5992,-3.5992,-3.5992,-3.5992,-3.5992,-3.5989,-3.5963,-3.5963,-3.5942,-3.5908,-3.5827,-3.5795,-2.587,-2.6436,-2.7174,-2.7812,-2.7505,0.0,-2.6805,-2.6814,-2.685,-2.6753,-2.6759,-2.6757,-2.6757,-2.6114,-2.5607,-2.5607,-2.5606,-2.5651,-2.582,-2.6378,-2.6853,-2.7146,-2.7026,-2.6946,-2.7024,-2.6244,-2.5727,-2.5682,-2.5703,-2.5703,-2.57,-2.5702,-2.5703,-2.5703,-2.5703,-2.6074,-2.6855,-2.6855,-2.7205,-2.7928,-2.7922,-2.8342,-2.9103,-2.9167,-2.9653,-3.0462,-3.0554,-3.0607,-3.0598,-3.0598,-3.0598,-3.0598,-3.0598,-3.0598,-3.0598,-3.0598,-3.1043,-3.1792,-3.2778,-3.3615,-3.4413,-3.54,-3.5684,-3.5684,-3.5684,-3.5698,-3.5698,-3.5698,-3.5698,-3.5698,-3.5679,-3.5684,-3.5692,-3.5709,-3.5768,-3.5827,-3.5893,-3.5953,-3.5996,-3.5996,-3.5996,-3.5996,-3.5996,-3.5996,-3.5996,-3.5996,-3.5995,-3.5994,-3.5991,-3.6007,-3.6001,-3.5994,-3.5992,-3.5992,-3.5992,-3.5992,-3.5992,-3.5992,-3.5992,-3.5992,-3.5992,-3.5992,-3.5992,-3.5992,-3.5992,-3.5963,-3.5903,-3.5903,-3.5899,-3.5901,-3.5838,-3.5795,-2.7615,-2.7735,-2.7754,-2.7252,-2.7505,0.0,-2.6168,-2.6356,-2.6614,-2.5922,-2.5812,-2.5845,-2.5845,-2.5715,-2.5595,-2.5595,-2.5598,-2.5853,-2.657,-2.62,-2.6626,-2.8733,-2.7746,-2.7151,-2.781,-2.7132,-2.6357,-2.568,-2.5672,-2.5703,-2.57,-2.5703,-2.5703,-2.5703,-2.5703,-2.5781,-2.5957,-2.5957,-2.6033,-2.6194,-2.619,-2.6582,-2.7324,-2.8085,-2.8826,-2.9596,-3.0292,-3.0591,-3.0598,-3.0598,-3.0598,-3.0598,-3.0598,-3.0598,-3.0598,-3.0598,-3.0694,-3.1043,-3.2565,-3.3204,-3.361,-3.5182,-3.5654,-3.5612,-3.5612,-3.5614,-3.5616,-3.5616,-3.5616,-3.5622,-3.5626,-3.5612,-3.5653,-3.5739,-3.5783,-3.5838,-3.5952,-3.5996,-3.5996,-3.5996,-3.5996,-3.5996,-3.5996,-3.5996,-3.5996,-3.5996,-3.5995,-3.5992,-3.5991,-3.6002,-3.5994,-3.5992,-3.5992,-3.5992,-3.5992,-3.5992,-3.5992,-3.5992,-3.5992,-3.5992,-3.5992,-3.5992,-3.5992,-3.5992,-3.5992,-3.5978,-3.5897,-3.5897,-3.59,-3.5901,-3.5838,-3.5795,-2.8761,-2.8745,-2.8647,-2.8243,-2.812,0.0,0.0,-2.6175,-2.6149,-2.6155,-2.5832,-2.5682,-2.6126,-2.584,-2.5549,-2.5549,-2.5576,-2.5734,-2.6152,-2.6566,-2.7334,-2.8641,-2.8401,-2.8301,-2.8706,-2.7987,-2.7151,-2.6307,-2.6315,-2.6151,-2.572,-2.5703,-2.5703,-2.5703,-2.5703,-2.5703,-2.5703,-2.5703,-2.5703,-2.5699,-2.5692,-2.6092,-2.6882,-2.774,-2.8586,-2.9396,-3.0246,-3.0591,-3.0606,-3.0597,-3.0588,-3.0559,-3.0593,-3.0598,-3.0598,-3.0598,-3.0588,-3.0728,-3.2009,-3.2443,-3.2722,-3.4447,-3.4977,-3.5023,-3.5467,-3.561,-3.5598,-3.5598,-3.5598,-3.5604,-3.5596,-3.5615,-3.5679,-3.5725,-3.5805,-3.5878,-3.5948,-3.5975,-3.5996,-3.5996,-3.5996,-3.5996,-3.5996,-3.5996,-3.5996,-3.5996,-3.5994,-3.5991,-3.6008,-3.6,-3.5992,-3.5992,-3.5992,-3.5992,-3.5992,-3.5992,-3.5992,-3.5992,-3.5992,-3.5992,-3.5992,-3.5992,-3.5988,-3.5941,-3.5951,-3.5929,-3.5908,-3.5908,-3.5889,-3.585,-3.5826,-3.5795,-2.9654,-2.9657,-2.9576,-2.9227,-2.8747,-2.8034,0.0,0.0,0.0,-2.6431,-2.5986,-2.5718,-2.6412,-2.5966,-2.5505,-2.5505,-2.5557,-2.5557,-2.5475,-2.6814,-2.7828,-2.7857,-2.8625,-2.9152,-2.9149,-2.8353,-2.7587,-2.6951,-2.6782,-2.65,-2.5974,-2.5781,-2.5703,-2.5703,-2.5703,-2.5703,-2.5703,-2.5703,-2.5703,-2.5703,-2.5698,-2.6031,-2.6697,-2.7683,-2.8518,-2.9217,-3.0215,-3.0618,-3.0602,-3.0593,-3.0554,-3.051,-3.0559,-3.0588,-3.0583,-3.0583,-3.055,-3.0626,-3.15,-3.1799,-3.2047,-3.3552,-3.4145,-3.4447,-3.5328,-3.5573,-3.5573,-3.5573,-3.5573,-3.5579,-3.5585,-3.5621,-3.5674,-3.5715,-3.5794,-3.5887,-3.5918,-3.5953,-3.5996,-3.5996,-3.5996,-3.5996,-3.5996,-3.5996,-3.5996,-3.5995,-3.5993,-3.6009,-3.6005,-3.5998,-3.5992,-3.5992,-3.5992,-3.5992,-3.5992,-3.5992,-3.5992,-3.5992,-3.5992,-3.5992,-3.5992,-3.5989,-3.5962,-3.5908,-3.5902,-3.5894,-3.5901,-3.5901,-3.5861,-3.5795,-3.5795,-3.5795,-3.0547,-3.0544,-3.018,-2.8627,-2.8748,-2.8613,-2.6207,0.0,-2.6451,-2.5793,0.0,-2.5534,-2.5631,0.0,0.0,-2.5496,-2.5511,-2.5461,-2.5348,-2.6157,-2.6803,-2.6923,-2.7715,-2.8252,-2.8258,-2.7466,-2.6923,-2.6894,-2.62,-2.6078,-2.6813,-2.6113,-2.5703,-2.5703,-2.5703,-2.5703,-2.5703,-2.5703,-2.5703,-2.5703,-2.5703,-2.5758,-2.5898,-2.7534,-2.8303,-2.8439,-3.0072,-3.0701,-3.0603,-3.0595,-3.0552,-3.0509,-3.051,-3.051,-3.0514,-3.0514,-3.0509,-3.0625,-3.1493,-3.1802,-3.1951,-3.2858,-3.3625,-3.4366,-3.5258,-3.5514,-3.5514,-3.5514,-3.5514,-3.5501,-3.5502,-3.5528,-3.5568,-3.5757,-3.5801,-3.5848,-3.5969,-3.5995,-3.5996,-3.5996,-3.5996,-3.5996,-3.5996,-3.5996,-3.5996,-3.5995,-3.5993,-3.6009,-3.6005,-3.5998,-3.5992,-3.5992,-3.5992,-3.5992,-3.5992,-3.5992,-3.5992,-3.5992,-3.5992,-3.5992,-3.5992,-3.5939,-3.591,-3.5908,-3.5902,-3.5894,-3.5901,-3.5901,-3.5861,-3.5795,-3.5795,-3.5795,-2.9932,-2.9955,-2.9773,-2.9036,-2.8361,-2.7606,-2.6494,-2.6153,-2.6064,-2.6184,0.0,0.0,0.0,0.0,0.0,0.0,-2.5429,-2.5352,-2.5317,-2.5587,-2.5981,-2.6506,0.0,0.0,-2.7973,-2.7729,-2.7584,-2.7645,-2.7314,-2.7082,-2.6991,-2.664,-2.6211,-2.5723,-2.5703,-2.5703,-2.5703,-2.5703,-2.5703,-2.5703,-2.5703,-2.5701,-2.5746,-2.6944,-2.7464,-2.7518,-2.8716,-2.9518,-2.9958,-2.988,-3.0139,-3.055,-3.0471,-3.0474,-3.0504,-3.0504,-3.0474,-3.0497,-3.0863,-3.0981,-3.1201,-3.2511,-3.3506,-3.4353,-3.5238,-3.55,-3.55,-3.55,-3.55,-3.5507,-3.5501,-3.5562,-3.5645,-3.571,-3.5838,-3.5934,-3.5993,-3.5995,-3.5996,-3.5996,-3.5996,-3.5996,-3.5996,-3.5996,-3.5996,-3.5993,-3.5992,-3.6008,-3.5999,-3.5995,-3.5992,-3.5992,-3.5992,-3.5992,-3.5992,-3.5992,-3.5992,-3.5992,-3.5992,-3.5992,-3.5992,-3.5945,-3.5907,-3.5907,-3.5859,-3.5841,-3.5846,-3.5846,-3.5834,-3.5795,-3.5795,-3.5795,-2.9385,-2.9385,-2.9323,-2.909,-2.809,-2.7009,-2.6541,-2.6102,-2.588,-2.6292,-2.6047,0.0,0.0,0.0,-2.5427,-2.5402,0.0,-2.5225,-2.5206,-2.5143,-2.5348,-2.5967,-2.6814,0.0,0.0,-2.7636,-2.7831,-2.8177,-2.7985,-2.7797,-2.7689,-2.7245,-2.6719,-2.6074,-2.582,-2.5703,-2.5703,-2.5703,-2.5703,-2.5703,-2.5703,-2.5702,-2.5734,-2.6551,-2.694,-2.6978,-2.7808,-2.8675,-2.948,-2.9382,-2.9831,-3.0563,-3.0467,-3.0444,-3.0477,-3.0477,-3.0442,-3.04,-3.04,-3.0402,-3.0635,-3.2102,-3.3141,-3.4007,-3.4891,-3.5308,-3.55,-3.55,-3.55,-3.55,-3.55,-3.5596,-3.5678,-3.5702,-3.5848,-3.5984,-3.5992,-3.5993,-3.5994,-3.5995,-3.5996,-3.5996,-3.5996,-3.5996,-3.5995,-3.5992,-3.5991,-3.6006,-3.5994,-3.5992,-3.5992,-3.5992,-3.5992,-3.5992,-3.5992,-3.5992,-3.5992,-3.5992,-3.5992,-3.5991,-3.5967,-3.5934,-3.5906,-3.5897,-3.5834,-3.5795,-3.5795,-3.5795,-3.5795,-3.5795,-3.5795,-3.5795,0.0,0.0,0.0,-2.8334,0.0,0.0,-2.5917,-2.601,-2.6289,-2.5661,-2.6029,-2.624,-2.5481,-2.5313,-2.5259,-2.5138,-2.5101,0.0,0.0,-2.4915,-2.4968,-2.5116,-2.5901,-2.6483,0.0,-2.6655,-2.7086,0.0,-2.7413,-2.7678,-2.9331,-2.787,-2.6992,-2.6953,-2.6133,-2.5703,-2.5703,-2.5703,-2.5703,-2.5703,-2.5703,-2.5703,-2.5723,-2.6601,-2.6991,-2.705,-2.7927,-2.8753,-2.9496,-2.9494,-2.9887,-3.0501,-3.0496,-3.0451,-3.0404,-3.0404,-3.0404,-3.0404,-3.0404,-3.0404,-3.0558,-3.1448,-3.2275,-3.3103,-3.3975,-3.4834,-3.55,-3.55,-3.55,-3.55,-3.55,-3.5553,-3.562,-3.5676,-3.5798,-3.5925,-3.598,-3.6008,-3.5991,-3.5991,-3.5991,-3.5991,-3.5991,-3.5993,-3.5994,-3.5992,-3.6008,-3.6002,-3.5994,-3.5992,-3.5992,-3.5992,-3.5992,-3.5992,-3.5992,-3.5992,-3.5992,-3.5992,-3.5992,-3.5965,-3.5908,-3.5904,-3.5897,-3.5905,-3.5819,-3.5795,-3.5795,-3.5795,-3.5795,-3.5795,-3.5795,-3.5795,0.0,0.0,-2.7586,-2.7836,0.0,0.0,0.0,0.0,0.0,-2.5276,-2.5423,-2.5491,-2.5223,-2.5165,-2.5154,-2.5115,-2.5037,-2.4942,0.0,-2.4818,-2.4787,-2.4825,-2.5164,-2.5437,-2.5472,0.0,0.0,-2.7892,-2.7815,0.0,0.0,-2.895,-2.816,-2.7031,-2.6719,-2.6289,-2.5703,-2.5703,-2.5703,-2.5703,-2.5703,-2.5703,-2.5703,-2.6015,-2.6131,-2.6166,-2.6458,-2.7389,-2.87,-2.8655,-2.9438,-3.062,-3.0531,-3.0496,-3.0456,-3.0414,-3.0404,-3.0404,-3.0404,-3.0404,-3.0538,-3.1429,-3.2237,-3.3064,-3.3936,-3.4814,-3.55,-3.55,-3.55,-3.55,-3.55,-3.5568,-3.5678,-3.5689,-3.5839,-3.5965,-3.6001,-3.6005,-3.6008,-3.5991,-3.5991,-3.5991,-3.5991,-3.6009,-3.6009,-3.6007,-3.6005,-3.6002,-3.5994,-3.5992,-3.5992,-3.5992,-3.5992,-3.5992,-3.5992,-3.5992,-3.5992,-3.5992,-3.5963,-3.5914,-3.5908,-3.5906,-3.5895,-3.5901,-3.5838,-3.5795,-3.5795,-3.5795,-3.5795,-3.5795,-3.5795,-3.5795,-2.6603,-2.6568,0.0,-2.7176,-2.6429,0.0,-2.5823,0.0,-2.5387,0.0,-2.5297,-2.5374,-2.5075,-2.5024,-2.5006,-2.4974,-2.4888,-2.4825,0.0,-2.4719,-2.4653,-2.47,-2.4782,-2.4864,-2.4955,-2.5124,-2.6,-2.7825,-2.8051,-2.8632,0.0,0.0,-2.9013,-2.7969,-2.7324,-2.6738,-2.6172,-2.5859,-2.5703,-2.5703,-2.5703,-2.5703,-2.5702,-2.5702,-2.57,-2.5694,-2.5692,-2.6686,-2.8301,-2.8241,-2.9219,-3.0682,-3.0587,-3.0509,-3.0487,-3.0411,-3.0404,-3.0404,-3.0404,-3.0404,-3.05,-3.1058,-3.1987,-3.3006,-3.3564,-3.4564,-3.55,-3.55,-3.55,-3.55,-3.55,-3.5602,-3.5698,-3.5698,-3.585,-3.5994,-3.6,-3.6,-3.6001,-3.6005,-3.6005,-3.6005,-3.6005,-3.6003,-3.6001,-3.6004,-3.6002,-3.5999,-3.5992,-3.5992,-3.5992,-3.5992,-3.5992,-3.5992,-3.5992,-3.5992,-3.5989,-3.5965,-3.5914,-3.5899,-3.5902,-3.5905,-3.5895,-3.5861,-3.5811,-3.5795,-3.5795,-3.5795,-3.5795,-3.5795,-3.5795,-3.5795]},{"header":{"parameterUnit":"m.s-1","parameterCategory":1,"la1":30.6,"la2":29.2853,"lo1":-89.7004,"lo2":-87.6739,"dy":0.0162,"dx":0.0183,"nx":112,"ny":82,"refTime":"2024-07-20T06:00:00:Z","depth":0,"parameterNumber":3,"parameterNumberName":"V-component_of_WINDS"},"data":[0.0,0.0,0.0,0.0,0.0,0.0,0.0,0.0,0.0,0.0,0.0,0.0,0.0,0.0,0.0,0.0,0.0,0.0,0.0,0.0,0.0,0.0,0.0,0.0,0.0,0.0,0.0,0.0,0.0,0.0,0.0,0.0,0.0,0.0,0.0,0.0,0.0,0.0,0.0,0.0,0.0,0.0,0.0,0.0,0.0,0.0,0.0,0.0,0.0,0.0,0.0,0.0,0.0,0.0,0.0,0.0,0.0,0.0,0.0,0.0,0.0,0.0,0.0,0.0,0.0,0.0,0.0,0.0,0.0,0.0,0.0,0.0,0.0,0.0,0.0,0.0,0.0,0.0,0.0,0.0,0.0,0.0,0.0,0.0,0.0,0.0,0.0,0.0,0.0,0.0,-0.5644,-0.6296,-0.6668,-0.6839,-0.6861,-0.6471,-0.6061,-0.5549,0.0,0.0,0.0,0.0,0.0,0.0,0.0,0.0,0.0,0.0,0.0,0.0,0.0,0.0,0.0,0.0,0.0,0.0,0.0,0.0,0.0,0.0,0.0,0.0,0.0,0.0,0.0,0.0,0.0,0.0,0.0,0.0,0.0,0.0,0.0,0.0,0.0,0.0,0.0,0.0,0.0,0.0,0.0,0.0,0.0,0.0,0.0,0.0,0.0,0.0,0.0,0.0,0.0,0.0,0.0,0.0,0.0,0.0,0.0,0.0,0.0,0.0,0.0,0.0,0.0,0.0,0.0,0.0,0.0,0.0,0.0,0.0,0.0,0.0,0.0,0.0,0.0,0.0,0.0,0.0,0.0,0.0,0.0,0.0,0.0,0.0,0.0,0.0,0.0,0.0,0.0,0.0,0.0,0.0,0.0,0.0,0.0,0.0,0.0,0.0,0.0,0.0,0.0,0.0,-0.5723,-0.6542,-0.6695,-0.6681,-0.6552,-0.6247,-0.5781,-0.5204,0.0,0.0,0.0,0.0,0.0,0.0,0.0,0.0,0.0,0.0,0.0,0.0,0.0,0.0,0.0,0.0,0.0,0.0,0.0,0.0,0.0,0.0,0.0,0.0,0.0,0.0,0.0,0.0,0.0,0.0,0.0,0.0,0.0,0.0,0.0,0.0,0.0,0.0,0.0,0.0,0.0,0.0,0.0,0.0,0.0,0.0,0.0,0.0,0.0,0.0,0.0,0.0,0.0,0.0,0.0,0.0,0.0,0.0,0.0,0.0,0.0,0.0,0.0,0.0,0.0,0.0,0.0,0.0,0.0,0.0,0.0,0.0,0.0,0.0,0.0,0.0,0.0,0.0,0.0,0.0,0.0,0.0,0.0,0.0,0.0,0.0,0.0,0.0,0.0,0.0,0.0,0.0,0.0,0.0,0.0,0.0,0.0,0.0,0.0,0.0,0.0,0.0,0.0,-0.5471,-0.5881,-0.662,-0.6559,-0.6504,-0.6511,-0.6054,-0.5603,-0.5127,-0.4843,0.0,0.0,0.0,0.0,0.0,0.0,0.0,0.0,0.0,0.0,0.0,0.0,0.0,0.0,0.0,0.0,0.0,0.0,0.0,0.0,0.0,0.0,0.0,0.0,0.0,0.0,0.0,0.0,0.0,0.0,0.0,0.0,0.0,0.0,0.0,0.0,0.0,0.0,0.0,0.0,0.0,0.0,0.0,0.0,0.0,0.0,0.0,0.0,0.0,0.0,0.0,0.0,0.0,0.0,0.0,0.0,0.0,0.0,0.0,0.0,0.0,0.0,0.0,0.0,0.0,0.0,0.0,0.0,0.0,0.0,0.0,0.0,0.0,0.0,0.0,0.0,0.0,0.0,0.0,0.0,0.0,0.0,0.0,0.0,0.0,0.0,0.0,0.0,0.0,0.0,0.0,0.0,0.0,0.0,0.0,0.0,0.0,0.0,0.0,0.0,0.0,0.0,-0.5769,-0.6034,-0.6491,-0.6342,-0.6276,-0.6347,-0.5873,-0.5406,-0.5069,-0.4685,0.0,0.0,0.0,0.0,0.0,0.0,0.0,0.0,0.0,0.0,0.0,0.0,0.0,0.0,0.0,0.0,0.0,0.0,0.0,0.0,0.0,0.0,0.0,0.0,0.0,0.0,0.0,0.0,0.0,0.0,0.0,0.0,0.0,0.0,0.0,0.0,0.0,0.0,0.0,0.0,0.0,0.0,0.0,0.0,0.0,0.0,0.0,0.0,0.0,0.0,0.0,0.0,0.0,0.0,0.0,0.0,0.0,0.0,0.0,0.0,0.0,0.0,0.0,0.0,0.0,0.0,0.0,0.0,0.0,0.0,0.0,0.0,0.0,0.0,0.0,0.0,0.0,0.0,0.0,0.0,0.0,0.0,0.0,0.0,0.0,0.0,0.0,0.0,0.0,0.0,0.0,0.0,0.0,0.0,0.0,0.0,0.0,0.0,0.0,0.0,0.0,0.0,-0.5632,-0.5993,-0.6033,-0.602,-0.5956,-0.5861,-0.5593,-0.5283,-0.4921,-0.4588,0.0,0.0,0.0,0.0,0.0,0.0,0.0,0.0,0.0,0.0,0.0,0.0,0.0,0.0,0.0,0.0,0.0,0.0,0.0,0.0,0.0,0.0,0.0,0.0,0.0,0.0,0.0,0.0,0.0,0.0,0.0,0.0,0.0,0.0,0.0,0.0,0.0,0.0,0.0,0.0,0.0,0.0,0.0,0.0,0.0,0.0,0.0,0.0,0.0,0.0,0.0,0.0,0.0,0.0,0.0,0.0,0.0,0.0,0.0,0.0,0.0,0.0,0.0,0.0,0.0,0.0,0.0,0.0,0.0,0.0,0.0,0.0,0.0,0.0,0.0,0.0,0.0,0.0,0.0,0.0,0.0,0.0,0.0,0.0,0.0,0.0,0.0,0.0,0.0,0.0,0.0,0.0,0.0,0.0,0.0,0.0,0.0,0.0,0.0,0.0,0.0,0.0,-0.5413,-0.5722,-0.5963,-0.5864,-0.5769,-0.58,-0.562,-0.5335,-0.4914,0.0,0.0,0.0,0.0,0.0,0.0,0.0,0.0,0.0,0.0,0.0,0.0,0.0,0.0,0.0,0.0,0.0,0.0,0.0,0.0,0.0,0.0,0.0,0.0,0.0,0.0,0.0,0.0,0.0,0.0,0.0,0.0,0.0,0.0,0.0,0.0,0.0,0.0,0.0,0.0,0.0,0.0,0.0,0.0,0.0,0.0,0.0,0.0,0.0,0.0,0.0,0.0,0.0,0.0,0.0,0.0,0.0,0.0,0.0,0.0,0.0,0.0,0.0,0.0,0.0,0.0,0.0,0.0,0.0,0.0,0.0,0.0,0.0,0.0,0.0,0.0,0.0,0.0,0.0,0.0,0.0,0.0,0.0,0.0,0.0,0.0,0.0,0.0,0.0,0.0,0.0,0.0,0.0,0.0,0.0,0.0,0.0,0.0,0.0,0.0,0.0,0.0,-0.4904,-0.5206,-0.5515,-0.5786,-0.5637,-0.559,-0.5654,-0.5528,-0.5274,-0.487,0.0,0.0,0.0,0.0,0.0,0.0,0.0,0.0,0.0,0.0,0.0,0.0,0.0,0.0,0.0,0.0,0.0,0.0,0.0,0.0,0.0,0.0,0.0,0.0,0.0,0.0,0.0,0.0,0.0,0.0,0.0,0.0,0.0,0.0,0.0,0.0,0.0,0.0,0.0,0.0,0.0,0.0,0.0,0.0,0.0,0.0,0.0,0.0,0.0,0.0,0.0,0.0,0.0,0.0,0.0,0.0,0.0,0.0,0.0,0.0,0.0,0.0,0.0,0.0,0.0,0.0,0.0,0.0,0.0,0.0,0.0,0.0,0.0,0.0,0.0,0.0,0.0,0.0,0.0,0.0,0.0,0.0,0.0,0.0,0.0,0.0,0.0,0.0,0.0,0.0,0.0,0.0,0.0,0.0,0.0,0.0,0.0,0.0,0.0,0.0,0.0,0.0,-0.467,-0.5115,-0.5395,-0.5395,-0.5395,-0.5395,-0.5395,-0.5223,-0.4978,0.0,0.0,0.0,0.0,0.0,0.0,0.0,0.0,0.0,0.0,0.0,0.0,0.0,0.0,0.0,0.0,0.0,0.0,0.0,0.0,0.0,0.0,0.0,0.0,0.0,0.0,0.0,0.0,0.0,0.0,0.0,0.0,0.0,0.0,0.0,0.0,0.0,0.0,0.0,0.0,0.0,0.0,0.0,0.0,0.0,0.0,0.0,0.0,0.0,0.0,0.0,0.0,0.0,0.0,0.0,0.0,0.0,0.0,0.0,0.0,0.0,0.0,0.0,0.0,0.0,0.0,0.0,0.0,0.0,0.0,0.0,0.0,0.0,0.0,0.0,0.0,0.0,0.0,0.0,0.0,0.0,0.0,0.0,0.0,0.0,0.0,0.0,0.0,0.0,0.0,0.0,0.0,0.0,0.0,0.0,0.0,0.0,0.0,0.0,0.0,0.0,0.0,0.0,-0.467,-0.5115,-0.5395,-0.5395,-0.5395,-0.5395,-0.5395,-0.542,-0.5237,-0.4721,0.0,0.0,0.0,0.0,0.0,0.0,0.0,0.0,0.0,0.0,0.0,0.0,0.0,0.0,0.0,0.0,0.0,0.0,0.0,0.0,0.0,0.0,0.0,0.0,0.0,0.0,0.0,0.0,0.0,0.0,0.0,0.0,0.0,0.0,0.0,0.0,0.0,0.0,0.0,0.0,0.0,0.0,0.0,0.0,0.0,0.0,0.0,0.0,0.0,0.0,0.0,0.0,0.0,0.0,0.0,0.0,0.0,0.0,0.0,0.0,0.0,0.0,0.0,0.0,0.0,0.0,0.0,0.0,0.0,0.0,0.0,0.0,0.0,0.0,0.0,0.0,0.0,0.0,0.0,0.0,0.0,0.0,0.0,0.0,0.0,0.0,0.0,0.0,0.0,0.0,0.0,0.0,0.0,0.0,0.0,0.0,0.0,0.0,0.0,0.0,0.0,0.0,-0.4614,-0.5078,-0.5395,-0.5395,-0.5395,-0.5395,-0.5395,-0.5481,-0.5294,-0.4813,0.0,0.0,0.0,0.0,0.0,0.0,0.0,0.0,0.0,0.0,0.0,0.0,0.0,0.0,0.0,0.0,0.0,0.0,0.0,0.0,0.0,0.0,0.0,0.0,0.0,0.0,0.0,0.0,0.0,0.0,0.0,0.0,0.0,0.0,0.0,0.0,0.0,0.0,0.0,0.0,0.0,0.0,0.0,0.0,0.0,0.0,0.0,0.0,0.0,0.0,0.0,0.0,0.0,0.0,0.0,0.0,0.0,0.0,0.0,0.0,0.0,0.0,0.0,0.0,0.0,0.0,0.0,0.0,0.0,0.0,0.0,0.0,0.0,0.0,0.0,0.0,0.0,0.0,0.0,0.0,0.0,0.0,0.0,0.0,0.0,0.0,0.0,0.0,0.0,0.0,0.0,0.0,0.0,0.0,0.0,0.0,0.0,0.0,0.0,0.0,0.0,0.0,-0.4508,-0.503,-0.5395,-0.5395,-0.5395,-0.5395,-0.5395,-0.5395,-0.5266,-0.4908,0.0,0.0,0.0,0.0,0.0,0.0,0.0,0.0,0.0,0.0,0.0,0.0,0.0,0.0,0.0,0.0,0.0,0.0,0.0,0.0,0.0,0.0,0.0,0.0,0.0,0.0,0.0,0.0,0.0,0.0,0.0,0.0,0.0,0.0,0.0,0.0,0.0,0.0,0.0,0.0,0.0,0.0,0.0,0.0,0.0,0.0,0.0,0.0,0.0,0.0,0.0,0.0,0.0,0.0,0.0,0.0,0.0,0.0,0.0,0.0,-0.2972,-0.2842,0.0,0.0,0.0,0.0,0.0,0.0,0.0,0.0,0.0,0.0,0.0,0.0,0.0,0.0,0.0,0.0,0.0,0.0,0.0,0.0,0.0,0.0,0.0,0.0,0.0,0.0,0.0,0.0,0.0,0.0,0.0,0.0,0.0,0.0,0.0,0.0,0.0,0.0,0.0,0.0,-0.4655,-0.5095,-0.5395,-0.5395,-0.5395,-0.5395,-0.5395,-0.5395,-0.5266,-0.4908,-0.4745,0.0,0.0,0.0,0.0,0.0,0.0,0.0,0.0,0.0,0.0,0.0,0.0,0.0,0.0,0.0,0.0,0.0,0.0,0.0,0.0,0.0,0.0,0.0,0.0,0.0,0.0,0.0,0.0,0.0,0.0,0.0,0.0,0.0,0.0,0.0,0.0,0.0,0.0,0.0,0.0,0.0,0.0,0.0,0.0,0.0,0.0,0.0,0.0,0.0,0.0,0.0,0.0,0.0,0.0,0.0,0.0,0.0,0.0,0.0,-0.3315,-0.306,0.0,0.0,0.0,0.0,0.0,0.0,0.0,0.0,0.0,0.0,0.0,0.0,0.0,0.0,0.0,0.0,0.0,0.0,0.0,0.0,0.0,0.0,0.0,0.0,0.0,0.0,0.0,0.0,0.0,0.0,0.0,0.0,0.0,0.0,0.0,0.0,0.0,0.0,0.0,0.0,-0.467,-0.5115,-0.5395,-0.5395,-0.5395,-0.5395,-0.5395,-0.5395,-0.533,-0.5142,-0.4925,0.0,0.0,0.0,0.0,0.0,0.0,0.0,0.0,0.0,0.0,0.0,0.0,0.0,0.0,0.0,0.0,0.0,0.0,0.0,0.0,0.0,0.0,0.0,0.0,0.0,0.0,0.0,0.0,0.0,0.0,0.0,0.0,0.0,0.0,0.0,0.0,0.0,0.0,0.0,0.0,0.0,0.0,0.0,0.0,0.0,0.0,0.0,0.0,0.0,0.0,0.0,0.0,0.0,-0.3656,-0.3651,-0.3677,-0.3867,-0.4155,-0.4408,-0.3872,-0.3609,-0.3637,-0.4431,0.0,0.0,0.0,0.0,0.0,0.0,0.0,0.0,0.0,0.0,0.0,0.0,0.0,0.0,0.0,0.0,0.0,0.0,0.0,0.0,0.0,0.0,0.0,0.0,0.0,0.0,0.0,0.0,0.0,0.0,0.0,0.0,0.0,0.0,0.0,0.0,0.0,0.0,-0.4715,-0.5114,-0.5395,-0.5395,-0.5395,-0.5395,-0.5395,-0.5395,-0.5395,-0.5395,-0.5108,-0.4901,0.0,0.0,0.0,0.0,0.0,0.0,0.0,0.0,0.0,0.0,0.0,0.0,0.0,0.0,0.0,0.0,0.0,0.0,0.0,0.0,0.0,0.0,0.0,0.0,0.0,0.0,0.0,0.0,0.0,0.0,0.0,0.0,0.0216,-0.0737,0.0,0.0,0.0,0.0,0.0,0.0,0.0,0.0,0.0,0.0,0.0,0.0,0.0,-0.3526,-0.3729,-0.3771,-0.3822,-0.3848,-0.3897,-0.3899,-0.3865,-0.4433,-0.4651,-0.4691,-0.5114,0.0,-0.5122,-0.5373,0.0,0.0,0.0,0.0,0.0,0.0,0.0,0.0,0.0,0.0,0.0,0.0,0.0,0.0,0.0,0.0,0.0,0.0,0.0,0.0,0.0,0.0,0.0,0.0,0.0,0.0,0.0,0.0,-0.0058,-0.0175,-0.0114,0.0,0.0,0.0,0.0,0.0,0.0,0.0,-0.4828,-0.5182,-0.5395,-0.5395,-0.5395,-0.5395,-0.5395,-0.5395,-0.5395,-0.5395,-0.5199,-0.5063,-0.5042,-0.4789,0.0,0.0,0.0,0.0,0.0,0.0,0.0,0.0,0.0,0.0,0.0,0.0,0.0,0.0,0.0,0.0,0.0,0.0,0.0,0.0,0.0,0.0,0.0,0.0,0.0,0.0,0.0,0.0,0.0,0.092,0.0976,0.0198,-0.0088,-0.0535,0.0,0.0,0.0,0.0,0.0,0.0,0.0,0.0,0.0,-0.3714,-0.3726,-0.3785,-0.3916,-0.3957,-0.4001,-0.4053,-0.404,-0.3972,-0.3973,-0.4204,-0.4641,-0.5237,-0.547,-0.5978,-0.6559,-0.614,-0.5908,-0.5805,0.0,0.0,0.0,0.0,-0.4465,-0.385,-0.378,-0.3832,-0.3753,-0.2328,0.0,0.0,0.0,0.0,0.0,0.0,0.0,0.0,0.0,0.0,0.0,0.0,0.0,0.0,0.0,0.0,-0.0032,0.0,-0.0031,-0.0179,-0.0694,0.0,0.0,0.0,0.0,-0.4221,-0.4826,-0.5205,-0.5395,-0.5395,-0.5395,-0.5395,-0.5395,-0.5395,-0.5395,-0.5395,-0.533,-0.522,-0.5103,-0.4975,-0.4789,0.0,0.0,0.0,0.0,0.0,0.0,0.0,0.0,0.0,0.0,0.0,0.0,0.0,0.0,0.0,0.0,0.0,0.0,0.0,0.0,0.0,0.0,0.0,0.0,0.0,0.0,0.0,0.0,0.1251,0.1401,0.0845,0.016,-0.052,0.0,0.0,0.0,0.0,0.0,0.0,-0.3399,-0.3452,-0.3559,-0.3794,-0.3928,-0.4014,-0.4059,-0.4061,-0.4138,-0.4204,-0.4136,-0.4049,-0.4067,-0.4138,-0.4723,-0.5674,-0.5796,-0.6475,-0.7468,-0.6802,-0.6404,-0.6257,-0.6638,-0.6188,-0.5308,-0.5212,-0.4693,-0.4038,-0.3975,-0.4061,-0.3935,-0.2496,-0.1818,-0.1373,-0.0329,0.0,0.0,0.0,0.0,0.0,0.0,0.0,0.0,0.0,0.0,0.0,0.0,0.0,0.0,0.0,0.0,-0.0096,-0.0472,0.0,0.0,-0.2503,-0.3167,-0.3864,-0.4759,-0.5127,-0.5326,-0.5395,-0.5395,-0.5395,-0.5395,-0.5395,-0.5395,-0.5395,-0.5395,-0.5344,-0.5196,-0.5189,-0.5016,-0.4668,0.0,0.0,0.0,0.0,0.0,0.0,0.0,0.0,0.0,0.0,0.0,0.0,0.0,0.0,0.0,0.0,0.0,0.0,0.0,0.0,0.0,0.0,0.0,0.0,0.0,0.0,0.0,0.0,0.0,0.0514,-0.0207,0.0,0.0,0.0,0.0,-0.3425,-0.3184,-0.3069,-0.3217,-0.335,-0.3426,-0.35,-0.3941,-0.42,-0.4285,-0.4285,-0.4287,-0.4293,-0.4287,-0.4242,-0.4206,-0.4697,-0.5246,-0.5808,-0.6312,-0.6907,-0.7468,-0.726,-0.7142,-0.711,-0.7005,-0.6643,-0.6061,-0.5428,-0.4856,-0.4316,-0.3926,-0.3926,-0.3885,-0.2533,-0.1189,-0.0101,-0.0033,0.0,0.0,0.0,0.0,0.0,0.0,0.0,0.0,0.0,0.0,0.0,0.0,0.0,0.0,0.0,0.0,0.0,-0.0032,0.0,-0.1184,-0.2012,-0.2814,-0.3692,-0.4668,-0.4987,-0.519,-0.5395,-0.5395,-0.5395,-0.5395,-0.5395,-0.5395,-0.5395,-0.5395,-0.5392,-0.5385,-0.5382,-0.527,-0.5069,-0.4816,0.0,0.0,0.0,0.0,0.0,0.0,0.0,0.0,0.0,0.0,0.0,0.0,0.0,0.0,0.0,0.0,0.0,0.0,0.0,0.0,0.0,0.0,0.0,0.0,0.0,0.0,0.0,0.0,-0.0036,-0.022,0.0,-0.1895,-0.2471,-0.28,-0.2898,-0.3063,-0.3205,-0.3382,-0.3096,-0.3141,-0.3544,-0.3413,-0.3646,-0.43,-0.3987,-0.3987,-0.4297,-0.4183,-0.4144,-0.4212,-0.476,-0.5306,-0.5827,-0.645,-0.704,-0.748,-0.7415,-0.7391,-0.7382,-0.7355,-0.6956,-0.6389,-0.5708,-0.5179,-0.4725,-0.4161,-0.4157,-0.4124,-0.2706,-0.1222,0.0,0.0,0.0,0.0,0.0,0.0,0.0,0.0,0.0,0.0,0.0,0.0,0.0,0.0,0.0,0.0,0.0,0.0,0.0,0.0,-0.0164,-0.0593,-0.1355,-0.2188,-0.3018,-0.3851,-0.4622,-0.512,-0.519,-0.5326,-0.5395,-0.5395,-0.5395,-0.5395,-0.5395,-0.5395,-0.5395,-0.5395,-0.5395,-0.532,-0.5103,-0.4908,-0.4234,0.0,0.0,0.0,0.0,0.0,0.0,0.0,0.0,0.0,0.0,0.0,0.0,0.0,0.0,0.0,0.0,0.0,0.0,0.0,0.0,0.0,0.0,0.0,0.0,0.0,0.1496,0.1126,0.026,0.0,-0.0501,-0.1478,-0.2134,-0.2522,-0.2645,-0.2892,-0.3099,-0.3283,-0.3118,-0.3183,-0.3585,-0.3451,-0.3673,-0.43,-0.3987,-0.3987,-0.4297,-0.4179,-0.4157,-0.4253,-0.4811,-0.5363,-0.5853,-0.6528,-0.7053,-0.7484,-0.7484,-0.7484,-0.7484,-0.7484,-0.7253,-0.6791,-0.5935,-0.5428,-0.5121,-0.4426,-0.4031,-0.3656,-0.27,-0.1299,0.0,0.0,0.0,0.0,0.0,0.0,0.0,0.0,0.0,0.0,0.0,0.0,0.0,0.0,0.0,0.0,0.0,0.0,0.0,0.0,0.0,-0.0234,-0.0983,-0.1791,-0.2582,-0.3387,-0.4389,-0.5024,-0.5087,-0.5292,-0.5395,-0.5395,-0.5395,-0.5395,-0.5395,-0.5395,-0.5395,-0.5395,-0.5344,-0.5237,-0.51,-0.451,-0.3757,-0.2829,0.0,0.0,0.0,0.0,0.0,0.0,0.0,0.0,0.0,0.0,0.0,0.0,0.0,0.0,0.0,0.0,0.0,0.0,0.0,0.0,0.0,0.0,0.0,0.1748,0.1743,0.1654,0.1505,0.0428,-0.0438,-0.0875,-0.1857,-0.2561,-0.268,-0.2694,-0.2745,-0.2903,-0.3317,-0.3587,-0.3587,-0.4032,-0.4253,-0.43,-0.43,-0.43,-0.43,-0.4295,-0.4297,-0.434,-0.4942,-0.5474,-0.5939,-0.6569,-0.7092,-0.7484,-0.7484,-0.7484,-0.7484,-0.7484,-0.7484,-0.7365,-0.6086,-0.5583,-0.5467,-0.4693,-0.356,-0.2503,-0.2503,-0.1349,0.0,0.0,0.0,0.0,0.0,0.0,0.0,0.0,0.0,0.0,0.0,0.0,0.0,0.0,0.0,0.0,0.0,0.0,0.0,0.0,0.0,-0.0236,-0.0941,-0.1646,0.0,-0.3353,-0.4223,-0.4827,-0.5054,-0.5259,-0.5395,-0.5395,-0.5395,-0.5395,-0.5395,-0.5395,-0.5395,-0.5395,-0.5216,-0.5106,-0.5106,-0.3668,-0.2909,-0.2909,0.0,0.0,0.0,0.0,0.0,0.0,0.0,0.0,0.0,0.0,0.0,0.0,0.0,0.0,0.0,0.0,0.0,0.0,0.0,0.0,0.0,0.1626,0.166,0.173,0.1682,0.1406,0.0827,0.0442,-0.0121,-0.0957,-0.1723,-0.2265,-0.2583,-0.2704,-0.2941,-0.3327,-0.32,-0.3227,-0.3587,-0.3405,-0.3628,-0.43,-0.3942,-0.3942,-0.4297,-0.4236,-0.424,-0.4338,-0.5339,-0.5817,-0.5939,-0.7064,-0.7533,-0.7484,-0.7484,-0.7484,-0.7484,-0.7484,-0.7484,-0.7365,-0.6086,-0.5234,-0.4732,-0.4659,-0.3679,-0.2503,-0.2503,-0.1365,0.0,0.0,0.0,0.0,0.0,0.0,0.0,0.0,0.0,0.0,0.0,0.0,0.0,0.0,0.0,0.0,0.0,0.0,0.0,0.0,0.0,-0.0067,-0.0269,-0.0908,0.0,-0.2382,-0.3284,-0.4123,-0.4794,-0.5057,-0.5256,-0.5395,-0.5395,-0.5395,-0.5395,-0.5395,-0.5395,-0.5395,-0.5354,-0.533,-0.533,-0.382,-0.3038,0.0,0.0,0.0,0.0,0.0,0.0,0.0,0.0,0.0,0.0,0.0,0.0,0.0,0.0,0.0,0.0,0.0,0.0,0.0,0.0,0.0,0.0,0.1756,0.1786,0.1768,0.1814,0.1735,0.1398,0.1081,0.0641,-0.004,-0.096,-0.1688,-0.2029,-0.2477,-0.2967,-0.3471,-0.3323,-0.3406,-0.39,-0.3628,-0.3762,-0.43,-0.4032,-0.4032,-0.4297,-0.4249,-0.4253,-0.434,-0.5578,-0.6054,-0.5987,-0.7297,-0.772,-0.7484,-0.7484,-0.7484,0.0,0.0,0.0,0.0,0.0,-0.5043,-0.4309,-0.4389,-0.3485,-0.2271,-0.2349,-0.1254,0.0118,0.0039,0.0,0.0,0.0,0.0,0.0,0.0,0.0,0.0,0.0,0.0,0.0,0.0,0.0,0.0,0.0,0.0,0.0,0.0,0.0,0.0,0.0,-0.0639,-0.1344,-0.2013,-0.2917,-0.382,-0.4697,-0.499,-0.519,-0.5395,-0.5395,0.0,0.0,0.0,-0.5365,-0.5267,-0.5264,0.0,0.0,0.0,0.0,0.0,0.0,0.0,0.0,-0.1535,-0.1614,0.0,0.0,0.0,0.0,0.0,0.0,0.0,0.0,0.0,0.0,0.0,0.0,0.0,0.0,0.0,0.0,0.1766,0.1841,0.1881,0.2036,0.2228,0.2392,0.1882,0.1451,0.1257,0.0,-0.0909,-0.1211,-0.2113,-0.2885,-0.3414,-0.3585,0.0,0.0,0.0,-0.43,-0.43,-0.43,-0.4293,-0.4283,-0.4283,-0.4324,-0.4446,-0.5753,-0.619,-0.6048,-0.7386,-0.7772,-0.7484,-0.7484,-0.7484,-0.7484,-0.7484,-0.7403,-0.7134,-0.6009,-0.4968,-0.4118,-0.4118,0.0,0.0,-0.2117,-0.1059,0.0275,0.0079,0.0,0.0,0.0,0.0,0.0,0.011,0.0109,0.0108,0.0141,0.0137,0.0101,0.0034,0.0,0.0,0.0,0.0,0.0,0.0,0.0,0.0,0.0,-0.0572,-0.121,-0.1913,-0.2783,-0.3689,-0.4595,0.0,0.0,-0.5395,-0.5395,-0.5395,-0.5395,-0.5395,-0.533,-0.513,-0.5123,-0.5123,-0.5123,-0.3856,-0.3398,-0.3846,-0.2528,-0.2065,-0.2398,-0.2268,-0.2255,0.0,0.0,0.0,0.0,0.0,0.0,0.0,0.0,0.0,0.0,0.0,0.0,0.0,0.0,0.0,0.198,0.189,0.1877,0.1886,0.1893,0.1921,0.1999,0.1453,0.1021,0.0982,0.0275,-0.0314,-0.071,-0.1725,-0.2483,-0.2914,-0.3727,-0.421,-0.43,-0.43,-0.43,-0.43,-0.43,-0.4265,-0.4241,0.0,0.0,-0.488,-0.5581,-0.6163,-0.6592,-0.7297,-0.7545,-0.7484,-0.7484,-0.7484,-0.7484,-0.7484,-0.6861,-0.5931,-0.5699,-0.4968,-0.4118,-0.4118,-0.3136,-0.1921,-0.196,-0.0941,0.0275,0.0236,0.0118,0.0,0.0,0.0,0.0151,0.0716,0.0882,0.0877,0.0887,0.0878,0.074,0.0135,0.0,0.0,0.0,0.0,0.0,0.0,0.0,0.0,0.0,-0.0135,-0.0471,-0.121,-0.1913,-0.2783,-0.3892,-0.4528,-0.4994,-0.5362,-0.5395,-0.5395,-0.5395,-0.5395,-0.5382,-0.5351,-0.5351,-0.5351,-0.5351,-0.4588,-0.3939,-0.3424,-0.3285,-0.2932,-0.2328,-0.2364,-0.2534,0.0,0.0,0.0,0.0,0.0,0.0,0.0,0.0,0.0,0.0,0.0,0.3915,0.3771,0.0,0.2055,0.1924,0.1919,0.184,0.1701,0.1698,0.1744,0.1884,0.1594,0.1318,0.1256,0.0589,0.0039,-0.0279,-0.1195,-0.2026,-0.2729,-0.3301,-0.3807,-0.43,-0.4076,-0.4076,-0.43,-0.4034,-0.3993,-0.4214,-0.4126,-0.4415,-0.5027,-0.5632,-0.6181,-0.6755,-0.7383,-0.7608,-0.7484,-0.7484,-0.7484,-0.7484,-0.7484,-0.6707,-0.5583,-0.5583,-0.4888,-0.396,-0.396,-0.2899,-0.1607,-0.1724,-0.0667,0.0589,0.0471,0.0393,0.0313,0.0305,0.0227,0.0299,0.103,0.1156,0.1183,0.1522,0.1344,0.1008,0.0639,0.0269,0.0,0.0,0.0,0.0,0.0,0.0,0.0,0.0,0.0,-0.0269,-0.1008,-0.1678,-0.2515,-0.3556,-0.4325,-0.4927,-0.5226,-0.5326,-0.5395,-0.5395,-0.5395,-0.5395,-0.5395,-0.5395,-0.5433,-0.5508,-0.4439,-0.3855,-0.374,-0.3059,-0.2615,-0.242,-0.2648,-0.293,0.0,0.0,0.0,0.0,0.0,0.0,0.0,0.5587,0.5737,0.5762,0.4794,0.3918,0.3724,0.2688,0.1842,0.1823,0.1785,0.1717,0.1492,0.1501,0.1592,0.1795,0.1734,0.1654,0.1568,0.0902,0.0434,0.0282,-0.0536,-0.1351,-0.2122,-0.2523,-0.3096,-0.3965,-0.3742,-0.3834,-0.4324,-0.3869,-0.3823,-0.4212,-0.4061,-0.4329,-0.4964,-0.5624,-0.6181,-0.6712,-0.743,-0.7661,-0.7484,-0.7484,-0.7484,-0.7484,-0.7484,-0.6707,-0.5583,-0.5583,-0.4849,-0.3802,-0.3802,-0.2821,-0.1528,-0.1528,-0.0549,0.0668,0.0668,0.0628,0.0585,0.0606,0.0489,0.0557,0.1374,0.1459,0.1519,0.2225,0.1812,0.1243,0.1143,0.0505,0.0,0.0,0.0,0.0,0.0,0.0,0.0,0.0,0.0,-0.0202,-0.0807,-0.1478,-0.2248,-0.3186,-0.4092,-0.4761,-0.5123,-0.5292,-0.5395,-0.5395,-0.5395,-0.5395,-0.5395,-0.5395,-0.5467,-0.5586,-0.4246,-0.3712,-0.4075,-0.2697,-0.2156,-0.2392,-0.2865,-0.3262,0.8593,0.7872,0.6703,0.5759,0.5535,0.564,0.0,0.6102,0.6167,0.6286,0.5577,0.4843,0.446,0.3296,0.2294,0.1942,0.1608,0.1374,0.1331,0.1284,0.1335,0.1517,0.1431,0.1332,0.1335,0.1257,0.118,0.1143,0.0443,-0.0083,-0.0303,-0.1372,-0.2302,-0.2946,-0.3364,-0.3871,-0.4374,-0.421,-0.4169,-0.4204,-0.3993,-0.4192,-0.4737,-0.5358,-0.6012,-0.6627,-0.7281,-0.75,-0.7484,-0.7484,-0.7484,-0.7484,-0.7484,-0.6707,-0.5583,-0.5583,-0.4849,-0.3802,-0.3802,-0.3175,-0.2235,-0.1568,-0.0784,-0.0039,0.0668,0.0746,0.0584,0.0594,0.0586,0.0868,0.2191,0.2395,0.2426,0.3155,0.2649,0.1812,0.1244,0.0505,0.0,0.0,0.0,0.0,0.0,0.0,0.0,0.0,0.0,-0.0034,-0.0101,-0.0774,-0.1545,-0.2417,-0.3355,-0.4292,-0.5292,-0.5395,-0.5395,-0.5395,-0.5395,-0.5395,-0.5395,-0.5395,-0.5467,-0.5586,-0.4862,-0.4147,-0.3586,-0.3165,-0.2617,-0.1999,-0.2746,-0.3136,0.7325,0.6993,0.6396,0.5605,0.5434,0.5498,0.5778,0.5865,0.5886,0.6077,0.5123,0.4249,0.4109,0.295,0.1955,0.1721,0.1674,0.1603,0.1426,0.1511,0.1564,0.1594,0.1516,0.1423,0.1423,0.1364,0.1304,0.1282,0.1024,0.0588,0.0043,-0.0487,-0.1304,-0.2404,-0.2677,-0.3196,-0.3976,-0.3861,-0.3909,-0.421,-0.3985,-0.4172,-0.474,-0.5315,-0.6167,-0.7138,-0.7407,-0.7484,-0.7484,-0.7484,-0.7484,-0.7484,-0.7099,-0.6398,-0.5583,-0.5583,-0.4849,-0.3802,-0.3802,-0.3214,-0.2353,-0.1568,-0.0784,0.0039,0.0864,0.105,0.0957,0.0937,0.113,0.1592,0.2625,0.2952,0.3218,0.3956,0.3418,0.2547,0.1846,0.1143,0.0505,0.0067,0.0,0.0,0.0,0.0,0.0,0.0,0.0,0.0,0.0,-0.0639,-0.1646,-0.3052,-0.3556,-0.4225,-0.5296,-0.5395,-0.5395,-0.5395,-0.5395,-0.5395,-0.5395,-0.5395,-0.5467,-0.5586,-0.4446,-0.3717,-0.3511,-0.2518,-0.1999,-0.1921,-0.247,-0.2865,0.6575,0.6453,0.6282,0.5548,0.5397,0.5442,0.5649,0.5689,0.5733,0.5871,0.4936,0.4035,0.3895,0.2914,0.1983,0.1697,0.1779,0.1836,0.165,0.1712,0.1806,0.181,0.1611,0.1519,0.1568,0.14,0.1306,0.1288,0.1359,0.1098,0.0434,0.031,-0.0449,-0.1941,-0.2122,-0.273,-0.3883,-0.3772,-0.3877,-0.4206,-0.3997,-0.4105,-0.4508,-0.5254,-0.6279,-0.7484,-0.7484,-0.7484,-0.7484,-0.7484,-0.7484,-0.7446,-0.683,-0.6209,-0.5583,-0.5431,-0.4696,-0.3802,-0.3802,-0.3372,-0.2666,-0.1645,-0.0862,-0.0157,0.0982,0.1236,0.121,0.1202,0.1595,0.2163,0.2871,0.3334,0.3823,0.4556,0.3987,0.3149,0.2614,0.1745,0.0941,0.0404,0.0135,0.0,0.0,0.0,0.0,0.0,0.0,0.0,0.0,-0.0639,-0.1713,-0.3318,-0.3689,-0.4225,-0.5296,-0.5395,-0.5395,-0.5395,-0.5395,-0.5395,-0.5395,-0.5395,-0.5467,-0.5586,-0.4093,-0.3362,-0.3511,-0.2003,-0.1482,-0.1921,-0.2196,-0.2628,0.7375,0.7085,0.6834,0.5844,0.5604,0.5653,0.5835,0.588,0.5884,0.5896,0.5437,0.4855,0.4199,0.3539,0.286,0.2188,0.1973,0.1886,0.1885,0.1846,0.1856,0.2082,0.1742,0.1567,0.1762,0.1492,0.1297,0.1298,0.1488,0.1537,0.1386,0.1064,0.0181,-0.1383,-0.1938,-0.2908,-0.4342,-0.4261,-0.4214,-0.4291,-0.4026,-0.3899,-0.3972,-0.5098,-0.6279,-0.7484,-0.7484,-0.7484,-0.7484,-0.7484,-0.7484,-0.7446,-0.683,-0.6209,-0.5547,-0.4932,-0.4348,-0.3802,-0.3802,-0.3802,-0.3487,-0.1841,-0.1293,-0.094,0.0785,0.1236,0.1205,0.1213,0.168,0.2362,0.3008,0.3589,0.4161,0.4921,0.4253,0.3487,0.3453,0.2214,0.1109,0.1076,0.0505,0.0,0.0,0.0,0.0,0.0,0.0,0.0,0.0,-0.0639,-0.151,-0.2611,-0.3384,-0.4225,-0.5296,-0.5395,-0.5395,-0.5395,-0.5395,-0.5395,-0.5395,-0.5395,-0.5467,-0.5586,-0.4089,-0.3373,-0.3511,-0.1968,-0.1458,-0.1882,-0.1921,-0.2353,0.6804,0.6507,0.6337,0.5588,0.5413,0.543,0.549,0.5506,0.5539,0.5681,0.5159,0.4573,0.4126,0.3512,0.2858,0.2133,0.2181,0.2237,0.2119,0.2152,0.2158,0.2121,0.2036,0.1868,0.161,0.1415,0.1305,0.1286,0.1357,0.1383,0.1318,0.1276,0.0585,-0.0905,-0.1403,-0.2414,-0.393,-0.4139,-0.4271,-0.4297,-0.4089,-0.4367,-0.5184,-0.5542,-0.6378,-0.7484,-0.7484,-0.7484,-0.7484,-0.7484,-0.7484,-0.7407,-0.636,-0.5819,-0.5467,-0.4462,-0.3958,-0.3802,-0.3802,-0.3802,-0.3526,-0.1841,-0.1293,-0.0979,0.0785,0.1236,0.121,0.12,0.2027,0.2997,0.321,0.4009,0.4758,0.4861,0.4558,0.4056,0.3451,0.2883,0.2213,0.1276,0.0908,0.0572,0.0101,0.0,0.0,0.0,0.0,0.0,0.0,-0.0202,-0.074,-0.1675,-0.2546,-0.3449,-0.4384,-0.5057,-0.5395,-0.5395,-0.5395,-0.5395,-0.5395,-0.5395,-0.5419,-0.547,-0.4462,-0.3768,-0.3351,-0.2399,-0.1914,-0.1921,-0.2156,-0.2589,0.6453,0.6209,0.6064,0.5541,0.5345,0.5317,0.5401,0.5345,0.5329,0.5466,0.5167,0.4755,0.4377,0.384,0.324,0.2607,0.2488,0.2414,0.2219,0.2273,0.2259,0.2084,0.2033,0.1897,0.1589,0.1417,0.1298,0.1317,0.1304,0.1321,0.1321,0.1365,0.0672,-0.0896,-0.1253,-0.2208,-0.3886,-0.4148,-0.4283,-0.4253,-0.4138,-0.4682,-0.5786,-0.5786,-0.6426,-0.7484,-0.7484,-0.7484,-0.7484,-0.7484,-0.7484,-0.7365,-0.6086,-0.5583,-0.5467,-0.4229,-0.3802,-0.3802,-0.3802,-0.3802,-0.3526,-0.1841,-0.1293,-0.0979,0.0785,0.1236,0.121,0.1198,0.2206,0.3309,0.3277,0.4243,0.519,0.506,0.4827,0.4492,0.3887,0.3485,0.2848,0.1678,0.1276,0.0875,0.0135,0.0,0.0,0.0,0.0,0.0,0.0,0.0,-0.0337,-0.1207,-0.1909,-0.2778,-0.3915,-0.4619,-0.5126,-0.5395,-0.5395,-0.5395,-0.5395,-0.5395,-0.5395,-0.5395,-0.443,-0.3713,-0.3306,-0.2367,-0.1898,-0.1921,-0.2156,-0.2589,0.6317,0.6164,0.6082,0.571,0.5462,0.5353,0.5547,0.545,0.5297,0.5297,0.5458,0.5416,0.4894,0.4403,0.392,0.3452,0.2825,0.2349,0.222,0.2194,0.213,0.2013,0.1809,0.1698,0.169,0.1453,0.131,0.131,0.1376,0.139,0.139,0.1418,0.0582,-0.1253,-0.1387,-0.2326,-0.421,-0.4253,-0.4259,-0.4222,-0.4218,-0.4751,-0.5799,-0.5789,-0.6426,-0.7484,-0.7484,-0.7484,-0.7484,-0.7484,-0.7484,-0.7365,-0.6128,-0.5622,-0.5467,-0.4268,-0.3841,-0.3802,-0.3802,-0.3802,-0.3526,-0.1841,-0.1293,-0.0979,0.0785,0.1237,0.1208,0.1212,0.2216,0.3269,0.3208,0.4287,0.5395,0.5395,0.5096,0.4797,0.4797,0.3987,0.3049,0.2248,0.1545,0.0807,0.0135,0.0,0.0,0.0,0.0,0.0,0.0,0.0,-0.0303,-0.114,-0.1441,-0.221,-0.3747,-0.4151,-0.4589,-0.5292,-0.5395,-0.5395,-0.5395,-0.5395,-0.5395,-0.5395,-0.3984,-0.3271,-0.3306,-0.1929,-0.1459,-0.1882,-0.1882,-0.2314,0.57,0.5637,0.5722,0.5629,0.5551,0.5531,0.56,0.545,0.5297,0.5297,0.5333,0.5217,0.4682,0.4219,0.3727,0.3056,0.2575,0.2199,0.1983,0.199,0.1926,0.1802,0.192,0.1857,0.1519,0.158,0.159,0.1369,0.1399,0.139,0.139,0.1418,0.0852,-0.0314,-0.1029,-0.2013,-0.3224,-0.3941,-0.4287,-0.4267,-0.4204,-0.4791,-0.5853,-0.5835,-0.6426,-0.7484,-0.7484,-0.7484,-0.7484,-0.7484,-0.7484,-0.7407,-0.6637,-0.6054,-0.5506,-0.4735,-0.4192,-0.3802,-0.3802,-0.3802,-0.3526,-0.1841,-0.1293,-0.0979,0.0785,0.1291,0.1273,0.1218,0.2209,0.3274,0.3223,0.4287,0.5362,0.5223,0.509,0.4957,0.4694,0.4425,0.382,0.2382,0.1109,0.0236,0.0034,0.0,0.0,0.0,0.0,0.0,0.0,0.0,-0.0101,-0.0303,-0.1108,-0.1776,-0.2177,-0.3482,-0.4386,-0.4556,-0.5093,-0.5395,-0.5395,-0.5395,-0.5395,-0.5395,-0.4486,-0.3787,-0.3306,-0.24,-0.1757,-0.1452,-0.1764,-0.2156,0.538,0.5454,0.5628,0.5709,0.5669,0.5632,0.5713,0.5506,0.5297,0.5297,0.5297,0.5238,0.5031,0.4374,0.3732,0.3332,0.2688,0.2104,0.1847,0.183,0.1772,0.1597,0.1705,0.1675,0.141,0.1514,0.157,0.1391,0.142,0.141,0.141,0.1381,0.0987,0.0045,-0.0895,-0.2103,-0.3494,-0.403,-0.43,-0.4297,-0.4214,-0.4678,-0.5527,-0.5725,-0.6271,-0.7138,0.0,-0.7484,-0.7484,-0.7484,-0.7484,-0.7446,-0.683,-0.6209,-0.5547,-0.4932,-0.4309,-0.3802,-0.3802,-0.3802,-0.3526,-0.1841,-0.1293,-0.0979,0.0785,0.1296,0.1284,0.122,0.2219,0.3303,0.3229,0.4287,0.5362,0.5259,0.5156,0.5024,0.4761,0.4628,0.409,0.2414,0.0975,0.0,0.0,0.0,0.0,0.0,0.0,0.0,0.0,0.0,0.0,0.0,-0.0673,-0.1242,-0.1575,-0.2679,-0.3618,-0.4253,-0.4688,-0.5057,-0.5395,-0.5395,-0.5395,-0.5395,-0.4353,-0.3662,-0.3285,-0.2253,-0.1572,-0.1255,-0.1824,-0.2215,0.5297,0.547,0.5681,0.5819,0.575,0.5685,0.5819,0.5563,0.5297,0.5297,0.5297,0.5353,0.5551,0.462,0.3803,0.3855,0.2879,0.2036,0.1719,0.1674,0.1577,0.1431,0.1391,0.1391,0.1391,0.1391,0.1391,0.1391,0.1391,0.1391,0.1391,0.1391,0.0897,-0.0134,-0.0985,-0.2326,-0.43,-0.43,-0.43,-0.4297,-0.4287,-0.4579,-0.515,-0.5667,-0.6212,-0.6756,-0.7292,-0.7484,-0.7484,-0.7484,-0.7484,-0.7446,-0.6907,-0.6247,-0.5544,-0.5007,-0.4387,-0.3802,-0.3802,-0.3802,-0.3526,-0.1841,-0.1293,-0.0979,0.0785,0.1293,0.1278,0.122,0.2214,0.3287,0.3227,0.4287,0.5395,0.5395,0.5259,0.509,0.4864,0.4525,0.3854,0.2382,0.0975,0.0,0.0,0.0,0.0,0.0,0.0,0.0,0.0,0.0,0.0,0.0,-0.0303,-0.0774,-0.141,-0.1844,-0.2681,-0.4051,-0.4253,-0.4622,-0.5362,-0.5395,-0.5395,-0.5395,-0.3951,-0.3227,-0.3283,-0.1819,-0.1137,-0.1203,-0.1857,-0.2287,0.5297,0.5563,0.5811,0.5689,0.575,0.5811,0.5689,0.5474,0.5297,0.5297,0.5297,0.5353,0.5551,0.462,0.376,0.3666,0.2649,0.1768,0.1499,0.1473,0.1445,0.1387,0.1391,0.1391,0.1391,0.1391,0.1391,0.1391,0.1391,0.1391,0.1391,0.1391,0.0627,-0.1119,-0.1298,-0.2326,-0.43,-0.43,-0.43,-0.4297,-0.4687,-0.5176,-0.5773,-0.6255,-0.6778,-0.7369,-0.7446,0.0,-0.7484,-0.7484,-0.7484,-0.7484,-0.7369,-0.663,-0.5583,-0.547,-0.4732,-0.3802,-0.3802,-0.3802,-0.3526,-0.1841,-0.1293,-0.0979,0.0785,0.1279,0.1212,0.1213,0.222,0.3281,0.321,0.4287,0.5395,0.5395,0.5362,0.5263,0.4864,0.362,0.2447,0.2147,0.0975,0.0,0.0,0.0,0.0,0.0,0.0,0.0,0.0,0.0,0.0,0.0,-0.0303,-0.0539,-0.0674,-0.1545,-0.248,-0.3349,-0.3951,-0.4622,-0.5362,-0.5395,-0.5395,-0.5395,-0.3951,-0.3227,-0.3283,-0.1819,-0.1137,-0.1203,-0.1348,-0.1772,0.5297,0.5587,0.5843,0.5657,0.575,0.5839,0.5653,0.545,0.5297,0.5297,0.5297,0.5353,0.5551,0.4925,0.4346,0.4277,0.3205,0.2271,0.2042,0.1669,0.1401,0.1387,0.1391,0.1391,0.1391,0.1391,0.1391,0.1391,0.1391,0.1391,0.1391,0.1391,0.0538,-0.1342,-0.1387,-0.2326,-0.43,-0.43,-0.43,-0.4297,-0.4853,-0.5212,-0.5482,-0.6301,-0.683,-0.7061,-0.7369,-0.7484,-0.7484,-0.7484,-0.7484,-0.7484,-0.7484,-0.6707,-0.5583,-0.5583,-0.4849,-0.3802,-0.3802,-0.3802,-0.3526,-0.1841,-0.1293,-0.0977,0.0735,0.1224,0.1202,0.1156,0.219,0.3297,0.3206,0.4287,0.5395,0.5395,0.5229,0.503,0.4831,0.3387,0.2114,0.2114,0.0975,0.0,0.0,0.0,0.0,0.0,0.0,0.0,0.0,0.0,0.0,0.0,-0.0236,-0.0438,-0.0506,-0.1077,-0.1949,-0.3115,-0.3518,-0.422,-0.5359,-0.5395,-0.5395,-0.5395,-0.3951,-0.3204,-0.3247,-0.1815,-0.1105,-0.1154,-0.1329,-0.1668,0.5297,0.5559,0.5787,0.5575,0.5693,0.5783,0.5571,0.5422,0.5297,0.5297,0.5329,0.5434,0.564,0.5254,0.4948,0.5011,0.3834,0.2874,0.2702,0.1953,0.1445,0.1387,0.1391,0.1391,0.1391,0.1391,0.1391,0.1391,0.1391,0.1391,0.1391,0.1391,0.0538,-0.1342,-0.1381,-0.2316,-0.43,-0.4281,-0.4281,-0.4297,-0.5078,-0.5352,-0.5233,-0.6455,-0.6942,-0.683,-0.7292,-0.7484,-0.7484,-0.7484,-0.7484,-0.7484,-0.7484,-0.6707,-0.5583,-0.5583,-0.4849,-0.3802,-0.3802,-0.3802,-0.3526,-0.1841,-0.1293,-0.0976,0.0691,0.1213,0.1192,0.1144,0.2169,0.3271,0.3202,0.4287,0.5395,0.5359,0.506,0.4797,0.4764,0.3353,0.2114,0.2114,0.0975,0.0,0.0,0.0,0.0,0.0,0.0,0.0,0.0,0.0,0.0,0.0,-0.0303,-0.0573,-0.0707,-0.1078,-0.1883,-0.3351,-0.3451,-0.4018,-0.5359,-0.5395,-0.5395,-0.5395,-0.3951,-0.3215,-0.3182,-0.1779,-0.1109,-0.1109,-0.1379,-0.157,0.5297,0.5466,0.5567,0.5365,0.5478,0.5563,0.5361,0.5309,0.5297,0.5297,0.545,0.5644,0.5827,0.5426,0.5144,0.5316,0.4056,0.3049,0.2898,0.2166,0.162,0.1431,0.1391,0.1391,0.1391,0.1391,0.1391,0.1391,0.1391,0.1391,0.1391,0.1391,0.0538,-0.1342,-0.1363,-0.2284,-0.4297,-0.4224,-0.4224,-0.4297,-0.551,-0.5987,-0.5859,-0.7149,-0.7619,-0.7407,-0.7484,-0.7484,0.0,-0.7484,-0.7484,-0.7484,-0.7484,-0.6707,-0.5583,-0.5583,-0.4849,-0.3802,-0.3802,-0.3802,-0.3526,-0.1841,-0.1293,-0.0979,0.0783,0.1253,0.1206,0.1201,0.217,0.3192,0.3218,0.4287,0.5359,0.5156,0.496,0.4764,0.4661,0.3284,0.2114,0.2114,0.0975,0.0,0.0,0.0,0.0,0.0,0.0,0.0,0.0,0.0,0.0,0.0,-0.074,-0.1276,-0.1476,-0.2283,-0.3188,-0.4154,-0.4187,-0.4556,-0.5362,-0.5395,-0.5395,-0.5395,-0.3951,-0.3215,-0.3182,-0.1779,-0.1109,-0.1109,-0.1143,-0.1332,0.5297,0.5454,0.5543,0.5341,0.5454,0.5539,0.5337,0.5297,0.5329,0.5458,0.5535,0.5697,0.602,0.5911,0.5689,0.5456,0.4902,0.4316,0.388,0.3476,0.3042,0.2367,0.2312,0.2062,0.148,0.1391,0.1391,0.1391,0.1391,0.1391,0.1391,0.1391,0.0538,-0.1342,-0.1316,-0.2267,-0.4224,-0.4134,-0.4134,-0.4266,-0.5607,-0.6114,-0.5945,-0.7289,-0.7756,-0.7484,-0.7484,-0.7484,0.0,-0.7484,-0.7484,-0.7484,-0.7484,-0.698,-0.617,-0.5741,-0.5082,-0.4272,-0.3919,-0.3802,-0.3606,-0.2391,-0.1685,-0.0977,0.0733,0.1213,0.1189,0.1208,0.1878,0.2715,0.316,0.4341,0.5395,0.5292,0.5027,0.4797,0.4728,0.3353,0.2114,0.2114,0.0975,0.0,0.0,0.0,0.0,0.0,0.0,0.0,0.0,0.0,-0.0168,-0.0605,-0.0975,-0.1244,-0.1411,-0.2283,-0.3188,-0.4059,-0.4223,-0.4622,-0.5362,-0.5395,-0.5395,-0.5395,-0.3951,-0.3215,-0.3182,-0.1779,-0.1109,-0.1109,-0.1109,-0.1184,0.4794,0.4902,0.4961,0.4823,0.5046,0.526,0.5134,0.5262,0.5454,0.5657,0.5734,0.5783,0.5876,0.593,0.5762,0.5186,0.5136,0.4997,0.4513,0.4407,0.4147,0.349,0.3106,0.2644,0.1928,0.1569,0.1391,0.1391,0.1391,0.1391,0.1391,0.1391,0.0672,-0.094,-0.1178,-0.2071,-0.3736,-0.3912,-0.4081,-0.4216,-0.5585,-0.6157,-0.5945,-0.7304,-0.7772,-0.7484,-0.7484,-0.7484,0.0,-0.7484,-0.7484,-0.7484,-0.7484,-0.7138,-0.6563,-0.6051,-0.5395,-0.4623,-0.4231,-0.3958,-0.3645,-0.2785,-0.196,-0.1015,0.0423,0.1028,0.1207,0.1186,0.1833,0.2686,0.3423,0.4453,0.5292,0.5226,0.4964,0.4731,0.4664,0.332,0.2114,0.2114,0.0975,0.0,0.0,0.0,0.0,0.0,0.0,0.0,0.0,-0.0202,-0.0539,-0.1042,-0.1478,-0.1813,-0.2014,-0.2818,-0.3623,-0.4361,-0.4558,-0.4858,-0.5395,-0.5395,-0.5395,-0.5395,-0.3951,-0.3215,-0.3182,-0.1779,-0.1109,-0.1109,-0.1109,-0.1109,0.3627,0.3627,0.3627,0.3627,0.4073,0.4556,0.4668,0.5168,0.5661,0.5848,0.6053,0.5982,0.5255,0.5279,0.5156,0.4444,0.449,0.4614,0.4604,0.4579,0.4596,0.4579,0.358,0.2911,0.2867,0.1973,0.1391,0.1391,0.1391,0.1391,0.1391,0.1391,0.0987,0.0,-0.0774,-0.1699,-0.2689,-0.3569,-0.4081,-0.4216,-0.5542,-0.6114,-0.5942,-0.7233,-0.7698,-0.7484,-0.7484,-0.7484,0.0,-0.7484,-0.7484,-0.7484,-0.7484,-0.7138,-0.6602,-0.6602,-0.5786,-0.4701,-0.4701,-0.4309,-0.3645,-0.2785,-0.196,-0.1136,-0.0235,0.0578,0.1212,0.1211,0.2222,0.3436,0.4118,0.4688,0.5057,0.4861,0.4694,0.4561,0.4331,0.3155,0.2114,0.2114,0.0975,0.0,0.0,0.0,0.0,0.0,0.0,0.0,0.0,-0.0639,-0.1076,-0.1109,-0.2347,-0.3351,-0.3723,-0.4395,-0.4964,-0.5362,-0.5395,-0.5395,-0.5395,-0.5395,-0.5395,-0.5395,-0.3951,-0.3215,-0.3182,-0.1779,-0.1109,-0.1109,-0.1109,-0.1109,0.3597,0.3597,0.3597,0.3597,0.3775,0.3964,0.4001,0.4198,0.4424,0.4553,0.4646,0.4669,0.4627,0.4691,0.4509,0.3842,0.4323,0.4532,0.3951,0.4312,0.4351,0.354,0.253,0.1883,0.1883,0.1569,0.1391,0.1391,0.1391,0.1391,0.1391,0.1391,0.0987,0.0045,-0.0829,-0.1724,-0.2689,-0.3569,-0.4081,-0.4216,-0.5464,-0.5987,-0.5942,-0.7233,-0.7698,-0.7484,-0.7484,-0.7484,-0.7484,-0.7484,-0.7484,-0.7484,-0.7484,-0.7369,-0.7176,-0.6756,-0.6054,-0.5237,-0.4854,-0.4309,-0.3763,-0.3489,-0.2429,-0.1254,-0.0979,0.0117,0.1273,0.123,0.1881,0.2737,0.3313,0.398,0.4566,0.4994,0.4927,0.4789,0.4718,0.3391,0.2221,0.2228,0.1035,0.0,0.0,0.0,0.0,0.0,0.0,-0.0168,-0.0673,-0.1026,-0.1578,-0.2453,-0.3001,-0.3353,-0.3391,-0.4259,-0.4864,-0.4997,-0.5263,-0.5395,-0.5395,-0.5395,-0.5395,-0.5395,-0.4456,-0.3718,-0.3182,-0.2248,-0.1545,-0.1109,-0.1109,-0.1109,0.2935,0.2935,0.2916,0.2949,0.3149,0.3394,0.3447,0.3668,0.3937,0.4084,0.4142,0.4107,0.3968,0.3917,0.3659,0.2993,0.3573,0.3966,0.3508,0.4076,0.413,0.3024,0.2356,0.1838,0.1436,0.1391,0.1391,0.1391,0.1391,0.1385,0.1418,0.1418,0.1104,0.0526,-0.0648,-0.155,-0.2169,-0.3399,-0.4081,-0.4216,-0.5383,-0.5948,-0.5942,-0.7126,-0.7629,-0.7484,-0.7484,-0.7484,0.0,-0.7484,-0.7484,-0.7484,-0.7484,-0.7484,-0.7446,-0.7061,-0.6363,-0.5544,-0.5162,-0.4501,-0.3802,-0.3802,-0.2665,-0.1175,-0.051,0.0432,0.1286,0.1123,0.1607,0.2246,0.2475,0.3011,0.3627,0.4027,0.3996,0.3853,0.3853,0.28,0.1856,0.1851,0.0852,0.0,0.0,0.0,0.0,0.0,0.0,-0.027,-0.1057,-0.1455,-0.2094,-0.3218,-0.3617,-0.3779,-0.3682,-0.4384,-0.4831,-0.4894,-0.5226,-0.5395,-0.5395,-0.5395,-0.5395,-0.5395,-0.4688,-0.3951,-0.3182,-0.2213,-0.1511,-0.1109,-0.1109,-0.1109,0.0,0.18,0.1811,0.1896,0.2323,0.2783,0.2987,0.3476,0.0,0.4107,0.4185,0.4023,0.3225,0.3004,0.2724,0.2026,0.2494,0.2991,0.3183,0.373,0.3761,0.2897,0.2778,0.2419,0.148,0.1391,0.1391,0.1391,0.1391,0.1422,0.1392,0.139,0.1377,0.1307,-0.0336,-0.1229,-0.13,-0.31,-0.4079,-0.4204,-0.5328,-0.5892,-0.5924,-0.701,-0.7484,0.0,-0.7484,-0.7484,0.0,-0.7484,-0.7484,-0.7484,-0.7484,-0.7484,-0.7484,-0.7484,-0.6707,-0.5583,-0.5583,-0.481,-0.3763,-0.3645,-0.2585,-0.0979,0.0746,0.1296,0.1251,0.0991,0.1401,0.1884,0.1651,0.197,0.2372,0.2408,0.2265,0.2122,0.2122,0.1608,0.1097,0.1099,0.0511,0.0,0.0,0.0,0.0,0.0,0.0,-0.0342,-0.1261,-0.1933,-0.2658,-0.3581,-0.4192,-0.4514,-0.4506,-0.4667,-0.4894,-0.5054,-0.5292,-0.5395,-0.5395,-0.5395,-0.5395,-0.5395,-0.4622,-0.3885,-0.3182,-0.1779,-0.1109,-0.1109,-0.1109,-0.1109,0.185,0.0,0.1811,0.1896,0.2035,0.2216,0.0,0.2491,0.2582,0.2482,0.2614,0.2584,0.2197,0.2221,0.2231,0.2028,0.2142,0.2233,0.2162,0.2106,0.1993,0.1791,0.1749,0.1659,0.1436,0.1391,0.1391,0.1391,0.1391,0.1422,0.1392,0.139,0.1377,0.1307,-0.0331,-0.1242,-0.1313,-0.3076,-0.4004,-0.4067,-0.5246,-0.5835,-0.5869,-0.6997,-0.7484,-0.7484,-0.7484,0.0,-0.7484,-0.7484,-0.7484,-0.7484,-0.7484,-0.7484,-0.7484,-0.7484,-0.6707,-0.5583,-0.5583,-0.481,-0.3606,-0.2311,-0.1606,-0.1019,0.051,0.1139,0.1251,0.0991,0.1036,0.12,0.147,0.1671,0.1886,0.2384,0.2424,0.2424,0.2424,0.1783,0.1243,0.1267,0.0561,0.0,0.0,0.0,0.0,0.0,0.0,-0.0502,-0.1874,-0.2276,-0.2931,-0.4139,-0.4498,-0.4608,-0.4512,-0.4667,-0.4827,-0.4861,-0.5196,-0.5395,-0.5395,-0.5395,-0.5395,-0.5395,-0.412,-0.3382,-0.3182,-0.1779,-0.1109,-0.1109,-0.1109,-0.1109,0.1834,0.186,0.1927,0.2016,0.2063,0.2103,0.2132,0.2183,0.2164,0.2059,0.2086,0.2045,0.1864,0.1832,0.1848,0.1845,0.1769,0.1829,0.2192,0.2138,0.2106,0.2106,0.2106,0.192,0.146,0.1414,0.1365,0.1352,0.1352,0.1339,0.1352,0.135,0.1337,0.1307,0.004,-0.0853,-0.1302,-0.3077,-0.3952,-0.4034,-0.5243,-0.5786,-0.5824,-0.6978,-0.7484,-0.7484,-0.7484,0.0,-0.7484,-0.7484,-0.7484,-0.7484,-0.7484,-0.7484,-0.7484,-0.7484,-0.6707,-0.5583,-0.5583,-0.481,-0.3526,-0.1841,-0.1371,-0.1137,0.0432,0.0943,0.094,0.0696,0.0622,0.0665,0.0772,0.0854,0.0941,0.1293,0.1371,0.1371,0.1371,0.1009,0.0695,0.0704,0.0307,0.0,0.0,0.0,0.0,0.0,0.0,-0.0585,-0.2179,-0.2471,-0.3078,-0.458,-0.473,-0.4711,-0.4643,-0.4845,-0.4952,-0.4894,-0.5199,-0.5395,-0.5395,-0.5395,-0.5395,-0.5395,-0.3951,-0.3215,-0.3182,-0.1779,-0.1109,-0.1109,-0.1109,-0.1109,0.1705,0.1849,0.1989,0.2138,0.2174,0.2201,0.2183,0.2191,0.2157,0.2131,0.2036,0.1922,0.1833,0.1647,0.1556,0.1648,0.1482,0.1597,0.2466,0.2614,0.2689,0.2689,0.2681,0.2347,0.148,0.1386,0.1373,0.1307,0.1305,0.1293,0.1304,0.1303,0.1288,0.1298,0.047,-0.0399,-0.1288,-0.2895,-0.3796,-0.3993,-0.5208,-0.5756,-0.5793,-0.6967,-0.7484,-0.7484,0.0,0.0,-0.7484,-0.7484,-0.7484,-0.7484,-0.7484,-0.7484,-0.7484,-0.7484,-0.6707,-0.5583,-0.5389,-0.4654,-0.3565,-0.2036,-0.1567,-0.1333,0.0157,0.0589,0.051,0.0314,0.0275,0.0236,0.0039,0.0,0.0,0.0,0.0,0.0,0.0,0.0,0.0,0.0,0.0,0.0,0.0,0.0,0.0,0.0,0.0,-0.0594,-0.2269,-0.2502,-0.313,-0.4784,-0.4858,-0.4795,-0.4833,-0.5048,-0.5188,-0.5099,-0.5344,-0.5453,-0.5429,-0.5405,-0.5395,-0.5395,-0.3951,-0.3215,-0.3182,-0.1779,-0.1109,-0.1109,-0.1109,-0.1109,0.1347,0.1588,0.1875,0.1989,0.211,0.219,0.22,0.206,0.1931,0.1803,0.1747,0.168,0.1444,0.1508,0.1546,0.1469,0.1428,0.1456,0.1604,0.1611,0.1614,0.1614,0.1633,0.157,0.1434,0.1368,0.131,0.1306,0.1305,0.1293,0.1304,0.1303,0.1288,0.1298,0.047,-0.0432,-0.1307,-0.2251,-0.3081,-0.3845,-0.504,-0.5613,-0.5691,-0.6911,-0.7484,-0.7484,0.0,-0.7484,-0.7484,-0.7484,-0.7484,-0.7484,-0.7484,-0.7484,-0.7484,-0.7484,-0.6707,-0.5467,-0.4421,-0.3958,-0.3645,-0.2857,-0.2115,-0.1489,-0.0823,-0.0157,0.0314,0.0118,0.0157,0.0236,0.0039,0.0,0.0,0.0,0.0,0.0,0.0,0.0,0.0,0.0,0.0,0.0,0.0,0.0,0.0,0.0,0.0,-0.0621,-0.2294,-0.2489,-0.3091,-0.4679,-0.4806,-0.4871,-0.5052,-0.5158,-0.5301,-0.558,-0.5669,-0.5681,-0.5559,-0.5463,-0.5395,-0.5395,-0.3951,-0.3215,-0.3182,-0.1779,-0.1109,-0.1109,-0.1109,-0.1109,0.1105,0.1179,0.1143,0.1175,0.1248,0.1291,0.1291,0.117,0.1056,0.0998,0.1303,0.1553,0.1417,0.1417,0.1428,0.1421,0.1415,0.1569,0.2152,0.2196,0.2187,0.2161,0.2139,0.1936,0.1388,0.1331,0.1316,0.13,0.1299,0.1293,0.1319,0.1318,0.1311,0.1297,0.0903,0.0039,-0.1293,-0.1685,-0.2508,-0.3802,-0.5004,-0.5583,-0.5661,-0.6899,-0.7484,-0.7484,0.0,-0.7484,-0.7484,-0.7484,-0.7484,-0.7484,-0.7484,-0.7484,-0.7403,-0.6745,-0.6086,-0.5428,-0.4229,-0.3802,-0.3684,-0.3013,-0.231,-0.1646,-0.1058,-0.0431,0.0118,0.0039,0.0079,0.0118,0.0039,0.0,0.0,0.0,0.0,0.0,0.0,0.0,0.0,0.0,0.0,0.0,0.0,0.0,0.0,0.0,0.0,-0.0588,-0.227,-0.2503,-0.3117,-0.4745,-0.4895,-0.5007,-0.5193,-0.533,-0.5523,-0.5725,-0.5765,-0.5739,-0.5596,-0.5556,-0.5481,-0.5395,-0.3951,-0.3215,-0.3182,-0.1779,-0.1109,-0.1109,-0.1109,-0.1109,0.0708,0.0666,0.0516,0.0487,0.0453,0.0372,0.0226,0.0111,0.0109,0.0295,0.0749,0.1178,0.1422,0.1362,0.1338,0.1382,0.1415,0.1659,0.2419,0.2544,0.2519,0.2478,0.2452,0.2152,0.1388,0.1296,0.1282,0.1298,0.1296,0.1296,0.1296,0.1296,0.1296,0.1296,0.1296,0.0471,-0.1293,-0.1293,-0.2155,-0.3802,-0.4888,-0.547,-0.5622,-0.6784,-0.7369,-0.7484,-0.7484,-0.7484,-0.7484,-0.7484,-0.7484,-0.7484,-0.7484,-0.7484,-0.7365,-0.6086,-0.5583,-0.5428,-0.4229,-0.3841,-0.3802,-0.3327,-0.2623,-0.1882,-0.1409,-0.0666,0.0,0.0,0.0,0.0,0.0,0.0,0.0,0.0,0.0,0.0,0.0,0.0,0.0,0.0,0.0,0.0,0.0,0.0,0.0,0.0,0.0,-0.0549,-0.2035,-0.2387,-0.3051,-0.4543,-0.4898,-0.5093,-0.5362,-0.5598,-0.5816,-0.5925,-0.5874,-0.5806,-0.5698,-0.5627,-0.5535,-0.545,-0.3966,-0.3215,-0.3182,-0.1779,-0.1109,-0.1109,-0.1109,-0.1109,-0.0029,0.0154,0.0325,0.04,0.0275,-0.0036,-0.0673,-0.0889,-0.0774,-0.0039,0.0,0.0192,0.1125,0.1344,0.1385,0.1389,0.1415,0.1436,0.148,0.1499,0.1522,0.152,0.1425,0.1389,0.1303,0.1317,0.1299,0.1296,0.1296,0.1296,0.1296,0.1296,0.1296,0.1296,0.1296,0.0471,-0.1293,-0.1293,-0.2155,-0.3802,-0.4465,-0.5046,-0.5622,-0.6325,-0.6984,-0.7484,-0.7484,-0.7484,-0.7484,-0.7484,-0.7484,-0.7484,-0.7484,-0.7484,-0.7365,-0.6086,-0.5583,-0.5428,-0.4229,-0.3921,-0.4116,-0.4229,-0.3327,-0.2195,-0.2348,-0.1254,0.0,0.0,0.0,0.0,0.0,0.0,0.0,0.0,0.0,0.0,0.0,0.0,0.0,0.0,0.0,0.0,0.0,0.0,0.0,0.0,0.0,-0.0353,-0.1254,-0.2035,-0.2854,-0.3793,-0.4543,-0.5171,-0.5559,-0.5986,-0.6251,-0.6269,-0.6091,-0.5973,-0.5959,-0.5735,-0.5586,-0.5576,-0.4004,-0.3215,-0.3182,-0.1779,-0.1109,-0.1109,-0.1109,-0.1109,-0.0256,-0.0546,-0.0905,-0.0816,-0.1304,-0.1781,-0.1606,-0.1381,-0.1275,-0.162,-0.1314,-0.0705,0.0296,0.0988,0.139,0.139,0.1415,0.1384,0.141,0.1397,0.1376,0.134,0.1316,0.1295,0.1316,0.1303,0.1296,0.1296,0.1279,0.1237,0.1295,0.1278,0.1277,0.1295,0.1296,0.0706,-0.047,-0.1019,-0.1881,-0.3018,-0.4153,-0.5007,-0.5622,-0.6286,-0.6945,-0.7484,-0.7484,-0.7484,-0.7476,-0.7366,-0.7387,-0.7484,-0.7484,-0.7484,-0.7365,-0.6086,-0.5583,-0.5428,-0.4229,-0.3843,-0.396,-0.4307,-0.3327,-0.2078,-0.2387,-0.1332,0.0,0.0,0.0,0.0,0.0,0.0,0.0,0.0,0.0,0.0,0.0,0.0,0.0,0.0,0.0,0.0,0.0,0.0,0.0,0.0,0.0,-0.0314,-0.1176,-0.1996,-0.2815,-0.3713,-0.4735,-0.5443,-0.5598,-0.6028,-0.63,-0.63,-0.6115,-0.5949,-0.5891,-0.5694,-0.5336,-0.48,-0.3739,-0.2982,-0.2514,-0.1577,-0.1109,-0.1109,-0.1109,-0.1109,-0.0684,-0.1212,-0.1809,-0.1727,-0.2128,-0.2484,-0.2401,-0.2208,-0.2207,-0.2689,-0.2048,-0.1156,-0.0213,0.051,0.1064,0.1319,0.1388,0.1356,0.138,0.1368,0.1348,0.1307,0.1286,0.1266,0.1284,0.1273,0.1267,0.1267,0.1209,0.1206,0.1266,0.1209,0.1211,0.1281,0.1281,0.0857,0.0,-0.0862,-0.1685,-0.2511,-0.3802,-0.4851,-0.5622,-0.6046,-0.6641,-0.7403,-0.7403,-0.7403,-0.7399,-0.7334,-0.7374,-0.7484,-0.7484,-0.7484,-0.7365,-0.6086,-0.5583,-0.5428,-0.4309,-0.3919,-0.4036,-0.4384,-0.36,-0.2506,-0.2504,-0.1528,-0.0353,-0.0079,0.0,0.0,0.0,0.0,0.0,0.0,0.0,0.0,0.0,0.0,0.0,0.0,0.0,0.0,0.0,0.0,0.0,0.0,0.0,-0.0196,-0.0824,-0.1605,-0.2465,-0.3402,-0.4263,-0.4932,-0.5282,-0.5673,-0.6022,-0.63,-0.6115,-0.6006,-0.5949,-0.5551,-0.5052,-0.4435,-0.3408,-0.2637,-0.2114,-0.1411,-0.1109,-0.1109,-0.1109,-0.1109,-0.1504,-0.1788,-0.211,-0.2172,-0.1854,-0.1821,-0.2934,-0.3555,-0.366,-0.2879,-0.1961,-0.1043,-0.0245,-0.0041,0.0284,0.118,0.1286,0.1305,0.1305,0.128,0.1302,0.1302,0.1248,0.1211,0.1211,0.1184,0.1203,0.1203,0.1203,0.1203,0.1203,0.1203,0.1217,0.1211,0.1211,0.0803,0.0,-0.0861,-0.1684,-0.2508,-0.337,-0.4421,-0.5577,-0.545,-0.6067,-0.7187,-0.7187,-0.7187,-0.7203,-0.7411,-0.7484,-0.748,-0.7484,-0.7484,-0.7365,-0.6086,-0.5583,-0.5467,-0.4467,-0.4233,-0.4423,-0.4621,-0.4304,-0.3636,-0.2776,-0.1957,-0.1136,-0.0275,0.0,0.0,0.0,0.0,0.0,0.0,0.0,0.0,0.0,0.0,0.0,0.0,0.0,0.0,0.0,0.0,0.0,0.0,0.0,0.0,0.0,-0.0784,-0.1684,-0.2701,-0.2974,-0.3521,-0.4608,-0.4885,-0.5356,-0.6222,-0.6077,-0.6064,-0.6289,-0.5342,-0.4762,-0.4679,-0.3044,-0.2174,-0.208,-0.1412,-0.1109,-0.1109,-0.1109,-0.1109,-0.1415,-0.1819,-0.224,-0.2536,-0.2787,-0.3083,-0.3421,-0.3151,-0.3007,-0.3489,-0.2417,-0.131,-0.1057,0.0041,0.1017,0.1262,0.1286,0.1299,0.1319,0.129,0.1303,0.1241,0.1204,0.1217,0.1217,0.1208,0.1203,0.1203,0.1147,0.1144,0.1202,0.1146,0.1149,0.1216,0.1217,0.0851,0.0074,-0.0781,-0.1599,-0.2307,-0.3166,-0.4056,-0.4917,-0.526,-0.5784,-0.652,-0.6889,-0.7106,-0.7203,-0.7411,-0.7411,-0.7313,-0.7435,-0.7484,-0.7365,-0.6086,-0.5583,-0.5467,-0.4467,-0.4157,-0.4233,-0.4584,-0.4151,-0.3522,-0.3441,-0.2426,-0.1254,-0.098,-0.0471,0.0,0.0,0.0,0.0,0.0,0.0,0.0,0.0,0.0,0.0,0.0,0.0,0.0,0.0,0.0,0.0,0.0,0.0,-0.0235,-0.0824,-0.1137,-0.1684,-0.2701,-0.2974,-0.3288,-0.3756,-0.4027,-0.4494,-0.5318,-0.4815,-0.4696,-0.522,-0.4873,-0.4135,-0.2978,-0.2453,-0.1952,-0.1384,-0.1211,-0.1097,-0.1109,-0.1109,-0.121,-0.1829,-0.23,-0.2753,-0.3002,-0.3336,-0.3598,-0.3673,-0.3318,-0.3172,-0.3879,-0.2887,-0.1785,-0.1462,-0.0202,0.0882,0.1244,0.129,0.1247,0.1269,0.1279,0.1252,0.1196,0.1167,0.1149,0.1149,0.1173,0.1165,0.1165,0.1113,0.1111,0.1165,0.1113,0.1117,0.1147,0.1149,0.0974,0.0546,-0.0618,-0.1417,-0.1818,-0.2951,-0.3726,-0.4142,-0.4904,-0.5545,-0.61,-0.6663,-0.6984,-0.7131,-0.7309,-0.7322,-0.7207,-0.7415,-0.7484,-0.7365,-0.6167,-0.5702,-0.5586,-0.4659,-0.435,-0.4389,-0.4701,-0.4467,-0.3995,-0.3832,-0.309,-0.2152,-0.1488,-0.0941,-0.0432,-0.0079,0.0,0.0,0.0,0.0,0.0,0.0,0.0,0.0,0.0,0.0,0.0,0.0,0.0,0.0,0.0,0.0,-0.0196,-0.0706,-0.0863,-0.1176,-0.1842,-0.2116,-0.243,-0.2978,-0.3171,-0.3638,-0.4457,-0.4066,-0.3846,-0.3868,-0.3814,-0.3321,-0.2328,-0.1996,-0.1571,-0.1139,-0.1127,-0.1112,-0.1093,-0.1115,-0.121,-0.2488,-0.2948,-0.3375,-0.3475,-0.3569,-0.3658,-0.3773,-0.3814,-0.3899,-0.395,-0.3195,-0.2256,-0.1532,-0.0554,0.035,0.117,0.1226,0.1208,0.1208,0.1181,0.1198,0.1198,0.1136,0.1117,0.1117,0.1092,0.1109,0.1109,0.1109,0.1109,0.1109,0.1109,0.1088,0.1116,0.1117,0.1095,0.1086,-0.0433,-0.1227,-0.1299,-0.2784,-0.3432,-0.3422,-0.4466,-0.5259,-0.5906,-0.6462,-0.6808,-0.6975,-0.7127,-0.7175,-0.7203,-0.7399,-0.7468,-0.7326,-0.6286,-0.586,-0.5747,-0.4971,-0.4701,-0.474,-0.4937,-0.5018,-0.4859,-0.4146,-0.3869,-0.348,-0.1957,-0.141,-0.1136,-0.0314,-0.0079,0.0,0.0,0.0,0.0,0.0,0.0,0.0,0.0,0.0,0.0,0.0,0.0,0.0,0.0,0.0,0.0,0.0,-0.0157,-0.0393,-0.0589,-0.0786,-0.1295,-0.2314,-0.2393,-0.2743,-0.3638,-0.3597,-0.3248,-0.2511,-0.2511,-0.2485,-0.2391,-0.1595,-0.1201,-0.1207,-0.114,-0.1089,-0.1085,-0.109,-0.1143,-0.2363,-0.2729,-0.302,-0.3387,-0.3618,-0.372,-0.3667,-0.3671,-0.3712,-0.3803,-0.2653,-0.1534,-0.1343,-0.0075,0.1,0.1186,0.1217,0.1213,0.1213,0.115,0.1131,0.1131,0.1104,0.1085,0.1085,0.1113,0.1109,0.1109,0.1109,0.1109,0.1109,0.1109,0.1113,0.1085,0.1085,0.0816,0.0274,-0.065,-0.1402,0.0,-0.2838,-0.3241,-0.3258,-0.4018,-0.4831,-0.5707,-0.6411,-0.6735,-0.6784,-0.6971,-0.7094,-0.7191,-0.7265,-0.7173,-0.6942,-0.617,-0.5705,-0.5359,-0.4854,-0.4701,-0.474,-0.4937,-0.5018,-0.4976,-0.4779,-0.4304,-0.3713,-0.3361,-0.2309,-0.1254,-0.1058,-0.051,0.0,0.0,0.0,0.0,0.0,0.0,0.0,0.0,0.0,0.0,0.0,0.0,0.0,0.0,0.0,0.0,0.0,-0.0157,-0.0393,-0.0589,-0.0786,-0.1061,-0.1532,-0.1571,-0.1923,-0.2743,-0.2196,-0.204,-0.247,-0.2511,-0.2192,-0.1559,-0.1364,-0.1271,-0.1202,-0.1172,-0.1144,-0.1085,-0.109,-0.1412,-0.2634,-0.2923,-0.3151,-0.3429,-0.3569,-0.3624,-0.3577,-0.3267,-0.3129,-0.3551,-0.2622,-0.1632,-0.1298,-0.0184,0.0802,0.113,0.119,0.1144,0.1144,0.1119,0.1099,0.1099,0.1085,0.1109,0.1109,0.1109,0.1109,0.1109,0.1109,0.1109,0.1109,0.1109,0.1109,0.1109,0.1109,0.0908,0.0538,-0.0571,-0.1276,-0.1679,-0.2721,-0.3192,-0.3228,-0.3818,-0.4656,-0.562,-0.6004,-0.6315,-0.6566,-0.6788,-0.6887,-0.6989,-0.7339,-0.7198,-0.6722,-0.6489,-0.598,-0.5401,-0.4976,-0.4859,-0.4859,-0.4976,-0.5018,-0.5018,-0.5018,-0.4701,-0.4304,-0.391,-0.3168,-0.2309,-0.1528,-0.098,-0.051,-0.0118,0.0,0.0,0.0,0.0,0.0,0.0,0.0,0.0,0.0,0.0,0.0,0.0,0.0,0.0,0.0,-0.0275,-0.0471,-0.0589,-0.0904,-0.1139,-0.1296,-0.1296,-0.1492,-0.1884,-0.1532,-0.1492,-0.1923,-0.1923,-0.1727,-0.1296,-0.1296,-0.1288,-0.1234,-0.1225,-0.1194,-0.1142,-0.1131,-0.1379,-0.2931,-0.3189,-0.3401,-0.3473,-0.3499,-0.3459,-0.3334,-0.2822,-0.2528,-0.2986,-0.2524,-0.1843,-0.13,-0.0504,0.0323,0.1079,0.1129,0.1113,0.1113,0.1091,0.1109,0.1109,0.1105,0.107,0.1109,0.1104,0.1104,0.1109,0.1109,0.1109,0.1109,0.1109,0.1109,0.1109,0.1109,0.1109,0.1109,-0.0235,-0.0975,-0.1109,-0.252,-0.3192,-0.3226,-0.3661,-0.4392,-0.5319,-0.5517,-0.5851,-0.6296,-0.6549,-0.6698,-0.6858,-0.7476,-0.7233,-0.6604,-0.6775,-0.6269,-0.5443,-0.5132,-0.5018,-0.5018,-0.5018,-0.5018,-0.5018,-0.5018,-0.5018,-0.4859,-0.4185,-0.391,-0.348,-0.2074,-0.1528,-0.1136,-0.0392,-0.0118,0.0,0.0,0.0,0.0,0.0,0.0,0.0,0.0,0.0,0.0,0.0,0.0,0.0,0.0,-0.0353,-0.0589,-0.0589,-0.1021,-0.1296,-0.1296,-0.1296,-0.1296,-0.1296,-0.1296,-0.1296,-0.1296,-0.1296,-0.1296,-0.1296,-0.1296,-0.1296,-0.1296,-0.1239,-0.121,-0.121,-0.1222,-0.1395,-0.2769,-0.3018,-0.3285,-0.3456,-0.3499,-0.3332,-0.2617,-0.2391,-0.2131,-0.1536,-0.1385,-0.1303,-0.1232,-0.0553,0.0238,0.0986,0.1118,0.1116,0.1116,0.1112,0.1109,0.1109,0.1054,0.1048,0.1106,0.1054,0.1049,0.1107,0.1109,0.1109,0.1109,0.1109,0.1109,0.1109,0.1109,0.1109,0.1109,0.0269,-0.047,-0.1109,-0.252,-0.3192,-0.3192,-0.3259,-0.3627,-0.4259,-0.5186,-0.565,-0.5749,-0.6242,-0.671,-0.7129,-0.7246,-0.6975,-0.6515,-0.6537,-0.5914,-0.5057,-0.5018,-0.5018,-0.5018,-0.5018,-0.5018,-0.5018,-0.5018,-0.5018,-0.4979,-0.4859,-0.4343,-0.3752,-0.3519,-0.2387,-0.1254,-0.1137,-0.0549,0.0,0.0,0.0,0.0,0.0,0.0,0.0,0.0,0.0,0.0,0.0,0.0,0.0,0.0,-0.0353,-0.0589,-0.0589,-0.1021,-0.1296,-0.1296,-0.1296,-0.1296,-0.1296,-0.1296,-0.1296,-0.1296,-0.1296,-0.1296,-0.1296,-0.1296,-0.1296,-0.1296,-0.1223,-0.1206,-0.1204,-0.1537,-0.1854,-0.2917,-0.2743,-0.2553,-0.2725,-0.2785,-0.2673,-0.233,-0.1915,-0.1637,-0.1716,-0.1085,-0.0513,-0.0513,-0.0234,0.023,0.092,0.1052,0.1052,0.1052,0.1052,0.1052,0.1052,0.1026,0.1013,0.1025,0.1016,0.1014,0.1058,0.1042,0.1052,0.1052,0.1067,0.1109,0.1109,0.1109,0.1109,0.1109,0.037,-0.0571,-0.1712,-0.2721,-0.3192,-0.3192,-0.3328,-0.3596,-0.4028,-0.4818,-0.5315,-0.565,-0.6383,-0.6829,-0.7045,-0.7183,-0.6869,-0.631,-0.6286,-0.5743,-0.5018,-0.5018,-0.5018,-0.5018,-0.5018,-0.5018,-0.5018,-0.5018,-0.5018,-0.5018,-0.5018,-0.474,-0.4382,-0.391,-0.3244,-0.2582,-0.2074,-0.1332,-0.0745,-0.0745,-0.0353,0.0,0.0,0.0,0.0,0.0,0.0,0.0,0.0,0.0,0.0,0.0,-0.0353,-0.0589,-0.0589,-0.1021,-0.1296,-0.1296,-0.1296,-0.1296,-0.1296,-0.1296,-0.1296,-0.1296,-0.1296,-0.1296,-0.1296,-0.1296,-0.1296,-0.1296,-0.1227,-0.1326,-0.1552,-0.1735,-0.2102,-0.2975,-0.2659,-0.2245,-0.2178,-0.217,-0.2114,-0.171,-0.1208,-0.0907,-0.1275,-0.0501,0.0266,0.0266,0.0131,0.0225,0.0895,0.099,0.099,0.099,0.099,0.099,0.099,0.0995,0.098,0.0988,0.0982,0.098,0.0988,0.0985,0.1001,0.1001,0.106,0.1109,0.1109,0.1109,0.1109,0.1109,0.0134,-0.0872,-0.1978,-0.2921,-0.336,-0.336,-0.3496,-0.373,-0.3992,-0.4522,-0.4984,-0.5418,-0.6383,-0.6716,-0.6692,-0.7062,-0.6717,-0.6005,-0.6014,-0.5535,-0.4936,-0.5007,-0.5018,-0.5018,-0.5018,-0.5018,-0.5018,-0.5018,-0.5018,-0.5018,-0.5018,-0.5018,-0.4859,-0.4265,-0.3949,-0.3636,-0.2971,-0.2192,-0.1488,-0.1058,-0.0471,0.0,0.0,0.0,0.0,0.0,0.0,0.0,0.0,0.0,0.0,-0.0079,-0.0393,-0.0628,-0.0668,-0.1061,-0.1296,-0.1296,-0.1296,-0.1296,-0.1296,-0.1296,-0.1296,-0.1296,-0.1296,-0.1296,-0.1296,-0.1296,-0.1296,-0.1296,-0.1234,-0.1415,-0.1834,-0.1912,-0.2332,-0.2791,-0.2869,-0.2797,-0.218,-0.2108,-0.1846,-0.0436,-0.0101,0.0134,0.0806,0.0922,0.0938,0.0938,0.0419,0.0223,0.0901,0.099,0.099,0.099,0.099,0.099,0.099,0.0934,0.0926,0.0986,0.0932,0.0927,0.0986,0.0985,0.1001,0.1001,0.106,0.1109,0.1109,0.1109,0.1109,0.1109,-0.0436,-0.1273,-0.1374,-0.2984,-0.3758,-0.3758,-0.3792,-0.3792,-0.3825,-0.4392,-0.4625,-0.4758,-0.5921,-0.6243,-0.6005,-0.6671,-0.6354,-0.5565,-0.5681,-0.5322,-0.4822,-0.4938,-0.5018,-0.5018,-0.5018,-0.5018,-0.5018,-0.5018,-0.5018,-0.5018,-0.5018,-0.5018,-0.4979,-0.4937,-0.4382,-0.3791,-0.3752,-0.3051,-0.1996,-0.0392,-0.0039,0.0,0.0,0.0,0.0,0.0,0.0,0.0,0.0,0.0,-0.0079,-0.0275,-0.0471,-0.0668,-0.0864,-0.1139,-0.1296,-0.1296,-0.1296,-0.1296,-0.1296,-0.1296,-0.1296,-0.1296,-0.1296,-0.1296,-0.1296,-0.1296,-0.1296,-0.1296,-0.1295,-0.1489,-0.1918,-0.2267,-0.2664,-0.2779,-0.2491,-0.2137,-0.1989,-0.1664,-0.1242,-0.0686,-0.0265,0.0067,0.0336,0.0724,0.0996,0.1008,0.0772,0.0667,0.09,0.0929,0.0929,0.0929,0.0929,0.0929,0.0929,0.0903,0.0918,0.0929,0.092,0.0918,0.0929,0.0928,0.0945,0.0945,0.1003,0.1052,0.1052,0.0941,0.086,0.0707,-0.0269,-0.104,-0.1508,-0.2582,-0.3355,-0.3792,-0.3892,-0.3928,-0.3961,-0.4261,-0.4495,-0.4691,-0.5679,-0.6009,-0.5903,-0.587,-0.5702,-0.5438,-0.5075,-0.4879,-0.4801,-0.4847,-0.4911,-0.5018,-0.5018,-0.5018,-0.5018,-0.5018,-0.5018,-0.5018,-0.5018,-0.5018,-0.5018,-0.5018,-0.4779,-0.4423,-0.391,-0.3558,-0.2893,-0.1215,-0.0392,0.0,0.0,0.0,0.0,0.0,0.0,0.0,0.0,0.0,-0.0079,-0.0275,-0.0471,-0.0668,-0.0864,-0.1139,-0.1296,-0.1296,-0.1296,-0.1296,-0.1296,-0.1296,-0.1296,-0.1296,-0.1296,-0.1296,-0.1296,-0.1296,-0.1296,-0.1296,-0.1296,-0.1649,-0.2275,-0.2431,-0.2849,-0.2693,-0.2402,-0.2044,-0.1926,-0.1564,-0.1177,-0.0964,-0.0425,0.0033,0.0033,0.0551,0.1012,0.0992,0.0955,0.0899,0.0899,0.0899,0.0899,0.0899,0.0899,0.0899,0.0899,0.091,0.0898,0.0898,0.0898,0.0898,0.0898,0.0897,0.0,0.0913,0.0911,0.0896,0.0834,0.0756,0.0645,0.0499,-0.0232,-0.0964,-0.1709,-0.2482,-0.3255,-0.3961,-0.4061,-0.4097,-0.4097,-0.4233,-0.4364,-0.4561,-0.5382,-0.5576,-0.5348,-0.5312,-0.5205,-0.5064,-0.4663,-0.4599,-0.4779,-0.4782,-0.4876,-0.5018,-0.5018,-0.5018,-0.5018,-0.5018,-0.5018,-0.5018,-0.5018,-0.5018,-0.5018,-0.5018,-0.5018,-0.4779,-0.3988,-0.3558,-0.2971,-0.1606,-0.0862,-0.0353,-0.0039,0.0,0.0,0.0,0.0,0.0,0.0,0.0,-0.0079,-0.0353,-0.051,-0.0707,-0.1021,-0.1178,-0.1296,-0.1296,-0.1296,-0.1296,-0.1296,-0.1296,-0.1296,-0.1296,-0.1296,-0.1296,-0.1296,-0.1296,-0.1296,-0.1296,-0.1296,-0.1728,-0.2511,-0.2511,-0.2979,0.0,0.0,0.0,-0.2074,-0.1906,-0.1736,-0.1085,-0.0417,0.0064,0.0064,0.0566,0.0956,0.0956,0.0938,0.0898,0.0898,0.0898,0.0898,0.0898,0.0898,0.087,0.0872,0.087,0.0842,0.0842,0.0842,0.0842,0.087,0.0867,0.0883,0.0883,0.0818,0.0708,0.0493,0.0493,0.0501,0.0484,-0.0354,-0.1141,-0.1907,-0.2774,-0.3547,-0.4295,-0.4295,-0.4298,-0.43,-0.43,-0.43,-0.4364,-0.5017,-0.4885,-0.4367,-0.5017,-0.4888,-0.4314,-0.446,-0.4577,-0.4701,-0.4787,-0.4871,-0.5012,-0.5015,-0.5018,-0.5018,-0.5018,-0.5018,-0.5018,-0.5018,-0.5018,-0.5018,-0.5018,-0.5018,-0.4779,-0.3988,-0.3168,-0.2309,-0.1488,-0.1293,-0.1058,-0.0157,0.0,0.0,0.0,0.0,0.0,0.0,0.0,-0.0157,-0.055,-0.0589,-0.0786,-0.1257,-0.1296,-0.1296,-0.1296,-0.1296,-0.1296,-0.1296,-0.1296,-0.1296,-0.1296,-0.1296,-0.1296,-0.1296,-0.1296,-0.1296,-0.1296,-0.1296,-0.1728,-0.2511,-0.2511,-0.2979,-0.2655,0.0,0.0,0.0,0.0,0.0,-0.1535,-0.1012,-0.0561,-0.0561,-0.0122,0.0269,0.0269,0.0606,0.0898,0.0898,0.0898,0.0905,0.0898,0.0513,0.0228,0.0179,-0.0173,-0.0423,-0.0463,-0.0425,-0.0224,0.0,0.0254,0.0398,0.0739,0.0602,0.0437,0.0298,0.0269,0.0242,0.0125,-0.0094,-0.0815,-0.1989,-0.2208,-0.2967,-0.4167,-0.4167,-0.4216,-0.43,-0.43,-0.43,-0.43,-0.4498,-0.4464,-0.4334,-0.4498,-0.4464,-0.4306,-0.4336,-0.4454,-0.4572,-0.4698,-0.4781,-0.486,-0.4949,-0.5018,-0.5018,-0.5018,-0.5018,-0.5018,-0.5018,-0.5018,-0.5018,-0.5018,-0.5018,-0.4779,-0.3988,-0.3636,-0.3051,-0.1606,-0.1293,-0.1058,-0.0157,0.0,0.0,0.0,0.0,0.0,0.0,-0.0118,-0.0314,-0.055,-0.0746,-0.0943,-0.1257,-0.1296,-0.1296,-0.1296,-0.1296,-0.1296,-0.1296,-0.1296,-0.1296,-0.1296,-0.1296,-0.1296,-0.1296,-0.1296,-0.1296,-0.1296,-0.1296,-0.1728,-0.2511,-0.3137,-0.3567,-0.2676,-0.2719,-0.2756,-0.282,0.0,0.0,-0.2147,-0.164,-0.1177,-0.1177,-0.0744,-0.0382,-0.0382,-0.0086,0.014,0.014,0.014,0.0226,0.0489,-0.0029,-0.0435,-0.0481,-0.0759,-0.0948,-0.0997,-0.0941,-0.0643,-0.0056,0.0,0.0168,0.0561,0.0421,0.0255,0.0115,0.0115,0.0088,0.0,0.0,-0.0548,-0.1632,-0.1879,-0.2596,-0.3732,-0.3988,-0.4186,-0.43,-0.43,-0.43,-0.43,-0.43,-0.43,-0.43,-0.43,-0.43,-0.43,-0.43,-0.4374,-0.4523,-0.4646,-0.4732,-0.4817,-0.4938,-0.5018,-0.5018,-0.5018,-0.5018,-0.5018,-0.5018,-0.5018,-0.5018,-0.5018,-0.5018,-0.4779,-0.3988,-0.3519,-0.2893,-0.1567,-0.1019,-0.0588,-0.0118,0.0,0.0,0.0,0.0,0.0,0.0,-0.0157,-0.0353,-0.0589,-0.0786,-0.1021,-0.1257,-0.1296,-0.1296,-0.1296,-0.1296,-0.1296,-0.1296,-0.1296,-0.1296,-0.1296,-0.1296,-0.1296,-0.1296,-0.1296,-0.1375,-0.1531,-0.1531,-0.1962,-0.2787,-0.3489,-0.3802,-0.2748,-0.2779,-0.2856,-0.2954,-0.2891,0.0,-0.2817,-0.2316,-0.1848,-0.1841,-0.1432,-0.1051,-0.1051,-0.0997,-0.095,-0.095,-0.0978,-0.0812,-0.0197,-0.0662,-0.1084,-0.1096,-0.115,-0.1206,-0.1209,-0.1146,-0.087,-0.0252,-0.0112,0.0084,0.0393,0.0252,0.0112,0.0,0.0,0.0,0.0,0.0,-0.0356,-0.1097,-0.1616,-0.2324,-0.3187,-0.3646,-0.4003,-0.4281,-0.4192,-0.4233,-0.43,-0.43,-0.43,-0.43,-0.43,-0.43,-0.43,-0.43,-0.4363,-0.4503,-0.4643,-0.4724,-0.4798,-0.4936,-0.5015,-0.5015,-0.5015,-0.5057,-0.5057,-0.5057,-0.5057,-0.5057,-0.5054,-0.5015,-0.4818,-0.3871,-0.3051,-0.227,-0.1332,-0.0549,0.0,0.0,0.0,0.0,0.0,0.0,0.0,0.0,-0.0196,-0.0393,-0.0589,-0.0786,-0.1021,-0.1257,-0.1296,-0.1296,-0.1296,-0.1296,-0.1296,-0.1296,-0.1296,-0.1296,-0.1296,-0.1296,-0.1296,-0.1296,-0.1296,-0.1531,-0.196,-0.196,-0.2353,-0.3102,-0.3569,-0.3802,-0.2963,-0.2946,-0.2948,-0.2864,-0.2891,0.0,-0.2895,-0.2799,-0.2768,-0.281,-0.2343,-0.1949,-0.1949,-0.1545,-0.1229,-0.1229,-0.1538,-0.1525,-0.0812,-0.1258,-0.1687,-0.1789,-0.2184,-0.2495,-0.2586,-0.2493,-0.2161,-0.1486,-0.0756,-0.0112,0.0364,0.0168,0.0028,0.0,0.0,0.0,0.0,0.0,-0.0312,-0.0943,-0.1058,-0.1771,-0.2932,-0.2581,-0.303,-0.4127,-0.3619,-0.3756,-0.43,-0.43,-0.43,-0.43,-0.43,-0.43,-0.43,-0.43,-0.4314,-0.4363,-0.4613,-0.4703,-0.4761,-0.4944,-0.509,-0.5243,-0.5243,-0.5362,-0.5482,-0.5482,-0.5482,-0.5443,-0.5285,-0.5243,-0.4813,-0.3166,-0.262,-0.2074,-0.0588,-0.0118,0.0,0.0,0.0,0.0,0.0,0.0,0.0,0.0,-0.0314,-0.055,-0.0589,-0.0982,-0.1257,-0.1296,-0.1296,-0.1296,-0.1296,-0.1296,-0.1296,-0.1296,-0.1296,-0.1296,-0.1296,-0.1296,-0.1296,-0.1296,-0.1296,-0.1649,-0.2392,-0.2392,-0.2628,-0.3102,-0.3569,-0.3802,-0.3086,-0.3053,-0.3043,-0.2968,-0.3018,0.0,0.0,-0.3011,-0.3066,-0.3182,-0.2915,-0.2671,-0.2746,-0.246,-0.2207,-0.2207,-0.235,-0.2336,-0.2029,-0.2237,-0.2421,-0.2506,-0.2766,-0.2975,-0.3049,-0.2972,-0.2495,-0.1465,-0.0833,-0.0228,0.0365,0.014,0.0,0.0,0.0,0.0,0.0,0.0,-0.014,-0.0449,-0.0757,-0.1453,-0.2441,-0.2488,-0.2878,-0.3544,-0.368,-0.3756,-0.3792,-0.4164,-0.4367,-0.4431,-0.4334,-0.43,-0.43,-0.43,-0.4367,-0.449,-0.4641,-0.4776,-0.489,-0.511,-0.5266,-0.5351,-0.5419,-0.5521,-0.5598,-0.5598,-0.5598,-0.5559,-0.5479,-0.5085,-0.446,-0.3519,-0.2582,-0.1684,-0.0824,-0.0314,0.0,0.0,0.0,0.0,0.0,0.0,-0.0039,-0.0118,-0.0393,-0.0628,-0.0746,-0.1061,-0.1296,-0.1296,-0.1296,-0.1296,-0.1296,-0.1296,-0.1296,-0.1296,-0.1296,-0.1296,-0.1296,-0.1296,-0.1414,-0.1608,-0.1805,-0.2198,-0.2787,-0.2787,-0.3022,-0.3452,-0.3686,-0.3802,-0.3182,-0.315,-0.3174,-0.3136,-0.3212,-0.3256,0.0,0.0,0.0,-0.3333,-0.3277,-0.3215,-0.3331,-0.3275,-0.3188,-0.3188,-0.3081,-0.3081,-0.3269,-0.3263,-0.3171,-0.3082,-0.3072,-0.3096,-0.3128,-0.3043,-0.2444,-0.1088,-0.0877,-0.0434,0.0368,0.0141,0.0,0.0,0.0,0.0,0.0,0.0,0.0,0.0,-0.0505,-0.1108,-0.1808,-0.2239,-0.2558,-0.2845,-0.3443,-0.3522,-0.3318,-0.3892,-0.4328,-0.4628,-0.4431,-0.4367,-0.44,-0.44,-0.4498,-0.4645,-0.4743,-0.4859,-0.504,-0.5277,-0.5408,-0.5494,-0.5674,-0.5754,-0.5754,-0.5754,-0.5754,-0.5715,-0.5676,-0.5046,-0.4341,-0.399,-0.2738,-0.1488,-0.1176,-0.051,0.0,0.0,0.0,0.0,0.0,0.0,-0.0079,-0.0275,-0.0471,-0.0668,-0.0864,-0.1139,-0.1296,-0.1296,-0.1296,-0.1296,-0.1296,-0.1296,-0.1296,-0.1296,-0.1296,-0.1296,-0.1296,-0.1375,-0.157,-0.1882,-0.2314,-0.2707,-0.3102,-0.3102,-0.3335,-0.3802,-0.3802,-0.3802,-0.3278,-0.3311,-0.3405,-0.323,-0.3371,-0.3513,-0.3392,0.0,-0.3482,-0.3539,0.0,-0.356,-0.3574,0.0,0.0,-0.3555,-0.3444,-0.3522,-0.4015,-0.4026,-0.3797,-0.3336,-0.3127,-0.3063,-0.3188,-0.3069,-0.2415,-0.1027,-0.1258,-0.0911,0.041,0.0171,0.0,0.0,0.0,0.0,0.0,0.0,0.0,0.0,-0.0056,-0.0422,-0.1018,-0.0541,-0.0988,-0.2082,-0.1642,-0.2214,-0.3487,-0.3553,-0.4056,-0.4764,-0.4628,-0.4628,-0.4731,-0.4731,-0.4764,-0.4782,-0.4918,-0.4966,-0.5025,-0.5167,-0.5439,-0.5751,-0.6098,-0.6222,-0.6222,-0.6222,-0.6222,-0.618,-0.5941,-0.5786,-0.5276,-0.36,-0.2896,-0.2232,-0.0746,-0.0196,0.0,0.0,0.0,0.0,0.0,0.0,-0.0079,-0.0275,-0.0471,-0.0668,-0.0864,-0.1139,-0.1296,-0.1296,-0.1296,-0.1296,-0.1296,-0.1296,-0.1296,-0.1296,-0.1296,-0.1296,-0.1296,-0.1648,-0.1843,-0.1882,-0.2314,-0.2707,-0.3102,-0.3102,-0.3335,-0.3802,-0.3802,-0.3802,-0.351,-0.3479,-0.3524,-0.3437,-0.3482,-0.3542,-0.3459,-0.3501,-0.3576,-0.3709,0.0,0.0,0.0,0.0,0.0,0.0,-0.3744,-0.3987,-0.4322,-0.4483,-0.4494,-0.4317,0.0,0.0,-0.3745,-0.3343,-0.2686,-0.1661,-0.1641,-0.1212,-0.0206,-0.0058,0.0,0.0,0.0,0.0,0.0,0.0,0.0,0.0,0.0,-0.0308,-0.0899,-0.0706,-0.0959,-0.1502,-0.1756,-0.2064,-0.2456,-0.3272,-0.3901,-0.4361,-0.4758,-0.4861,-0.4797,-0.4797,-0.4861,-0.4967,-0.5026,-0.515,-0.5256,-0.5477,-0.5682,-0.5942,-0.6213,-0.63,-0.63,-0.63,-0.63,-0.6261,-0.618,-0.5315,-0.4258,-0.3478,-0.2388,-0.1294,-0.0471,-0.0236,-0.0157,-0.0039,0.0,0.0,0.0,0.0,-0.0118,-0.0432,-0.055,-0.0746,-0.11,-0.1218,-0.1296,-0.1296,-0.1296,-0.1296,-0.1296,-0.1296,-0.1296,-0.1296,-0.1296,-0.1296,-0.1296,-0.1923,-0.2235,-0.2235,-0.2901,-0.3333,-0.3491,-0.3491,-0.3608,-0.3802,-0.3802,-0.3802,-0.3641,-0.3641,-0.3665,-0.3636,-0.3605,-0.3586,-0.3553,-0.3727,-0.3897,-0.3783,-0.3835,0.0,0.0,0.0,-0.3885,-0.4052,0.0,-0.4618,-0.4928,-0.5144,-0.5215,-0.5106,-0.5151,0.0,0.0,-0.3761,-0.314,-0.2187,-0.1865,-0.1396,-0.0604,-0.0208,0.0,0.0,0.0,0.0,0.0,0.0,0.0,0.0,0.0,-0.0224,-0.0646,-0.0782,-0.0852,-0.0883,-0.1549,-0.1785,-0.1739,-0.2764,-0.3531,-0.4125,-0.4655,-0.4924,-0.4964,-0.4964,-0.506,-0.519,-0.519,-0.5292,-0.5436,-0.5661,-0.5844,-0.5996,-0.6152,-0.6265,-0.63,-0.63,-0.63,-0.63,-0.63,-0.5082,-0.3789,-0.3556,-0.2232,-0.0942,-0.055,-0.0432,-0.0353,-0.0196,-0.0157,-0.0157,-0.0157,-0.0118,-0.0196,-0.055,-0.0628,-0.0825,-0.1257,-0.1296,-0.1296,-0.1296,-0.1296,-0.1296,-0.1296,-0.1296,-0.1296,-0.1296,-0.1296,-0.1335,-0.1452,-0.2119,-0.255,-0.2668,-0.3411,-0.3802,-0.3802,-0.3802,-0.3802,-0.3802,-0.3802,-0.3802,0.0,0.0,0.0,-0.3699,0.0,0.0,-0.3642,-0.4207,-0.4547,-0.3778,-0.421,-0.4715,-0.4522,-0.4463,-0.4653,-0.5171,-0.525,0.0,0.0,-0.6154,-0.5937,-0.5367,-0.524,-0.4908,0.0,-0.4252,-0.3746,0.0,-0.1917,-0.142,-0.0544,-0.0182,0.0,0.0,0.0,0.0,0.0,0.0,0.0,0.0,0.0,0.0,-0.0028,-0.0174,-0.0236,-0.0236,-0.0396,-0.0973,-0.1804,-0.1836,-0.2812,-0.4287,-0.432,-0.4755,-0.5395,-0.5395,-0.5395,-0.5395,-0.5395,-0.5395,-0.5423,-0.5545,-0.5691,-0.5837,-0.5952,-0.6142,-0.63,-0.63,-0.63,-0.63,-0.63,-0.5631,-0.4768,-0.3986,-0.2935,-0.1922,-0.106,-0.0746,-0.0589,-0.0589,-0.0589,-0.0589,-0.0589,-0.0432,-0.0353,-0.055,-0.0746,-0.0982,-0.1257,-0.1296,-0.1296,-0.1296,-0.1296,-0.1296,-0.1296,-0.1296,-0.1296,-0.1296,-0.1296,-0.1492,-0.1882,-0.2275,-0.2668,-0.3062,-0.3567,-0.3802,-0.3802,-0.3802,-0.3802,-0.3802,-0.3802,-0.3802,0.0,0.0,-0.4369,-0.4533,0.0,0.0,0.0,0.0,0.0,-0.477,-0.4942,-0.5099,-0.5046,-0.5034,-0.5089,-0.5281,-0.5637,-0.5959,0.0,-0.6534,-0.6729,-0.6507,-0.6041,-0.5639,-0.5385,0.0,0.0,-0.3456,-0.2739,0.0,0.0,-0.0916,-0.0492,-0.0029,0.0,0.0,0.0,0.0,0.0,0.0,0.0,-0.0056,-0.014,-0.017,-0.0314,-0.0542,-0.0577,-0.0867,-0.1316,-0.1784,-0.2349,-0.2948,-0.3918,-0.4456,-0.4722,-0.5226,-0.5395,-0.5395,-0.5395,-0.5395,-0.5419,-0.5542,-0.5684,-0.583,-0.5946,-0.6139,-0.63,-0.63,-0.63,-0.63,-0.63,-0.5276,-0.4144,-0.3869,-0.2663,-0.1492,-0.1021,-0.0864,-0.0746,-0.0628,-0.0589,-0.0589,-0.0589,-0.0668,-0.0707,-0.0786,-0.0864,-0.0982,-0.1257,-0.1296,-0.1296,-0.1296,-0.1296,-0.1296,-0.1296,-0.1296,-0.1296,-0.1296,-0.1531,-0.1764,-0.1882,-0.255,-0.2943,-0.3102,-0.3569,-0.3802,-0.3802,-0.3802,-0.3802,-0.3802,-0.3802,-0.3802,-0.4333,-0.4655,0.0,-0.5129,-0.5287,0.0,-0.5518,0.0,-0.5686,0.0,-0.555,-0.5742,-0.5645,-0.5605,-0.5687,-0.5909,-0.6263,-0.6507,0.0,-0.6972,-0.7273,-0.7112,-0.6669,-0.6199,-0.5733,-0.4941,-0.4264,-0.3818,-0.3103,-0.2379,0.0,0.0,-0.076,-0.0031,0.0,0.0,0.0,0.0,0.0,0.0,0.0,-0.0084,-0.0196,-0.0252,-0.0421,-0.0701,-0.0757,-0.0844,-0.105,-0.1511,-0.1851,-0.2213,-0.3451,-0.4084,-0.4386,-0.5123,-0.5395,-0.5395,-0.5395,-0.5395,-0.5412,-0.5511,-0.564,-0.582,-0.5918,-0.6095,-0.63,-0.63,-0.63,-0.63,-0.63,-0.5043,-0.3791,-0.3791,-0.2507,-0.1257,-0.1061,-0.1061,-0.1021,-0.0864,-0.0864,-0.0864,-0.0864,-0.0943,-0.1021,-0.0904,-0.0982,-0.11,-0.1296,-0.1296,-0.1296,-0.1296,-0.1296,-0.1296,-0.1296,-0.1296,-0.1375,-0.1492,-0.1764,-0.2038,-0.2314,-0.2826,-0.318,-0.3335,-0.3645,-0.3802,-0.3802,-0.3802,-0.3802,-0.3802,-0.3802,-0.3802]}]]